GFSSE_con_mucape_000.txt.gz
CAPE
65 328 971 943 645 511 628 246 74 12 8 0 0 0 21 26 2 0 6 27 10 5 22 35 45 63 54 51 44 29 37 25 4 0 0 0 0 0 13 3 0 2 6
134 320 1215 1164 665 611 443 174 41 10 8 0 0 0 0 0 0 2 0 7 11 7 6 20 24 23 36 32 11 16 18 6 3 0 0 0 0 0 3 4 0 3 43
69 193 689 1465 1163 850 497 119 33 5 0 0 0 7 0 5 7 6 4 7 13 13 11 2 0 0 0 11 30 31 24 7 0 0 0 0 0 0 0 0 0 0 23
105 153 351 1625 1088 829 594 154 59 29 0 0 0 18 43 20 24 26 9 7 11 7 0 0 0 0 0 6 28 23 29 22 5 0 0 0 0 15 0 0 0 0 0
29 308 970 1593 1380 1002 401 140 68 54 19 0 0 7 33 45 84 21 22 18 19 5 0 0 0 0 0 0 1 10 11 20 10 0 0 0 0 0 8 0 0 0 0
26 730 1388 1661 1629 1199 748 349 139 86 67 37 0 14 16 67 152 159 47 67 17 6 0 0 0 0 0 0 0 0 0 0 8 0 0 0 0 0 0 7 4 0 0
88 929 1327 1710 1475 1275 1051 578 276 161 77 40 11 4 19 92 203 227 128 53 8 0 2 0 0 0 3 9 0 0 0 0 0 0 0 0 0 0 0 0 3 4 3
129 413 1083 1348 1241 1348 1031 825 566 357 213 129 18 0 7 56 133 201 226 85 1 0 0 0 0 0 0 1 10 5 4 0 0 0 0 0 0 0 0 0 0 0 1
158 286 296 753 958 1411 1203 1093 779 624 495 251 85 14 90 49 43 104 148 42 13 0 0 0 0 0 0 0 0 1 5 0 0 0 0 0 0 0 0 0 0 0 0
221 270 268 382 403 736 455 765 719 596 554 294 153 120 78 77 67 76 84 84 28 0 0 0 0 0 0 0 0 0 0 0 0 0 0 0 0 0 0 0 0 0 0
274 319 337 385 531 421 392 447 544 430 431 278 132 90 71 0 0 0 1 0 0 0 0 0 0 0 0 0 0 0 0 0 0 0 0 0 0 0 0 0 0 2 3
273 350 421 423 501 447 338 405 299 171 180 149 115 100 34 0 0 0 0 0 2 59 48 0 6 19 5 0 0 0 0 0 0 0 0 0 0 0 0 0 0 1 4
176 308 427 486 507 497 423 322 311 264 196 142 103 47 26 3 0 0 0 0 0 0 0 1 7 0 0 0 0 0 0 0 0 0 0 0 0 0 0 20 33 2 7
55 232 324 450 554 578 547 390 334 189 157 120 84 63 38 36 20 22 16 12 11 6 6 12 22 23 27 17 11 13 15 15 10 8 3 0 22 50 12 23 115 79 26
10 28 164 294 513 589 598 501 370 264 176 137 128 135 106 111 126 152 174 177 132 58 55 24 29 9 10 8 14 15 9 9 14 18 15 7 7 142 258 78 60 64 73
15 41 37 94 320 491 546 487 386 307 217 177 162 151 130 118 124 154 138 162 29 47 16 14 12 4 2 0 0 0 0 0 0 0 0 0 0 30 234 299 139 124 122
2 2 7 26 64 307 355 406 291 229 210 187 157 116 89 88 70 83 160 22 0 0 0 0 0 0 0 0 0 0 0 1 0 0 0 0 0 5 76 324 651 344 331
0 0 0 0 4 122 286 260 214 168 127 98 76 113 55 10 0 0 0 0 0 0 0 0 0 0 0 0 0 0 0 0 0 0 0 0 9 16 50 170 192 275 259
0 0 0 0 1 109 198 159 132 49 33 31 39 8 0 0 0 0 0 0 0 0 0 0 0 0 0 0 0 0 0 0 0 0 0 0 0 7 3 14 88 164 201
0 0 0 19 59 104 118 79 33 15 5 0 0 0 0 0 0 0 0 0 0 0 0 0 0 0 0 0 0 0 0 0 0 0 0 0 0 0 7 0 0 5 106
0 0 0 1 0 0 4 0 0 0 0 0 0 0 0 0 0 0 0 0 0 0 0 0 0 0 0 0 0 0 0 0 0 0 0 0 0 0 0 0 0 0 0
0 0 0 5 4 1 0 0 0 0 0 0 0 0 0 0 0 0 0 0 0 0 0 0 0 0 0 0 0 0 0 0 0 0 0 0 0 0 0 0 0 0 0
0 0 0 0 0 0 0 0 0 0 0 0 0 0 0 0 0 0 0 0 0 0 0 0 0 0 0 0 0 0 0 0 0 0 0 0 0 0 0 0 0 0 0
0 0 0 0 0 0 0 0 0 0 0 0 0 0 0 0 0 0 0 0 0 0 0 0 0 0 0 0 0 0 0 0 0 0 0 0 0 0 0 0 0 0 0
0 0 0 0 0 0 0 0 0 0 0 0 0 0 0 0 0 0 0 0 0 0 0 0 0 0 0 0 0 0 0 0 0 0 0 0 0 0 0 0 0 0 0
0 0 0 0 0 0 0 0 0 0 0 0 0 0 0 0 0 0 0 0 0 0 0 0 0 0 0 0 0 0 0 0 0 0 0 0 0 0 0 0 0 0 0

GFSSE_con_mucape_003.txt.gz
CAPE
95 991 1775 1168 1142 1005 832 426 62 28 1 0 0 16 83 29 1 0 14 10 8 7 3 24 27 58 83 86 62 28 39 19 10 0 0 0 0 0 11 22 0 3 2
197 959 1648 1295 1036 909 856 341 92 28 0 0 0 1 2 8 0 6 11 4 0 1 0 2 22 24 25 28 15 13 25 21 9 0 0 0 0 0 6 1 0 0 23
562 987 1244 1724 1572 1261 793 153 58 12 0 0 0 5 7 9 14 20 13 1 1 6 0 0 0 0 0 0 7 23 35 12 2 0 0 0 0 0 8 0 0 0 2
503 778 1054 1850 1641 1344 723 184 51 19 0 0 0 18 10 31 16 16 20 16 20 6 0 0 0 0 0 0 0 8 15 22 3 2 0 0 0 0 13 6 0 0 0
285 518 970 1859 1702 1589 620 236 88 59 6 0 0 0 18 51 105 66 32 9 12 0 0 0 0 0 0 0 0 0 0 0 0 1 0 0 0 0 10 3 0 0 0
473 727 1634 1795 2037 1514 903 308 150 94 51 23 0 0 8 69 160 300 121 135 21 0 0 0 0 0 0 0 0 0 0 0 0 0 0 0 0 0 0 4 2 0 0
955 1021 1524 2100 1903 1553 1125 732 322 192 112 49 26 0 19 84 177 279 143 106 29 2 0 0 0 0 0 2 12 1 0 0 0 0 0 0 0 0 0 0 1 4 3
1154 1470 1615 1818 1767 1673 1578 1167 741 434 230 137 11 8 10 32 81 261 339 111 31 7 0 1 0 0 0 1 8 14 18 2 0 0 0 0 0 0 1 3 1 3 6
1091 1331 1424 1272 1311 1281 1297 1241 1013 866 621 264 109 30 97 39 33 101 386 136 62 35 24 40 22 0 0 0 0 15 37 6 0 0 0 0 0 0 0 3 5 5 2
581 697 1050 1050 1052 1255 1035 1025 754 630 553 496 215 161 83 59 46 79 158 148 93 85 58 4 0 0 0 0 0 0 0 0 0 0 0 0 0 0 0 0 4 4 6
295 402 484 840 666 855 453 538 574 436 449 305 151 91 64 8 0 3 32 75 61 41 31 12 19 31 114 42 20 8 0 0 0 0 0 0 0 0 0 0 2 0 3
312 369 412 575 664 735 479 451 337 259 261 186 114 81 71 22 0 9 0 6 20 132 216 146 151 339 149 0 0 1 3 2 0 0 0 0 0 0 2 97 112 26 0
306 384 450 506 742 625 536 472 273 236 191 150 139 101 70 42 30 20 26 36 53 44 46 25 17 11 8 13 14 11 16 19 13 14 12 9 14 17 35 280 376 333 265
222 383 487 532 626 553 488 350 333 225 213 118 111 77 68 71 67 116 152 159 167 177 141 63 21 16 15 25 22 15 0 0 0 4 3 5 30 78 144 390 443 484 477
166 400 443 535 558 602 569 453 331 233 162 124 112 119 109 127 162 200 209 163 136 75 50 15 5 6 0 0 0 0 0 0 0 0 0 0 14 148 264 297 262 281 292
72 329 411 433 566 598 604 460 326 270 201 115 131 134 137 142 156 188 250 67 5 1 0 0 0 0 0 0 0 0 0 0 0 0 0 0 1 47 106 317 496 270 117
27 61 124 388 574 557 538 447 299 253 171 172 138 338 86 150 114 200 29 0 0 0 0 0 0 0 0 0 0 0 0 0 0 0 0 0 0 0 54 89 324 390 206
21 110 113 213 541 456 363 309 172 145 159 123 70 22 107 28 11 2 0 0 0 0 0 0 0 0 0 0 0 0 0 0 0 0 0 0 0 0 1 26 45 28 115
0 0 0 76 386 306 267 210 225 62 20 1 0 0 0 0 0 0 0 0 0 0 0 0 0 0 0 0 0 0 0 0 0 0 0 0 0 0 0 0 0 18 10
0 0 0 66 232 242 142 111 77 20 0 0 0 0 0 0 0 0 0 0 0 0 0 0 0 0 0 0 0 0 0 0 0 0 0 0 0 0 0 0 0 0 0
0 0 18 103 154 143 82 56 34 0 0 0 0 0 0 0 0 0 0 0 0 0 0 0 0 0 0 0 0 0 0 0 0 0 0 0 0 0 0 0 0 0 0
0 0 18 53 74 36 0 0 0 0 0 0 0 0 0 0 0 0 0 0 0 0 0 0 0 0 0 0 0 0 0 0 0 0 0 0 0 0 0 0 0 0 0
0 0 0 0 0 0 0 0 0 0 0 0 0 0 0 0 0 0 0 0 0 0 0 0 0 0 0 0 0 0 0 0 0 0 0 0 0 0 0 0 0 0 0
0 0 0 0 0 0 0 0 0 0 0 0 0 0 0 0 0 0 0 0 0 0 0 0 0 0 0 0 0 0 0 0 0 0 0 0 0 0 0 0 0 0 0
0 0 0 0 0 0 0 0 0 0 0 0 0 0 0 0 0 0 0 0 0 0 0 0 0 0 0 0 0 0 0 0 0 0 0 0 0 0 0 0 0 0 0
0 0 0 0 0 0 0 0 0 0 0 0 0 0 0 0 0 0 0 0 0 0 0 0 0 0 0 0 0 0 0 0 0 0 0 0 0 0 0 0 0 0 0

GFSSE_con_mucape_006.txt.gz
CAPE
93 836 1973 1469 1495 1176 760 138 47 9 0 0 0 5 50 37 20 21 27 3 1 0 0 10 24 46 97 126 60 30 19 5 0 0 0 0 0 0 0 21 6 0 0
280 1068 1867 1582 1420 1091 738 135 48 2 0 0 1 2 27 22 6 12 12 7 0 0 0 0 1 13 16 11 11 3 9 4 2 0 0 0 0 0 0 14 0 0 18
624 1061 1290 1632 1527 1293 735 127 49 2 0 0 0 5 5 7 29 26 10 0 0 0 0 0 0 0 0 0 0 0 6 2 0 0 0 0 0 0 4 12 0 0 0
795 1061 1137 1762 1580 1230 545 111 42 3 0 0 0 2 12 12 12 2 22 18 0 0 0 0 0 0 0 0 0 0 0 7 0 0 0 0 0 0 0 10 11 0 0
741 885 1110 1904 1872 1411 538 143 50 15 0 0 0 2 21 36 26 31 32 16 0 0 0 0 0 0 0 0 0 0 0 0 0 0 0 0 0 0 17 17 13 9 0
458 719 1282 1943 1930 1701 1018 281 124 53 4 0 0 0 14 69 126 185 58 150 20 0 0 0 0 0 0 0 0 0 1 0 10 0 0 0 0 0 0 20 20 12 0
314 584 1513 1923 2067 1512 823 505 222 118 74 11 0 0 25 51 126 192 202 272 15 0 0 0 0 0 0 3 13 74 18 25 0 0 0 0 0 0 1 11 17 23 19
579 1029 1362 1915 1747 1366 1113 888 506 211 181 73 10 4 26 13 68 244 184 91 28 12 2 15 20 29 9 0 1 6 94 72 0 0 0 0 0 0 0 7 25 18 17
1022 1323 1454 1497 1271 1394 1412 1225 997 762 409 173 41 16 46 36 18 92 370 162 84 30 31 43 44 8 10 16 7 2 88 62 0 0 0 0 0 0 0 4 13 21 24
1191 1221 1325 1118 1037 900 1099 962 789 708 554 382 178 119 109 51 28 50 163 133 87 87 89 34 10 18 30 44 39 132 76 1 0 0 0 0 0 0 22 28 7 22 18
1175 1055 1155 1020 881 775 644 696 546 461 399 308 121 58 33 2 0 4 29 53 197 83 65 87 101 146 286 180 160 136 23 2 3 0 1 0 2 31 21 46 59 59 18
546 637 664 659 521 641 554 426 409 229 256 143 79 38 27 1 0 3 14 41 112 163 232 219 284 459 309 52 3 4 12 5 3 4 4 3 8 67 106 215 497 252 162
338 440 510 508 417 533 410 330 306 154 155 105 59 49 66 24 14 26 53 94 110 117 134 135 88 53 27 14 1 0 0 0 0 0 0 0 16 51 146 240 257 212 258
225 434 495 505 554 696 576 516 313 200 191 117 143 121 90 54 72 100 140 152 154 189 158 70 4 5 1 0 0 0 0 0 0 0 0 0 0 0 35 18 171 377 503
33 355 497 585 682 716 550 437 321 227 225 107 99 79 72 102 147 157 160 139 118 69 4 1 0 0 0 0 0 0 0 0 0 0 0 0 0 0 0 0 21 42 109
1 266 484 609 770 696 598 517 353 229 135 142 119 133 117 115 140 135 84 64 20 0 0 0 0 0 0 0 0 0 0 0 0 0 0 0 0 0 0 0 0 13 39
19 214 498 618 663 671 631 599 380 316 493 268 182 236 88 250 116 84 157 10 0 0 0 0 0 0 0 0 0 0 0 0 0 0 0 0 0 0 0 0 0 0 0
36 281 475 527 634 660 625 548 338 446 340 308 321 76 11 16 3 4 1 0 0 0 0 0 0 0 0 0 0 0 0 0 0 0 0 0 0 0 0 0 0 0 0
31 68 253 413 616 541 470 345 330 308 282 260 123 2 0 3 0 0 0 0 0 0 0 0 0 0 0 0 0 0 0 0 0 0 0 0 0 0 0 0 0 0 0
0 6 76 469 555 364 310 294 254 215 70 37 3 0 0 0 0 0 0 0 0 0 0 0 0 0 0 0 0 0 0 0 0 0 0 0 0 0 0 0 0 0 0
0 0 29 487 350 267 124 76 116 52 3 0 0 0 0 0 0 0 0 0 0 0 0 0 0 0 0 0 0 0 0 0 0 0 0 0 0 0 0 0 0 0 0
0 0 102 336 242 173 126 43 33 10 0 0 0 0 0 0 0 0 0 0 0 0 0 0 0 0 0 0 0 0 0 0 0 0 0 0 0 0 0 0 0 0 0
0 0 134 147 148 118 74 33 3 0 0 0 0 0 0 0 0 0 0 0 0 0 0 0 0 0 0 0 0 0 0 0 0 0 0 0 0 0 0 0 0 0 0
0 9 59 80 81 17 0 0 0 0 0 0 0 0 0 0 0 0 0 0 0 0 0 0 0 0 0 0 0 0 0 0 0 0 0 0 0 0 0 0 0 0 0
0 0 7 3 0 0 0 0 0 0 0 0 0 0 0 0 0 0 0 0 0 0 0 0 0 0 0 0 0 0 0 0 0 0 0 0 0 0 0 0 0 0 0
0 0 6 0 0 0 0 0 0 0 0 0 0 0 0 0 0 0 0 0 0 0 0 0 0 0 0 0 0 0 0 0 0 0 0 0 0 0 0 0 0 0 0

GFSSE_con_mucape_009.txt.gz
CAPE
34 271 1531 1734 1451 1113 732 92 26 0 0 0 0 8 37 71 38 33 16 1 0 0 0 5 14 26 77 83 76 28 6 0 0 0 0 0 0 1 2 0 13 0 6
52 358 1996 1807 1468 1194 704 120 26 0 0 0 1 35 43 39 17 9 0 0 0 0 0 0 0 0 6 18 11 2 5 5 0 0 0 0 0 0 0 23 1 0 11
235 1007 1601 1888 1931 1304 657 136 19 0 0 0 0 19 15 9 31 21 11 0 0 0 0 0 0 0 0 0 0 0 1 2 0 0 0 0 0 0 0 17 8 0 2
683 1196 1182 1894 1489 1256 667 154 33 0 0 0 0 2 0 13 23 20 20 0 0 0 0 0 0 0 0 0 0 0 0 1 0 0 0 0 0 0 5 26 19 11 3
873 1100 1014 1841 1663 1479 664 170 50 0 0 0 0 7 27 19 20 17 32 0 0 0 0 0 0 0 0 0 0 0 0 0 5 3 0 0 0 0 6 11 34 24 18
756 1054 1166 1914 1916 1570 986 266 82 11 0 0 0 3 18 72 84 76 48 104 24 0 0 0 0 0 0 0 10 37 11 10 23 0 0 0 0 0 0 10 7 29 9
603 824 1237 2053 2032 1736 1005 483 181 56 4 0 0 0 25 51 106 137 259 208 16 0 0 0 0 2 1 0 2 21 90 140 10 0 0 0 0 0 0 10 15 18 19
359 633 1409 1941 2002 1847 1140 815 463 154 156 15 0 0 25 20 47 196 141 75 22 2 0 1 12 21 24 11 14 7 58 115 9 0 0 0 0 0 0 1 9 25 26
374 785 1383 1524 1716 1301 1076 984 801 541 486 167 33 11 30 41 9 89 269 117 69 35 17 30 52 17 6 20 47 67 131 101 16 0 0 0 0 0 45 44 20 21 25
862 1073 1244 1458 1352 976 902 948 865 656 380 251 92 30 64 32 8 27 181 115 93 67 81 68 29 50 84 114 111 238 182 95 3 0 2 0 5 59 233 223 205 126 110
1157 1245 1185 1196 1083 882 891 783 717 586 382 236 80 28 11 0 0 0 9 31 93 149 91 113 181 229 339 247 220 192 77 14 6 3 4 0 20 152 309 372 322 246 243
1114 1256 1128 1121 874 700 604 567 451 330 290 175 57 14 3 0 0 0 0 19 93 163 199 177 272 243 80 31 6 0 0 0 0 0 0 4 37 79 38 95 201 206 193
845 1043 1083 1023 848 671 578 489 499 236 251 137 55 8 14 1 0 2 33 66 65 73 135 121 46 5 0 0 0 0 0 0 0 0 0 0 0 0 0 1 13 46 156
218 594 774 767 713 564 501 329 353 248 181 101 42 30 42 19 27 51 90 97 134 101 97 24 1 0 0 0 0 0 0 0 0 0 0 0 0 0 0 0 0 6 78
20 209 505 660 549 547 525 518 518 270 224 145 124 118 50 27 68 71 103 211 47 6 1 0 0 0 0 0 0 0 0 0 0 0 0 0 0 0 0 0 0 0 0
0 4 313 575 629 696 746 678 545 354 285 131 86 62 67 79 106 120 60 3 0 0 0 0 0 0 0 0 0 0 0 0 0 0 0 0 0 0 0 0 0 0 0
0 0 204 535 688 776 802 660 566 405 213 105 187 243 156 90 219 4 2 1 0 0 0 0 0 0 0 0 0 0 0 0 0 0 0 0 0 0 0 0 0 0 0
0 0 190 573 752 940 816 724 965 734 380 199 286 134 128 85 45 0 0 0 0 0 0 0 0 0 0 0 0 0 0 0 0 0 0 0 0 0 0 0 0 0 0
0 5 308 633 821 859 806 784 850 559 369 207 222 209 2 1 1 2 0 0 0 0 0 0 0 0 0 0 0 0 0 0 0 0 0 0 0 0 0 0 0 0 0
0 112 417 708 819 829 783 563 588 368 207 162 199 93 0 0 0 0 0 0 0 0 0 0 0 0 0 0 0 0 0 0 0 0 0 0 0 0 0 0 0 0 0
0 14 517 642 762 735 593 233 272 435 136 92 72 2 0 0 0 0 0 0 0 0 0 0 0 0 0 0 0 0 0 0 0 0 0 0 0 0 0 0 0 0 0
0 0 152 504 684 636 309 61 26 145 77 12 1 0 0 0 0 0 0 0 0 0 0 0 0 0 0 0 0 0 0 0 0 0 0 0 0 0 0 0 0 0 0
0 0 71 440 621 460 175 20 1 78 4 0 0 0 0 0 0 0 0 0 0 0 0 0 0 0 0 0 0 0 0 0 0 0 0 0 0 0 0 0 0 0 0
0 0 0 448 486 279 156 16 5 1 0 0 0 0 0 0 0 0 0 0 0 0 0 0 0 0 0 0 0 0 0 0 0 0 0 0 0 0 0 0 0 0 0
0 1 159 439 265 178 123 58 11 0 0 0 0 0 0 0 0 0 0 0 0 0 0 0 0 0 0 0 0 0 0 0 0 0 0 0 0 0 0 0 0 0 0
33 100 221 169 168 78 16 4 0 0 0 0 0 0 0 0 0 0 0 0 0 0 0 0 0 0 0 0 0 0 0 0 0 0 0 0 0 0 0 0 0 0 0

GFSSE_con_mucape_012.txt.gz
CAPE
22 321 1826 1845 1462 1036 691 110 23 0 0 0 0 7 50 81 46 34 6 0 0 0 0 4 17 38 64 73 106 54 11 0 0 0 0 0 0 0 8 5 4 2 0
29 332 1334 1808 1678 1072 670 130 28 0 0 0 0 30 65 82 43 41 17 0 0 0 0 0 0 0 5 21 23 11 16 17 0 0 0 0 0 0 1 10 18 0 0
56 280 1448 2069 1938 1380 584 189 28 0 0 0 1 56 51 8 41 23 14 0 0 0 0 0 0 0 0 0 0 0 0 2 0 0 0 0 0 0 0 13 17 1 2
279 862 1460 2056 1955 1398 641 236 36 0 0 0 0 11 16 19 28 29 0 0 0 0 0 0 0 0 0 0 0 0 0 0 5 12 0 0 0 0 0 12 25 25 15
849 1259 1221 2144 1819 1341 692 250 71 1 0 0 0 0 20 21 33 27 11 2 0 0 0 0 0 0 0 0 0 0 1 0 0 0 0 0 0 0 0 20 39 49 18
968 1289 1302 1909 1857 1762 1046 355 120 30 0 0 0 7 23 31 57 38 59 73 26 0 0 0 0 0 0 0 0 0 32 5 11 0 0 0 0 0 0 0 18 11 28
930 1158 1330 2048 1937 1711 1032 521 171 66 8 0 0 0 15 43 66 59 228 160 8 0 0 0 0 0 1 2 1 1 15 57 13 4 0 0 0 0 0 0 5 20 29
712 981 1251 1890 2091 1782 1287 873 471 126 62 2 0 0 7 32 28 176 209 102 27 0 0 0 5 14 9 1 15 32 37 89 16 4 0 0 0 7 45 41 6 3 10
532 827 1270 1745 1864 1779 1330 1056 866 461 383 147 9 4 32 44 3 129 182 90 49 43 9 22 38 17 18 42 76 105 177 127 32 1 0 4 6 53 151 197 239 154 76
444 781 1260 1615 1659 1627 948 967 858 744 412 356 155 41 21 27 0 10 147 122 74 40 56 59 64 113 139 158 166 194 127 90 11 3 0 0 11 240 385 371 398 442 430
799 943 1176 1462 1467 1328 779 804 792 662 367 195 45 11 13 0 0 0 0 0 18 55 81 112 206 259 128 37 37 13 0 0 0 0 0 0 44 178 154 123 230 312 371
967 1114 1174 1253 1170 1234 846 803 661 456 274 137 40 13 0 0 0 0 0 0 19 29 27 43 65 39 7 0 0 0 0 0 0 0 0 0 0 0 0 0 22 18 9
718 1152 1268 1341 1080 1084 835 771 553 354 278 201 93 13 0 0 0 0 9 21 28 29 83 70 1 0 0 0 0 0 0 0 0 0 0 0 0 0 0 0 0 43 21
234 812 1202 1287 1213 1091 767 609 559 393 291 190 87 7 14 5 7 24 44 2 23 20 13 1 0 0 0 0 0 0 0 0 0 0 0 0 0 0 0 1 0 0 0
34 110 574 1115 1208 1013 910 549 506 437 255 176 95 33 42 21 22 27 1 82 24 1 0 0 0 0 0 0 0 0 0 0 0 0 0 0 0 0 0 0 0 0 0
0 0 53 541 946 888 833 522 439 523 277 239 171 157 54 47 82 54 98 1 1 0 0 0 0 0 0 0 0 0 0 0 0 0 0 0 0 0 0 0 0 0 0
0 0 0 229 639 795 639 772 724 581 453 283 233 183 181 123 91 71 1 1 0 0 0 0 0 0 0 0 0 0 0 0 0 0 0 0 0 0 0 0 0 0 0
0 0 0 173 473 771 857 980 954 610 582 350 184 220 212 151 48 15 4 0 0 0 0 0 0 0 0 0 0 0 0 0 0 0 0 0 0 0 0 0 0 0 0
0 0 56 276 435 759 1016 1003 697 497 542 384 295 211 93 4 0 3 0 0 0 0 0 0 0 0 0 0 0 0 0 0 0 0 0 0 0 0 0 0 0 0 0
0 0 243 381 588 834 1062 828 749 633 424 366 157 103 84 3 0 0 0 0 0 0 0 0 0 0 0 0 0 0 0 0 0 0 0 0 0 0 0 0 0 0 0
0 70 388 533 815 1036 920 850 816 416 429 311 250 177 56 3 0 0 0 0 0 0 0 0 0 0 0 0 0 0 0 0 0 0 0 0 0 0 0 0 0 0 0
0 108 455 686 919 956 792 841 366 193 189 122 145 34 5 0 0 0 0 0 0 0 0 0 0 0 0 0 0 0 0 0 0 0 0 0 0 0 0 0 0 0 0
0 20 452 760 939 818 843 602 214 20 33 30 11 2 0 0 0 0 0 0 0 0 0 0 0 0 0 0 0 0 0 0 0 0 0 0 0 0 0 0 0 0 0
0 0 150 587 786 672 871 474 121 0 1 12 1 0 0 0 0 0 0 0 0 0 0 0 0 0 0 0 0 0 0 0 0 0 0 0 0 0 0 0 0 0 0
0 0 0 161 497 375 647 270 15 2 0 0 0 0 0 0 0 0 0 0 0 0 0 0 0 0 0 0 0 0 0 0 0 0 0 0 0 0 0 0 0 0 0
0 0 0 135 164 493 409 128 22 1 13 0 0 0 0 0 0 0 0 0 0 0 0 0 0 0 0 0 0 0 0 0 0 0 0 0 0 0 0 0 0 0 0

GFSSE_con_mucape_015.txt.gz
CAPE
47 212 1682 1796 1462 1017 413 88 17 0 0 0 0 2 67 75 61 31 11 0 0 0 0 1 20 52 40 44 79 52 10 0 0 0 0 0 0 0 0 5 2 7 0
89 354 2128 2046 1632 1004 503 122 33 1 0 0 0 2 58 85 77 52 19 0 0 0 0 0 0 3 9 34 26 11 7 0 0 0 0 0 0 0 0 16 19 3 0
191 541 1378 2130 1850 1462 556 202 44 11 0 0 5 42 45 17 38 19 16 0 0 0 0 0 0 0 0 3 0 0 0 0 0 0 0 0 0 0 1 0 18 1 0
273 567 1184 2188 2019 1534 693 253 43 4 0 0 11 36 10 39 25 3 0 0 0 0 0 0 0 0 0 0 0 0 0 0 0 0 0 0 0 0 0 16 11 31 11
385 847 1405 2226 2117 1574 834 300 72 1 0 0 0 12 12 33 30 11 0 0 0 0 0 0 0 0 0 0 0 0 0 0 0 0 0 0 0 0 0 0 7 105 44
879 1284 1676 2178 2077 1532 1169 382 129 22 0 0 0 0 22 24 21 33 47 52 13 0 0 0 0 0 0 0 0 5 21 22 8 0 0 0 0 0 0 0 0 0 4
1094 1363 1622 2117 2111 1707 1304 641 214 98 16 0 0 4 16 46 59 78 121 156 8 0 0 0 1 7 7 4 3 1 0 45 3 5 0 0 0 2 37 28 6 7 31
1150 1344 1546 1783 2100 1833 1412 965 483 137 68 0 0 0 5 36 12 191 216 104 22 0 0 0 2 14 4 2 11 28 34 55 2 2 2 3 0 26 129 159 156 97 54
1039 1213 1442 1621 1766 1663 1385 1077 827 468 252 100 21 0 7 38 0 202 158 74 38 32 4 18 44 31 54 87 110 110 107 68 63 31 5 4 0 76 199 323 281 384 332
791 1119 1443 1745 1831 1707 1269 1029 903 728 521 380 142 27 8 6 0 6 102 121 70 33 59 63 124 180 180 120 92 34 0 0 0 0 0 0 15 186 234 228 240 346 407
688 991 1288 1596 1811 1667 1318 930 798 654 380 253 91 9 4 0 0 0 0 0 14 48 71 81 102 8 1 0 0 0 0 0 0 0 0 0 0 10 0 0 0 93 48
1047 1001 1236 1446 1578 1553 1160 1004 857 600 417 143 60 40 0 0 0 0 0 0 4 2 6 13 4 0 0 0 0 0 0 0 0 0 0 0 0 0 0 0 0 26 22
876 1137 1130 1310 1316 1258 1327 967 807 591 384 187 86 31 0 0 0 0 0 10 18 10 39 39 0 0 0 0 0 0 0 0 0 0 0 0 0 0 0 11 1 0 0
514 1162 1245 1220 1530 1158 1218 991 749 495 380 282 139 41 14 0 0 5 27 0 0 4 0 0 0 0 0 0 0 0 0 0 0 0 0 0 0 0 0 0 0 0 1
107 347 1164 1320 1496 1266 1178 902 711 467 397 286 135 41 21 0 4 34 0 4 3 0 0 0 0 0 0 0 0 0 0 0 0 0 0 0 0 0 0 0 0 0 0
0 13 194 1081 1220 1304 1275 984 653 472 381 233 133 94 63 18 35 66 14 7 0 0 0 0 0 0 0 0 0 0 0 0 0 0 0 0 0 0 0 0 0 0 0
0 0 0 303 1016 1193 1218 1027 550 432 507 269 216 237 210 72 38 34 16 0 0 0 0 0 0 0 0 0 0 0 0 0 0 0 0 0 0 0 0 0 0 0 0
0 0 0 27 658 943 1108 965 679 690 619 467 308 140 96 99 133 7 3 1 0 0 0 0 0 0 0 0 0 0 0 0 0 0 0 0 0 0 0 0 0 0 0
0 0 0 195 492 608 994 785 856 989 791 401 268 178 232 55 45 3 0 0 0 0 0 0 0 0 0 0 0 0 0 0 0 0 0 0 0 0 0 0 0 0 0
0 0 47 349 385 507 928 874 1002 1055 495 369 265 195 58 40 0 0 0 0 0 0 0 0 0 0 0 0 0 0 0 0 0 0 0 0 0 0 0 0 0 0 0
0 0 241 381 400 687 916 1012 834 875 495 357 273 234 130 33 0 0 0 0 0 0 0 0 0 0 0 0 0 0 0 0 0 0 0 0 0 0 0 0 0 0 0
0 49 296 615 432 758 902 950 611 425 390 360 220 178 64 25 0 0 0 0 0 0 0 0 0 0 0 0 0 0 0 0 0 0 0 0 0 0 0 0 0 0 0
0 46 788 566 626 889 886 1007 541 438 376 212 175 92 20 1 0 0 0 0 0 0 0 0 0 0 0 0 0 0 0 0 0 0 0 0 0 0 0 0 0 0 0
0 0 476 594 790 910 943 833 537 445 109 5 14 36 2 0 0 0 0 0 0 0 0 0 0 0 0 0 0 0 0 0 0 0 0 0 0 0 0 0 0 0 0
0 0 187 695 763 947 1083 794 470 392 77 2 11 0 0 0 0 0 0 0 0 0 0 0 0 0 0 0 0 0 0 0 0 0 0 0 0 0 0 0 0 0 0
0 0 96 586 819 891 922 613 408 337 1 0 1 0 0 0 0 0 0 0 0 0 0 0 0 0 0 0 0 0 0 0 0 0 0 0 0 0 0 0 0 0 0

GFSSE_con_mucape_018.txt.gz
CAPE
123 1174 1963 1711 1201 966 470 106 20 1 0 0 0 35 75 67 43 19 4 0 0 0 0 0 11 70 21 33 61 39 4 0 0 0 0 0 0 0 0 1 5 3 0
291 1208 2318 2141 1597 838 439 120 38 8 0 0 0 4 80 75 76 36 24 0 0 0 0 0 0 8 21 48 34 29 24 0 0 0 0 0 0 0 0 5 10 4 0
394 1100 1358 2202 1838 1239 538 182 56 23 0 0 7 18 55 45 47 31 6 0 0 0 0 0 0 0 2 6 1 0 0 0 0 0 0 0 0 0 0 0 4 0 0
489 1207 1174 2262 1981 1338 702 252 59 30 0 0 69 21 13 22 12 3 0 0 0 0 0 0 0 0 0 0 0 0 0 0 0 0 0 0 0 0 0 6 3 48 15
663 1132 1382 2260 2099 1492 790 282 55 4 0 0 7 11 17 20 0 0 0 0 0 0 0 0 0 0 0 0 0 1 11 0 0 1 1 1 0 0 0 0 18 24 130
624 970 1780 2268 2132 1604 1127 309 77 1 0 0 0 7 11 17 25 26 6 14 0 0 0 0 0 0 2 0 0 0 20 23 3 12 6 3 0 0 0 0 0 0 14
711 1045 1566 2374 2170 1733 1021 432 121 35 0 0 0 5 9 47 51 87 34 51 0 0 0 0 1 3 3 0 2 8 2 4 0 13 15 25 28 0 42 87 81 45 28
829 1171 1248 1848 1936 1766 1277 830 399 120 29 0 0 1 4 28 11 163 114 26 9 0 0 0 3 24 8 21 52 52 48 47 26 50 47 54 14 16 120 272 308 329 266
872 1245 1155 1315 1693 1591 1404 1101 759 302 131 42 1 0 5 22 1 177 191 74 21 24 5 20 40 62 97 150 155 110 39 9 37 34 7 43 17 101 183 278 330 390 434
981 1170 1171 1228 1233 1485 1322 1051 877 686 558 301 122 46 63 8 0 93 142 111 56 27 53 78 165 130 58 19 0 0 0 0 0 0 1 19 21 137 114 61 5 39 187
961 1130 1273 1179 1417 1545 1276 929 814 728 553 280 86 30 5 0 0 0 0 0 11 51 28 44 0 0 0 0 0 0 0 0 0 0 0 0 0 0 0 0 0 9 44
1115 1092 1384 1418 1368 1472 1309 1247 667 361 329 224 172 96 5 0 0 0 0 0 1 0 1 6 1 0 0 0 0 0 0 0 0 0 0 0 0 0 0 20 0 0 0
1046 1317 1340 1498 1653 1683 1409 1276 933 571 628 433 306 159 0 0 0 0 19 41 112 5 1 8 0 0 0 0 0 0 0 0 0 0 0 0 0 0 11 0 0 0 0
799 1296 1463 1518 1823 1765 1564 1370 1004 730 717 625 419 197 27 0 9 14 81 9 0 0 0 0 0 0 0 0 0 0 0 0 0 0 0 0 0 0 0 0 0 0 0
552 966 1436 1614 1668 1774 1763 1459 1257 924 702 656 537 202 74 53 93 104 0 0 1 0 0 0 0 0 0 0 0 0 0 0 0 0 0 0 0 0 0 0 0 0 0
197 382 834 1610 1744 1598 1913 1695 1410 1075 710 754 604 192 215 170 202 1 1 1 1 0 0 0 0 0 0 0 0 0 0 0 0 0 0 0 0 0 0 0 0 0 0
3 1 58 709 1546 1562 1906 1833 1440 1136 792 706 547 353 283 43 9 10 5 4 0 0 0 0 0 0 0 0 0 0 0 0 0 0 0 0 0 0 0 0 0 0 0
0 0 0 0 426 1423 1651 1760 1512 1117 872 859 540 308 138 70 19 39 36 1 0 0 0 0 0 0 0 0 0 0 0 0 0 0 0 0 0 0 0 0 0 0 0
0 0 0 2 36 562 1232 1529 1418 1145 775 581 427 271 181 80 72 27 9 1 0 0 0 0 0 0 0 0 0 0 0 0 0 0 0 0 0 0 0 0 0 0 0
0 0 0 72 345 669 1118 1484 1026 719 760 592 335 243 150 80 69 15 0 0 0 0 0 0 0 0 0 0 0 0 0 0 0 0 0 0 0 0 0 0 0 0 0
0 0 0 262 640 814 1081 832 856 948 865 663 494 418 190 169 32 1 0 0 0 0 0 0 0 0 0 0 0 0 0 0 0 0 0 0 0 0 0 0 0 0 0
0 0 140 526 671 901 439 357 787 1145 827 543 359 369 160 137 9 1 0 0 0 0 0 0 0 0 0 0 0 0 0 0 0 0 0 0 0 0 0 0 0 0 0
0 4 322 626 616 563 333 615 783 835 661 548 296 236 139 101 8 0 0 0 0 0 0 0 0 0 0 0 0 0 0 0 0 0 0 0 0 0 0 0 0 0 0
0 11 420 372 556 322 307 687 779 807 588 447 316 301 207 81 28 0 0 0 0 0 0 0 0 0 0 0 0 0 0 0 0 0 0 0 0 0 0 0 0 0 0
0 38 255 201 317 185 470 770 831 789 591 327 309 216 107 75 0 0 0 0 0 0 0 0 0 0 0 0 0 0 0 0 0 0 0 0 0 0 0 0 0 0 0
0 40 98 253 90 299 703 996 1060 823 411 535 259 32 12 3 0 0 0 0 0 0 0 0 0 0 0 0 0 0 0 0 0 0 0 0 0 0 0 0 0 0 0

GFSSE_con_mucape_021.txt.gz
CAPE
185 1141 1922 1310 920 713 366 75 0 0 0 0 2 81 52 41 20 6 12 0 0 0 0 0 18 72 33 44 70 34 10 1 0 0 0 0 0 0 0 0 1 6 0
516 1397 2237 1839 1280 737 415 39 0 0 0 0 0 28 46 54 29 28 22 0 0 0 0 0 0 6 46 57 48 48 20 2 0 0 0 0 0 0 0 0 9 3 0
870 1554 1527 2018 1794 1130 431 66 25 0 0 0 2 27 77 65 39 32 8 0 0 0 0 0 0 2 1 2 2 0 0 0 0 0 0 0 0 0 0 0 0 5 0
766 1334 1358 2118 1709 1142 504 158 52 1 0 1 30 28 4 17 16 10 0 0 0 0 0 0 0 0 0 0 0 0 0 0 0 0 0 0 0 0 0 0 11 13 39
726 1167 1686 2202 1891 1358 671 190 71 25 0 71 21 6 14 0 0 0 0 0 0 0 0 0 0 0 0 0 0 0 20 1 0 1 6 6 0 3 0 0 0 3 29
728 1248 1698 2166 1984 1545 935 185 59 14 0 11 0 0 0 0 0 0 0 0 0 0 0 0 0 1 0 0 0 0 0 0 0 14 11 15 6 0 8 11 6 0 0
641 1346 1777 2255 1987 1655 930 304 71 18 5 0 0 0 10 34 23 33 23 17 6 0 0 0 2 3 3 0 2 5 4 0 0 22 21 21 32 21 53 88 192 190 114
636 1064 1742 1930 1912 1639 1095 618 211 41 9 17 5 0 9 8 5 127 104 15 11 0 0 0 8 10 13 45 86 68 44 23 5 18 17 15 45 30 99 133 274 320 380
699 985 1395 1902 1605 1370 1192 1016 692 268 71 46 48 6 27 5 123 197 88 43 0 0 0 23 75 91 121 112 76 22 3 1 0 12 0 18 39 80 92 122 66 37 103
804 960 1080 1564 1793 1326 1098 1012 805 629 387 177 89 75 101 6 88 149 247 94 38 14 40 115 64 24 10 0 0 0 0 0 0 0 0 0 0 2 12 3 0 9 91
844 972 983 1090 1459 1234 1259 855 766 667 467 246 85 55 11 0 0 0 20 10 26 27 38 0 0 0 0 0 0 0 0 0 0 0 0 0 0 0 0 5 12 0 11
911 983 1085 1069 1284 1370 1273 1028 601 348 463 151 102 35 13 0 0 0 0 3 5 8 0 0 0 0 0 0 0 0 0 0 0 0 0 0 0 0 27 0 0 11 0
881 983 1168 1264 1260 1296 1136 1334 898 565 530 301 199 147 0 0 0 0 0 0 5 1 1 0 0 0 0 0 0 0 0 0 0 0 0 0 0 11 8 0 0 0 0
692 1000 1139 1362 1496 1466 1516 1236 1064 699 723 531 379 202 0 0 0 0 17 171 5 0 0 0 0 0 0 0 0 0 0 0 0 0 0 0 0 0 0 0 0 0 0
446 743 1204 1334 1707 1790 1740 1444 1241 975 687 634 597 327 16 0 7 23 18 0 0 0 0 0 0 0 0 0 0 0 0 0 0 0 0 0 0 0 0 0 0 0 0
301 422 877 1251 1546 1798 1813 1562 1415 1103 787 802 611 451 65 59 120 53 0 0 0 0 0 0 0 0 0 0 0 0 0 0 0 0 0 0 0 0 0 0 0 0 0
5 92 333 1002 1391 1650 1721 1879 1609 1334 982 820 699 574 184 284 136 2 0 0 0 0 0 0 0 0 0 0 0 0 0 0 0 0 0 0 0 0 0 0 0 0 0
0 0 0 110 849 1586 1648 1772 1515 1258 1092 870 1048 716 414 183 3 0 0 2 1 0 0 0 0 0 0 0 0 0 0 0 0 0 0 0 0 0 0 0 0 0 0
0 0 0 0 73 661 1613 1563 1477 1412 1091 816 888 748 301 105 74 17 13 1 0 0 0 0 0 0 0 0 0 0 0 0 0 0 0 0 0 0 0 0 0 0 0
0 0 0 0 0 57 997 1364 1683 1423 1233 1012 823 463 217 145 48 50 46 1 0 0 0 0 0 0 0 0 0 0 0 0 0 0 0 0 0 0 0 0 0 0 0
0 0 0 0 81 265 749 1605 1525 1171 1097 939 688 500 322 188 119 103 1 0 0 0 0 0 0 0 0 0 0 0 0 0 0 0 0 0 0 0 0 0 0 0 0
0 0 0 0 110 591 1181 1567 1113 1045 885 616 707 555 387 208 154 113 20 0 0 0 0 0 0 0 0 0 0 0 0 0 0 0 0 0 0 0 0 0 0 0 0
0 0 0 37 431 820 1209 814 768 798 442 819 844 573 302 308 129 51 47 0 0 0 0 0 0 0 0 0 0 0 0 0 0 0 0 0 0 0 0 0 0 0 0
0 0 14 165 637 906 925 380 361 76 513 975 811 520 374 358 245 104 55 0 0 0 0 0 0 0 0 0 0 0 0 0 0 0 0 0 0 0 0 0 0 0 0
0 0 33 254 663 806 624 136 33 67 646 856 634 442 390 349 181 117 79 0 0 0 0 0 0 0 0 0 0 0 0 0 0 0 0 0 0 0 0 0 0 0 0
0 1 124 456 459 630 255 7 4 370 545 669 612 439 362 432 114 81 0 0 0 0 0 0 0 0 0 0 0 0 0 0 0 0 0 0 0 0 0 0 0 0 0

GFSSE_con_mucape_024.txt.gz
CAPE
936 1181 1652 1039 756 491 225 35 0 0 0 30 143 107 49 10 12 18 0 0 0 0 0 11 61 76 69 99 82 47 30 2 0 0 0 0 0 0 0 2 3 4 7
999 1251 1648 1426 970 561 219 38 0 0 0 0 14 75 58 40 37 29 10 0 0 0 0 2 0 23 50 49 51 36 16 0 0 0 0 0 0 0 0 0 0 4 0
1045 1442 1364 1683 1334 987 185 57 5 0 0 0 1 69 100 54 38 14 0 0 0 0 0 1 0 2 6 1 2 2 0 0 0 0 1 0 0 0 0 0 0 0 1
1384 1085 1190 1876 1496 940 261 82 13 0 0 2 20 25 31 27 12 0 0 0 0 0 0 0 0 0 0 0 0 0 0 0 0 0 0 0 0 0 0 0 0 13 41
1403 1010 1523 1795 1556 1048 401 151 28 0 23 80 58 21 0 0 0 0 0 0 0 0 0 0 0 0 0 0 0 0 1 0 3 10 7 0 0 1 0 0 0 0 0
1089 1473 1727 1812 1628 1261 732 178 45 0 8 54 80 23 0 0 0 0 0 2 0 0 0 1 4 1 0 0 0 0 0 0 0 1 6 1 7 40 32 13 38 38 5
1397 1513 1646 1975 1801 1371 701 315 52 4 2 26 0 0 9 13 0 14 45 7 0 0 0 1 4 9 0 0 1 0 0 1 0 8 9 13 27 63 60 37 190 233 255
1650 1592 1678 1809 1736 1385 841 548 218 40 20 30 21 0 44 0 34 111 69 0 0 0 0 1 6 1 6 54 54 40 22 10 0 4 11 11 77 57 57 66 76 58 104
1187 1682 1558 1474 1397 1157 889 660 447 214 107 107 95 62 87 69 404 235 126 32 0 0 0 34 72 72 75 37 4 0 0 0 0 0 0 0 4 4 20 10 0 26 145
769 1390 1669 1526 1219 922 740 718 633 458 203 214 122 121 41 14 308 411 211 124 12 13 44 44 10 15 3 0 0 0 0 0 0 0 0 0 0 0 0 0 50 21 42
798 827 1348 1578 1340 1022 786 652 645 536 291 145 50 60 9 0 39 77 42 20 62 20 13 0 0 0 0 0 0 0 0 0 0 0 0 0 0 0 29 6 12 20 3
738 813 901 1581 1499 1236 985 600 458 368 169 26 5 3 0 0 0 5 2 26 27 15 0 0 0 0 0 0 0 0 0 0 0 0 0 0 0 18 12 10 6 0 1
694 760 825 972 1263 1181 1088 725 435 281 330 103 78 29 0 0 0 0 0 0 0 0 0 0 0 0 0 0 0 0 0 0 0 0 0 0 1 20 1 9 0 0 3
726 765 876 916 1118 1274 1191 1019 755 428 476 330 210 171 7 0 0 0 0 27 14 0 0 0 0 0 0 0 0 0 0 0 0 0 0 0 0 0 2 0 0 0 0
511 809 906 1103 1209 1240 1250 1199 1179 612 559 392 352 243 59 0 0 0 59 1 0 0 0 0 0 0 0 0 0 0 0 0 0 0 0 0 0 0 0 0 0 0 0
70 511 981 1104 1374 1491 1433 1270 1479 953 774 587 456 459 155 0 0 3 47 18 0 0 0 0 0 0 0 0 0 0 0 0 0 0 0 0 0 0 0 0 0 0 0
0 184 664 1145 1367 1581 1501 1311 1256 1079 898 807 573 509 582 32 70 39 63 0 0 0 0 0 0 0 0 0 0 0 0 0 0 0 0 0 0 0 0 0 0 0 0
0 0 222 842 1143 1565 1539 1492 1222 1135 964 839 650 535 715 178 145 73 77 0 0 0 0 0 0 0 0 0 0 0 0 0 0 0 0 0 0 0 0 0 0 0 0
0 0 0 342 1078 1253 1571 1456 1461 1305 1100 818 687 568 532 324 321 132 0 0 0 0 0 0 0 0 0 0 0 0 0 0 0 0 0 0 0 0 0 0 0 0 0
0 0 0 0 247 993 1609 1381 1543 1089 1158 904 944 637 531 395 267 97 3 7 1 0 0 0 0 0 0 0 0 0 0 0 0 0 0 0 0 0 0 0 0 0 0
0 0 0 0 0 0 833 1448 1444 1076 1045 1265 949 771 640 483 183 119 47 29 1 0 0 0 0 0 0 0 0 0 0 0 0 0 0 0 0 0 0 0 0 0 0
0 0 0 0 0 0 0 1201 1431 1283 1184 1027 857 793 916 440 204 150 142 21 0 0 0 0 0 0 0 0 0 0 0 0 0 0 0 0 0 0 0 0 0 0 0
0 0 0 0 0 0 176 1268 1478 1288 1163 924 874 987 750 438 240 211 240 92 1 0 0 0 0 0 0 0 0 0 0 0 0 0 0 0 0 0 0 0 0 0 0
0 0 0 0 0 17 1077 1313 1435 1171 1098 822 690 870 575 432 304 249 158 31 31 0 0 0 0 0 0 0 0 0 0 0 0 0 0 0 0 0 0 0 0 0 0
0 0 0 0 0 474 1119 1167 1228 873 797 570 636 431 811 492 366 233 190 165 126 0 0 0 0 0 0 0 0 0 0 0 0 0 0 0 0 0 0 0 0 0 0
0 0 0 0 258 690 1048 1067 953 585 269 433 423 396 841 719 545 238 221 110 134 0 0 0 0 0 0 0 0 0 0 0 0 0 0 0 0 0 0 0 0 0 0

GFSSE_con_mucape_027.txt.gz
CAPE
753 917 1515 966 594 376 228 123 78 175 407 352 272 91 7 6 4 0 0 0 0 0 9 34 35 68 99 90 77 47 22 0 0 0 0 0 0 0 0 0 9 9 4
823 866 1408 1305 721 421 123 45 6 0 19 84 110 77 7 23 1 0 0 0 0 0 6 8 33 58 59 48 36 28 1 0 0 0 0 0 0 0 0 0 0 4 0
998 985 1068 1382 1153 702 146 61 18 0 0 1 52 64 50 48 7 0 0 0 0 0 6 3 2 8 1 9 0 0 0 0 0 0 0 0 0 0 0 0 0 0 5
1133 1011 1052 1459 1242 603 183 76 4 0 0 3 206 264 58 17 0 0 1 0 0 0 0 0 0 0 0 0 0 0 0 0 0 5 0 0 0 0 0 0 0 2 19
1159 1045 1325 1559 1219 683 256 71 0 39 33 196 82 54 16 12 1 0 2 0 0 0 2 1 0 0 0 0 0 0 0 0 4 3 0 4 6 15 8 0 0 0 0
934 1141 1504 1571 1298 954 676 140 8 106 173 32 89 51 33 1 0 0 0 0 0 0 1 3 2 0 0 0 0 0 0 0 3 9 4 37 20 51 19 4 76 82 51
1068 1334 1360 1640 1464 1106 769 511 68 94 105 42 12 1 0 10 8 4 2 0 0 0 0 1 6 0 0 0 0 0 0 7 0 7 11 21 36 63 36 76 86 94 139
1306 1303 1349 1533 1459 1102 740 429 208 126 177 98 65 62 63 13 0 31 8 0 0 0 0 1 0 0 13 33 25 0 0 3 2 0 6 7 53 20 1 21 0 25 149
1472 1364 1392 1308 1118 893 675 428 310 225 293 299 188 224 59 293 479 317 53 0 0 0 0 26 25 42 33 1 0 0 0 0 0 0 0 0 1 0 0 2 31 98 45
1447 1431 1382 1238 995 670 486 486 373 283 312 329 304 329 46 279 441 439 289 144 0 1 90 41 28 16 0 0 0 0 0 0 0 0 0 0 0 0 3 19 22 35 17
1598 1459 1269 1198 953 639 448 338 423 351 271 283 129 90 6 108 213 99 50 86 126 73 48 1 2 0 0 0 0 0 0 0 0 0 0 0 0 35 16 35 16 15 24
1371 1434 1342 1247 1009 793 627 433 308 180 56 35 20 62 5 0 117 98 35 44 150 125 1 0 0 0 0 0 0 0 0 0 0 0 0 0 1 21 36 18 3 3 20
682 1257 1536 1332 1120 982 774 439 346 259 64 0 0 5 1 0 4 68 2 7 0 0 0 0 0 0 0 0 0 0 0 0 0 0 0 2 20 14 22 3 0 3 3
651 677 1377 1535 1251 1172 1004 684 442 276 193 78 98 10 0 0 0 0 0 0 0 0 0 0 0 0 0 0 0 0 0 0 0 0 0 0 0 6 3 0 0 0 0
565 661 736 1446 1486 1320 1175 857 719 535 330 309 275 247 86 0 0 0 1 40 1 0 0 0 0 0 0 0 0 0 0 0 0 0 0 0 0 0 0 0 0 0 0
254 672 790 800 1175 1208 1155 1036 825 672 514 446 429 353 295 63 0 0 52 2 0 0 0 0 0 0 0 0 0 0 0 0 0 0 0 0 0 0 0 0 0 0 0
0 460 813 958 1018 1296 1239 1159 857 968 723 644 587 613 331 125 3 4 18 46 13 0 0 0 0 0 0 0 0 0 0 0 0 0 0 0 0 0 0 0 0 0 0
0 0 819 1024 1264 1401 1439 1364 951 892 729 899 530 481 499 350 96 62 54 79 7 0 0 0 0 0 0 0 0 0 0 0 0 0 0 0 0 0 0 0 0 0 0
0 0 206 1013 1198 1479 1596 1702 1346 1125 839 901 712 519 505 347 169 100 124 115 26 0 0 0 0 0 0 0 0 0 0 0 0 0 0 0 0 0 0 0 0 0 0
0 0 0 371 1180 1510 1619 1557 1552 1238 1041 1017 898 740 473 377 192 161 221 109 33 0 0 0 0 0 0 0 0 0 0 0 0 0 0 0 0 0 0 0 0 0 0
0 0 0 0 848 1325 1610 1574 1419 1357 1320 972 916 773 622 480 281 269 183 66 29 28 0 0 0 0 0 0 0 0 0 0 0 0 0 0 0 0 0 0 0 0 0
0 0 0 0 113 1048 1347 1542 1195 1284 1279 993 827 731 700 687 420 374 130 79 25 27 0 0 0 0 0 0 0 0 0 0 0 0 0 0 0 0 0 0 0 0 0
0 0 0 0 0 553 1252 1329 1298 1290 1107 995 864 798 606 704 695 581 138 94 15 34 0 0 0 0 0 0 0 0 0 0 0 0 0 0 0 0 0 0 0 0 0
0 0 0 0 0 0 21 1274 1235 1231 1125 1069 987 820 596 680 708 738 155 76 26 4 7 0 0 0 0 0 0 0 0 0 0 0 0 0 0 0 0 0 0 0 0
0 0 0 0 0 0 35 326 1147 1129 1025 992 850 714 570 509 1012 734 204 110 27 14 18 2 0 0 0 0 0 0 0 0 0 0 0 0 0 0 0 0 0 0 0
0 0 0 0 0 32 116 71 619 974 1065 732 726 597 512 403 889 714 200 145 40 49 36 20 0 0 0 0 0 0 0 0 0 0 0 0 0 0 0 0 0 0 0

GFSSE_con_mucape_030.txt.gz
CAPE
564 931 1493 908 789 726 663 756 789 785 746 516 204 10 8 4 0 0 0 0 0 3 41 21 8 25 86 80 81 43 15 0 0 0 0 0 0 0 0 1 0 1 4
674 916 1378 1146 672 474 367 271 415 590 658 466 184 17 15 7 0 0 0 0 0 5 19 51 92 135 115 77 38 23 1 0 0 0 0 0 0 0 0 0 0 0 0
772 813 853 1149 984 483 107 87 57 73 201 214 132 19 22 2 0 0 0 0 2 5 10 7 6 5 12 2 0 0 0 0 0 0 0 0 0 0 0 0 0 4 4
720 846 772 1221 872 295 135 95 53 25 42 165 179 104 40 1 0 0 0 0 1 4 2 0 0 0 0 0 0 0 0 0 0 6 0 0 0 1 0 0 0 0 12
850 859 861 1310 911 417 185 59 21 30 44 222 470 151 2 0 1 1 0 0 0 1 0 0 0 0 0 0 0 0 0 0 6 0 0 0 5 14 3 0 0 0 0
848 908 1202 1367 1070 745 418 112 133 95 194 131 357 206 39 3 4 3 0 0 0 1 2 0 0 0 0 0 0 0 0 4 2 8 3 12 23 36 11 4 99 96 80
927 1087 1184 1445 1166 812 319 267 417 277 153 43 57 24 9 4 6 2 0 0 0 1 4 3 0 0 0 0 0 0 3 11 0 0 5 26 33 34 22 52 18 28 83
1010 1183 1157 1287 1261 1051 694 340 465 659 357 228 150 99 35 32 31 28 15 0 0 0 5 9 2 1 1 0 0 0 0 0 0 0 3 8 30 11 3 1 3 130 112
1140 1161 1138 1108 984 879 718 387 394 655 361 316 326 382 310 230 239 139 70 16 1 0 13 4 3 56 16 0 0 0 0 0 0 0 0 0 2 0 2 8 63 16 15
1270 1187 1163 1124 869 569 393 387 312 542 421 363 487 354 134 314 530 489 302 220 18 41 158 155 118 31 0 0 0 0 0 0 0 0 0 0 0 2 38 41 38 32 23
1360 1315 1171 1032 815 531 332 269 316 346 376 361 340 58 96 299 375 254 103 190 191 214 191 41 33 0 0 0 0 0 0 0 0 0 0 0 58 36 59 30 22 34 22
1518 1583 1250 1040 825 561 396 278 202 145 153 146 122 54 3 270 243 156 120 89 321 330 111 1 0 0 0 0 0 0 0 0 0 0 0 0 25 44 27 18 16 25 16
1539 1568 1387 1062 909 702 596 309 218 107 85 95 71 76 13 21 205 149 118 38 64 55 0 0 0 0 0 0 0 0 0 0 0 0 0 55 8 33 13 7 4 3 5
1573 1465 1336 1179 1074 868 767 591 341 131 30 19 36 35 23 0 133 194 95 3 0 0 0 0 0 0 0 0 0 0 0 0 0 0 0 0 4 6 3 0 0 0 0
835 1338 1476 1328 1263 1079 975 754 496 305 79 5 0 0 2 0 6 97 0 0 1 0 0 0 0 0 0 0 0 0 0 0 0 0 0 0 0 0 0 0 0 0 0
468 763 1404 1488 1340 1203 1149 937 670 589 436 115 80 144 18 21 14 47 0 23 14 0 0 0 0 0 0 0 0 0 0 0 0 0 0 0 0 0 0 0 0 0 0
0 280 746 1507 1573 1443 1286 1151 898 866 643 369 318 293 280 278 157 14 1 92 8 24 0 0 0 0 0 0 0 0 0 0 0 0 0 0 0 0 0 0 0 0 0
0 0 169 762 1319 1624 1469 1320 1067 1017 748 650 531 460 430 315 190 0 18 101 41 83 0 0 0 0 0 0 0 0 0 0 0 0 0 0 0 0 0 0 0 0 0
0 0 0 384 813 1347 1431 1346 1219 1113 921 752 799 596 578 359 286 175 51 55 78 95 22 7 0 0 0 0 0 0 0 0 0 0 0 0 0 0 0 0 0 0 0
0 0 0 96 741 1021 1163 1244 1289 1164 1038 812 830 729 473 399 369 181 58 91 122 134 30 5 0 0 0 0 0 0 0 0 0 0 0 0 0 0 0 0 0 0 0
0 0 0 0 455 1045 1169 1104 1156 1171 1119 991 907 987 583 471 402 360 93 103 138 80 4 0 0 0 0 0 0 0 0 0 0 0 0 0 0 0 0 0 0 0 0
0 0 0 0 0 748 1189 1166 1034 1260 1228 1171 1050 1018 844 540 471 455 377 174 191 16 2 3 0 0 0 0 0 0 0 0 0 0 0 0 0 0 0 0 0 0 0
0 0 0 0 0 214 1156 1305 1118 995 895 1088 1103 1158 879 649 584 616 463 375 303 124 5 3 1 0 0 0 0 0 0 0 0 0 0 0 0 0 0 0 0 0 0
0 0 0 0 0 0 755 1193 1101 773 738 901 1175 1029 741 606 541 447 384 387 397 80 12 8 0 0 0 0 0 0 0 0 0 0 0 0 0 0 0 0 0 0 0
0 0 0 0 0 0 6 813 1011 738 514 638 1028 918 772 593 462 438 469 524 503 141 2 3 0 10 0 0 0 0 0 0 0 0 0 0 0 0 0 0 0 0 0
0 0 0 0 0 0 0 216 684 658 711 729 836 758 670 533 519 499 468 722 496 237 14 7 11 11 8 0 0 0 0 0 0 0 0 0 0 0 0 0 0 0 0

GFSSE_con_mucape_033.txt.gz
CAPE
291 843 1620 1152 877 561 999 1048 984 1081 736 245 29 8 2 0 0 0 0 0 0 2 6 2 15 66 66 68 54 38 0 0 0 0 0 0 0 0 0 0 0 0 1
553 862 1287 1010 730 645 1135 1065 1314 1204 980 379 63 12 8 0 0 0 0 0 3 10 31 101 41 62 90 75 52 20 0 0 0 0 0 0 0 0 0 0 0 0 0
694 747 755 1160 1029 843 714 812 809 736 645 336 104 47 12 1 0 0 0 1 4 14 25 31 35 41 27 8 0 0 0 0 0 0 0 0 0 0 0 0 0 12 1
708 698 627 1180 832 458 236 189 389 486 479 329 99 22 9 2 0 0 0 2 4 15 5 5 5 1 0 0 0 0 0 0 0 0 0 0 0 4 0 0 0 0 7
672 649 652 1147 787 261 165 120 94 127 206 297 321 115 4 0 0 0 0 1 2 2 0 0 0 0 0 0 0 0 0 0 0 0 0 0 2 14 3 0 0 0 0
760 668 977 1110 924 641 293 68 52 60 167 277 451 101 0 0 1 0 0 0 0 0 0 0 0 0 0 0 0 0 3 7 0 0 0 0 15 41 25 96 83 84 102
795 747 948 1211 826 451 175 265 289 204 431 652 369 69 43 26 24 0 0 0 0 1 1 1 0 0 0 0 0 6 0 0 0 0 0 4 29 19 23 7 22 124 153
820 913 1004 1084 992 727 335 469 577 608 285 384 402 207 81 50 57 44 0 0 0 2 7 6 2 2 15 13 0 0 0 0 0 0 0 1 16 6 1 0 66 41 46
919 961 1064 917 820 786 493 455 730 602 373 310 305 237 222 237 263 130 47 12 0 11 48 41 42 66 19 0 0 0 0 0 0 0 0 0 0 0 2 109 33 27 7
1031 999 1022 958 834 662 497 346 550 511 438 389 339 430 289 221 318 425 300 168 23 45 98 130 139 74 0 0 0 0 0 0 0 0 0 0 0 28 67 53 46 25 20
1066 1054 1017 914 819 597 437 224 325 478 363 377 378 240 127 187 266 324 169 217 187 210 295 202 118 7 0 0 0 0 0 0 0 0 0 12 46 95 42 20 38 23 4
1959 1136 1089 1349 771 535 313 199 170 344 287 215 306 150 91 312 459 343 163 186 348 424 307 72 3 0 0 0 0 0 0 0 0 0 0 68 57 39 19 32 27 18 6
1367 1957 1756 1307 892 672 375 189 142 136 263 175 171 109 25 287 360 280 184 152 173 245 4 0 0 0 0 0 0 0 0 0 0 0 18 41 35 26 21 9 9 7 5
1803 2024 2038 1941 1133 759 624 406 183 105 101 123 98 104 21 96 236 206 189 124 50 65 0 0 0 0 0 0 0 0 0 0 0 0 0 24 11 6 2 0 0 0 0
1523 1681 1770 1987 1349 886 794 617 430 219 72 64 80 87 72 5 101 161 189 84 5 0 0 0 0 0 0 0 0 0 0 0 0 0 0 0 0 0 0 0 0 0 0
1244 1565 1611 1755 1341 1025 964 814 694 476 264 76 27 65 68 42 5 121 165 61 4 2 0 0 0 0 0 0 0 0 0 0 0 0 0 0 0 0 0 0 0 0 0
413 625 1498 1524 1311 1199 1160 1022 905 724 367 197 113 17 0 1 0 13 96 28 8 20 0 0 0 0 0 0 0 0 0 0 0 0 0 0 0 0 0 0 0 0 0
6 130 168 1385 1369 1381 1329 1195 1114 911 637 653 509 121 67 73 159 148 40 9 75 17 47 9 0 0 0 0 0 0 0 0 0 0 0 0 0 0 0 0 0 0 0
0 0 0 259 1393 1371 1408 1370 1227 1223 875 781 691 357 297 289 279 185 46 2 97 31 74 29 10 4 0 0 0 0 0 0 0 0 0 0 0 0 0 0 0 0 0
0 0 0 7 509 1290 1317 1321 1205 1248 1251 974 804 673 569 494 389 271 159 122 96 35 139 170 22 0 0 0 0 0 0 0 0 0 0 0 0 0 0 0 0 0 0
0 0 0 0 88 599 1071 1161 1090 1033 1162 1224 941 803 848 739 576 279 222 111 46 146 245 149 1 0 0 0 0 0 0 0 0 0 0 0 0 0 0 0 0 0 0
0 0 0 0 0 335 749 998 931 858 883 1197 1119 889 917 910 591 331 285 251 112 71 82 45 0 0 0 0 0 0 0 0 0 0 0 0 0 0 0 0 0 0 0
0 0 0 0 0 21 674 895 912 813 769 874 1020 1024 930 956 855 408 405 267 186 185 164 103 0 0 0 0 0 0 0 0 0 0 0 0 0 0 0 0 0 0 0
0 0 0 0 0 0 92 912 861 756 657 567 647 787 981 926 848 566 473 427 252 301 301 185 9 0 0 0 0 0 0 0 0 0 0 0 0 0 0 0 0 0 0
0 0 0 0 0 0 0 490 883 726 652 375 569 676 896 896 715 563 559 455 255 338 382 121 176 0 0 0 1 0 0 0 0 0 0 0 0 0 0 0 0 0 0
0 0 0 0 0 0 0 21 701 676 628 775 613 608 657 707 550 409 439 476 287 293 380 237 71 13 0 0 0 7 0 0 0 0 0 0 0 0 0 0 0 0 0

GFSSE_con_mucape_036.txt.gz
CAPE
69 873 1860 1476 1290 1240 1391 1359 1247 1023 626 309 105 28 1 0 0 0 0 0 0 1 4 4 55 74 73 64 51 1 0 0 0 0 0 0 0 2 1 0 0 0 0
204 937 1734 1517 1234 1066 1282 1396 1503 1244 799 161 150 30 0 0 0 0 0 1 4 31 49 24 51 78 76 68 39 0 0 0 0 0 0 0 0 0 0 0 0 0 6
556 706 863 1501 1245 1232 1673 1210 1140 932 607 349 85 42 4 0 0 0 0 2 6 44 59 105 81 60 23 0 0 0 0 0 0 0 0 0 0 0 0 0 0 25 0
646 575 585 1388 1333 1273 1169 1105 1014 892 595 247 139 13 8 0 0 0 1 3 13 33 15 2 1 0 0 0 0 0 0 0 0 0 0 0 0 5 0 0 0 0 3
631 537 584 1349 1239 773 613 659 752 716 633 307 169 59 13 0 0 0 2 4 8 4 0 0 0 0 0 0 2 1 0 0 0 0 0 0 9 16 20 65 18 0 0
625 532 890 1190 1005 656 390 174 199 310 367 277 273 85 0 0 0 0 0 2 1 1 0 0 0 0 0 0 0 1 0 0 0 0 0 0 32 57 67 39 72 127 155
627 562 836 1118 739 453 299 164 141 159 296 357 432 97 34 5 0 0 0 0 0 0 0 0 0 1 4 7 4 0 0 0 0 0 0 4 11 19 0 42 129 126 154
616 715 762 933 847 669 328 300 392 345 488 643 556 157 92 68 46 4 0 0 1 7 9 11 22 39 44 8 0 0 0 0 0 0 1 0 18 4 1 64 49 12 13
693 774 787 762 640 626 412 647 594 518 633 825 572 428 278 247 192 75 24 0 12 31 75 48 80 97 14 0 0 0 0 0 0 0 0 0 1 3 92 61 31 8 8
807 802 827 747 602 439 247 516 632 553 412 473 463 331 240 225 252 345 205 102 27 75 125 113 179 50 0 0 0 0 0 0 0 0 0 0 3 77 63 51 31 11 0
785 767 845 772 655 494 286 183 406 437 331 290 228 262 211 178 190 248 152 172 163 190 277 282 169 0 0 0 0 0 0 0 0 0 0 81 84 44 23 34 25 4 0
919 943 827 802 659 556 417 182 194 290 213 206 247 242 183 124 170 226 215 189 267 332 263 171 33 0 0 0 0 0 0 0 0 0 0 91 48 22 18 27 13 5 2
1201 1314 1233 885 693 636 418 206 114 358 215 181 265 228 129 178 326 313 247 184 142 221 65 1 0 0 0 0 0 0 0 0 0 0 9 50 24 9 0 11 2 1 0
1411 1602 1739 1597 1428 821 631 441 129 137 328 200 177 222 90 171 355 355 234 170 88 119 4 0 0 0 0 0 0 0 0 0 0 0 0 18 11 3 0 0 0 0 0
1623 1985 1520 1880 1928 1321 822 645 417 187 122 251 178 138 109 71 223 242 182 155 54 56 0 0 0 0 0 0 0 0 0 0 0 0 0 0 0 0 0 0 0 0 0
1218 1313 1609 1921 2133 1986 1053 800 668 478 261 139 135 112 85 41 59 166 150 144 67 15 2 0 0 0 0 0 0 0 0 0 0 0 0 0 0 0 0 0 0 0 0
434 1181 1238 1943 1899 1913 1701 966 871 756 567 415 236 45 57 54 30 41 109 129 60 5 0 0 0 0 0 0 0 0 0 0 0 0 0 0 0 0 0 0 0 0 0
0 225 1007 1293 1466 1721 1685 1086 1044 994 831 726 457 144 52 37 27 15 48 95 39 4 11 0 1 0 0 0 0 0 0 0 0 0 0 0 0 0 0 0 0 0 0
0 0 98 593 1310 1346 1708 1213 1155 1075 1003 915 722 458 475 132 13 0 35 68 49 1 30 4 20 4 1 0 0 0 0 0 0 0 0 0 0 0 0 0 0 0 0
0 0 0 0 785 1230 1196 1184 1104 1052 1099 1099 1011 717 669 286 96 98 173 112 23 11 51 21 6 29 0 0 0 0 0 0 0 0 0 0 0 0 0 0 0 0 0
0 0 0 0 0 846 1095 1463 1507 989 971 1139 1247 957 795 608 372 270 295 127 60 33 55 15 16 65 0 0 0 0 0 0 0 0 0 0 0 0 0 0 0 0 0
0 0 0 0 0 17 821 945 844 734 748 907 1051 1062 1017 837 618 447 367 183 91 34 48 19 6 24 0 0 0 0 0 0 0 0 0 0 0 0 0 0 0 0 0
0 0 0 0 0 0 80 681 782 843 700 818 926 964 1083 1013 863 721 612 432 157 94 61 32 20 47 0 0 0 0 0 0 0 0 0 0 0 0 0 0 0 0 0
0 0 0 0 0 0 0 369 446 503 557 715 886 869 896 1148 974 839 781 602 336 224 136 107 57 57 8 0 0 0 0 0 0 0 0 0 0 0 0 0 0 0 0
0 0 0 0 0 0 0 203 442 431 452 495 613 809 742 937 989 772 687 574 395 354 270 205 198 145 17 21 0 0 0 0 0 0 0 0 0 0 0 0 0 0 0
0 0 0 0 0 0 0 0 407 433 399 495 645 672 675 701 798 703 651 676 469 341 380 253 221 273 115 38 34 6 0 0 0 0 0 0 0 0 0 0 0 0 0

GFSSE_con_mucape_039.txt.gz
CAPE
116 1153 2178 2027 1590 1521 1654 1497 1654 1413 979 548 226 8 0 0 0 0 1 0 0 0 8 16 76 81 58 42 4 0 2 0 0 0 0 0 0 1 0 0 0 0 5
213 1293 1914 1849 1773 1674 1844 1832 1632 1305 866 372 113 7 4 0 0 0 1 0 2 26 1 43 74 65 68 10 0 0 0 0 0 0 0 0 0 0 0 0 0 0 8
578 1064 1146 1795 1556 1889 1857 1583 1414 1004 692 160 102 31 3 0 0 0 1 0 21 81 53 76 97 69 10 0 0 0 0 0 0 0 0 0 0 0 0 0 10 1 0
868 837 466 1315 1203 1818 1812 1483 1309 847 446 410 135 11 1 0 0 0 1 0 40 51 35 19 12 1 0 0 0 2 0 0 0 0 0 0 4 2 0 0 0 0 0
730 553 450 1125 1140 1708 1378 1262 1250 984 512 314 171 33 2 0 0 2 4 9 13 3 3 0 0 0 1 0 3 1 0 0 0 0 0 0 16 34 60 80 37 20 0
634 552 840 1248 1372 1314 1167 947 887 951 630 318 304 54 0 0 1 3 4 5 0 0 0 0 0 0 0 1 4 1 0 0 0 0 0 15 37 45 12 106 157 147 197
620 647 641 1257 1016 625 446 446 601 559 650 286 254 70 0 0 2 1 2 2 1 0 0 0 3 8 10 9 4 0 0 0 0 0 1 19 25 16 4 143 48 43 161
651 726 507 864 832 685 548 408 428 563 600 659 525 131 50 13 1 0 1 2 9 3 11 17 46 61 30 0 0 0 0 0 0 1 1 1 22 0 54 64 12 7 12
686 756 692 606 557 616 399 398 401 469 537 857 594 348 246 209 75 0 0 3 29 52 56 84 133 48 0 0 0 0 0 0 0 0 0 0 0 58 107 37 13 6 7
798 779 757 683 564 369 199 541 471 463 668 865 495 326 194 163 206 174 88 33 43 114 152 155 153 0 0 0 0 0 0 0 0 0 0 0 73 87 50 29 14 5 1
972 790 784 709 616 378 229 364 433 396 288 307 269 208 152 185 185 207 70 94 135 173 197 272 115 0 0 0 0 0 0 0 0 0 0 187 39 27 25 15 9 3 0
1207 1143 732 754 664 478 212 219 401 388 255 197 210 228 204 211 218 221 156 135 205 245 275 218 4 0 0 0 0 0 0 0 0 0 0 105 30 29 17 1 9 1 1
876 1073 759 1088 644 585 420 205 190 359 240 225 205 217 186 160 187 238 309 223 185 154 40 42 0 0 0 0 0 0 0 0 0 0 17 36 14 5 0 0 3 0 0
1330 871 1170 899 896 631 521 328 207 271 247 200 220 186 141 151 216 306 280 240 177 132 12 0 0 0 0 0 0 0 0 0 0 0 10 10 0 1 0 0 0 0 0
1430 1456 1499 1473 1527 720 509 464 464 279 250 196 170 158 116 118 206 229 217 161 121 43 5 0 0 0 0 0 0 0 0 0 0 0 1 0 0 0 0 0 0 0 0
956 993 957 1537 1608 1387 1377 776 620 544 305 210 179 131 115 58 137 162 192 118 85 12 0 0 0 0 0 0 0 0 0 0 0 0 0 0 0 0 0 0 0 0 0
532 1031 1092 922 1335 1446 1092 1083 1067 700 607 451 263 127 84 41 39 105 104 98 87 33 0 0 0 0 0 0 0 0 0 0 0 0 0 0 0 0 0 0 0 0 0
0 186 1041 1132 1037 1226 1502 1001 1434 1079 802 738 617 442 322 97 23 18 54 60 75 52 0 0 0 0 0 0 0 0 0 0 0 0 0 0 0 0 0 0 0 0 0
0 0 0 952 1202 1078 1080 1121 1068 1250 913 881 893 772 619 267 80 60 5 23 61 56 0 0 0 0 0 0 0 0 0 0 0 0 0 0 0 0 0 0 0 0 0
0 0 0 1 813 1370 1305 936 917 1312 914 896 993 968 831 611 279 159 51 0 23 53 7 0 0 2 0 0 0 0 0 0 0 0 0 0 0 0 0 0 0 0 0
0 0 0 0 0 644 904 1168 1189 825 1278 800 1016 1005 936 845 581 416 129 40 49 95 31 0 0 0 2 2 0 0 0 0 0 0 0 0 0 0 0 0 0 0 0
0 0 0 0 0 0 427 716 710 623 915 934 566 815 959 1018 843 574 309 134 130 146 37 16 4 0 2 2 0 0 0 0 0 0 0 0 0 0 0 0 0 0 0
0 0 0 0 0 0 0 598 521 479 445 426 579 696 759 962 989 750 557 310 225 240 113 45 22 13 0 1 0 0 0 0 0 0 0 0 0 0 0 0 0 0 0
0 0 0 0 0 0 0 198 341 269 270 336 341 549 567 783 934 830 725 607 427 367 155 109 47 30 12 24 0 1 0 0 0 0 0 0 0 0 0 0 0 0 0
0 0 0 0 0 0 0 0 301 306 391 478 380 405 533 478 713 832 689 688 645 495 324 211 113 66 47 28 6 0 4 1 0 0 0 0 0 0 0 0 0 0 0
0 0 0 0 0 0 0 0 0 193 344 231 346 381 396 492 626 732 688 706 732 632 511 315 173 164 158 126 118 32 4 4 10 4 1 0 0 0 0 0 0 0 0

GFSSE_con_mucape_042.txt.gz
CAPE
730 1092 2440 1941 1623 1780 1606 1867 1857 1525 1097 663 337 113 16 4 4 3 0 0 0 0 5 52 93 66 57 17 0 0 0 0 0 0 0 0 0 0 0 0 0 3 0
827 1284 2256 2382 2080 1964 2066 1929 1882 1566 1086 511 138 12 4 0 0 1 0 2 11 0 4 63 67 70 17 0 0 0 0 0 0 0 0 0 0 0 0 0 2 0 2
957 1261 1245 2278 2227 2312 2222 1689 1430 929 639 399 40 16 3 0 0 1 0 26 87 24 15 68 77 35 0 0 0 0 0 0 0 0 0 0 0 0 0 0 0 0 0
957 1087 930 1728 2175 2259 1877 1399 1154 867 411 272 41 9 0 0 0 0 0 32 87 117 65 24 10 0 0 0 0 0 0 0 0 0 7 15 9 0 0 0 0 0 0
913 734 673 1269 2009 2052 1845 1538 1089 904 510 266 32 0 0 0 0 1 1 13 13 10 10 10 1 0 0 1 1 0 0 0 0 0 13 31 33 32 61 85 50 0 0
872 643 532 902 1507 1970 1849 1665 1462 825 567 195 146 0 0 0 1 2 5 3 0 1 0 0 0 0 0 2 4 0 0 0 0 0 19 12 27 0 94 152 224 232 160
684 563 457 1053 1566 1412 1309 1126 1216 1020 741 182 110 5 0 0 1 2 0 0 0 0 0 0 1 2 2 4 0 0 0 0 3 3 16 22 23 0 119 60 133 110 192
660 546 466 843 1058 820 672 734 819 856 735 399 311 45 0 0 2 2 1 1 1 1 3 16 41 39 5 0 0 0 0 0 4 16 14 24 0 14 74 19 5 15 31
755 597 549 552 552 626 600 541 558 737 807 833 526 295 181 92 11 0 1 30 28 33 39 67 77 0 0 0 0 0 0 0 7 3 0 4 1 114 73 26 7 12 5
871 620 444 453 450 225 200 343 357 440 502 856 431 283 191 149 115 31 56 56 77 164 139 211 49 0 0 0 0 0 0 0 0 0 0 3 90 110 44 21 10 6 3
839 727 522 425 299 205 170 180 261 331 482 566 279 160 123 111 134 65 6 71 168 193 175 226 3 0 0 0 0 0 0 0 0 0 2 102 31 32 17 6 4 6 4
1355 711 596 471 324 306 160 206 163 178 353 608 434 301 180 98 128 118 57 77 171 219 345 184 0 0 0 0 0 0 0 0 0 0 10 83 34 25 4 2 0 1 1
983 613 621 516 471 421 277 191 197 232 212 190 253 228 116 115 211 219 221 155 35 117 190 73 0 0 0 0 0 0 0 0 0 0 22 39 19 5 3 2 0 0 0
699 675 556 536 557 587 507 400 206 237 243 186 121 103 118 133 172 187 233 183 143 90 129 68 0 0 0 0 0 0 0 0 0 0 16 15 2 0 0 0 0 0 0
772 809 901 1027 1054 848 757 693 537 255 274 224 171 129 106 111 142 195 223 217 182 95 73 8 0 0 0 0 0 0 0 0 0 0 7 7 0 0 0 0 0 0 0
989 926 744 952 1213 1525 1424 713 845 684 328 313 221 180 153 102 117 223 317 240 238 154 63 5 0 0 0 0 0 0 0 0 0 0 0 0 0 0 0 0 0 0 0
92 431 1067 1030 1079 950 949 1447 1127 946 682 438 403 266 177 120 100 165 268 360 262 173 63 0 0 0 0 0 0 0 0 0 0 0 0 0 0 0 0 0 0 0 0
106 62 51 574 1151 1272 1033 1081 1131 790 894 811 513 411 294 139 96 114 182 229 204 167 62 0 0 0 0 0 0 0 0 0 0 0 0 0 0 0 0 0 0 0 0
32 21 0 0 476 1028 1267 1007 1590 1146 1026 1176 921 535 432 402 162 115 90 138 159 145 22 0 0 0 0 0 0 0 0 0 0 0 0 0 0 0 0 0 0 0 0
0 0 0 0 0 306 906 1160 1385 1482 1069 892 1143 932 620 490 485 277 100 69 101 118 13 0 0 0 0 0 0 0 0 0 0 0 0 0 0 0 0 0 0 0 0
0 0 0 0 0 0 98 1184 1454 1108 1257 796 1201 1055 900 587 457 375 267 129 82 77 28 0 17 0 0 0 0 0 0 0 0 0 0 0 0 0 0 0 0 0 0
0 0 0 0 0 0 0 197 948 961 939 810 543 1120 1041 777 512 454 517 306 168 101 36 45 74 2 0 0 0 0 0 0 0 0 0 0 0 0 0 0 0 0 0
0 0 0 0 0 0 0 0 193 781 1063 759 612 580 473 782 713 478 480 460 321 189 79 87 120 22 5 0 0 0 0 0 0 0 0 0 0 0 0 0 0 0 0
0 0 0 0 0 0 0 0 0 124 419 408 511 667 849 416 816 617 387 291 369 241 133 87 197 71 34 8 0 0 0 0 0 0 0 0 0 0 0 0 0 0 0
0 0 0 0 0 0 0 0 0 0 23 66 389 561 636 651 302 691 373 346 406 446 378 202 244 196 52 37 33 16 17 4 0 0 0 0 0 0 0 0 0 0 0
0 0 0 0 0 0 0 0 0 0 0 1 354 677 785 657 289 318 698 404 255 301 452 422 290 364 201 64 61 31 31 34 16 9 3 0 0 0 0 0 0 0 0

GFSSE_con_mucape_045.txt.gz
CAPE
852 1139 2514 2174 1745 1870 1827 1774 1784 1692 1231 900 574 350 115 13 3 2 0 0 0 5 10 87 58 30 20 0 0 0 0 4 0 0 0 0 0 0 0 0 9 4 0
1002 1007 2262 2183 1976 1945 1970 2121 1849 1581 938 537 214 10 1 0 0 0 0 5 1 1 17 69 42 40 1 0 0 0 0 0 0 0 0 0 0 0 0 0 0 0 0
1103 1176 981 2224 2304 2323 2177 1575 1430 1054 674 332 47 13 3 0 0 0 10 53 47 0 71 79 56 1 0 0 0 0 0 0 0 0 0 0 0 0 0 0 0 0 0
1098 1075 989 2056 2433 2327 1993 1415 1134 795 540 144 14 9 0 0 0 0 29 81 90 95 72 19 0 0 0 0 1 0 0 0 0 0 7 15 24 37 14 0 0 0 0
1038 944 1407 2095 2373 2202 1813 1395 962 820 526 286 0 0 0 0 1 1 26 23 22 11 13 4 0 0 0 1 0 0 0 0 0 6 23 36 32 9 125 200 112 0 0
841 726 786 1563 2134 2063 1878 1541 957 599 453 93 0 0 0 0 2 6 10 0 0 6 0 0 0 1 0 1 0 0 0 0 0 11 20 16 10 84 144 215 229 251 236
584 738 477 929 1990 2022 1883 1776 1503 952 489 101 37 0 0 1 4 9 1 0 0 0 0 0 0 0 3 3 0 0 0 0 10 10 15 25 3 26 96 54 105 136 105
586 618 430 776 1455 1601 1423 1266 1416 1245 501 254 114 0 0 0 1 1 0 0 0 0 0 3 5 5 1 0 0 0 0 0 11 11 6 9 0 72 27 0 2 19 15
565 508 416 534 576 667 729 837 935 1066 834 536 305 117 85 35 0 0 0 0 0 0 24 46 36 0 0 0 0 0 0 0 2 0 0 6 53 135 21 1 4 5 7
698 510 477 488 385 367 225 336 389 586 732 802 280 198 93 38 15 2 61 43 18 63 92 132 3 0 0 0 0 0 0 0 0 0 0 3 144 51 15 3 3 6 7
845 576 421 327 287 142 92 115 166 239 313 491 185 109 35 7 0 0 3 73 100 219 178 116 0 0 0 0 0 0 0 0 0 0 18 124 45 28 5 1 1 3 5
867 723 461 301 240 126 98 160 56 46 142 304 255 133 128 25 23 6 0 52 124 170 205 132 0 0 0 0 0 0 0 0 0 0 20 50 20 13 1 0 0 2 1
671 864 575 448 254 187 140 176 128 137 163 367 373 247 162 55 101 89 116 21 16 87 156 94 0 0 0 0 0 0 0 0 0 0 8 53 17 11 2 0 0 0 0
842 651 548 584 448 343 302 166 163 181 174 138 203 203 159 103 129 121 148 85 31 59 125 142 39 0 0 0 0 0 0 0 0 0 0 3 11 0 0 0 0 0 0
835 932 662 634 593 551 520 427 269 217 228 194 110 101 91 95 107 140 157 205 105 63 74 77 35 0 0 0 0 0 0 0 0 0 3 0 4 0 0 0 0 0 0
754 887 906 733 1024 630 750 753 817 659 370 355 238 157 74 84 101 155 163 237 182 129 68 57 5 0 0 0 0 0 0 0 0 0 1 0 0 0 0 0 0 0 0
491 666 836 830 808 899 1450 877 899 1002 775 577 523 307 143 103 97 98 175 282 241 216 115 55 0 0 0 0 0 0 0 0 0 0 0 0 0 0 0 0 0 0 0
0 0 94 732 1000 1023 1057 1064 1463 1233 955 929 709 642 403 218 145 131 189 276 310 353 189 88 5 0 0 0 0 0 0 0 0 0 0 0 0 0 0 0 0 0 0
0 0 21 6 140 833 1118 1274 1055 1469 1322 1016 1160 884 718 526 296 196 171 234 163 275 197 123 2 0 0 0 0 0 0 0 0 0 0 0 0 0 0 0 0 0 0
0 0 0 0 5 0 238 787 1629 882 1518 1153 1376 1335 984 824 683 491 279 202 197 255 219 113 9 0 0 0 0 0 0 0 0 0 0 0 0 0 0 0 0 0 0
0 0 0 0 0 0 0 77 1272 1259 927 994 1259 1278 1293 1091 895 751 598 334 282 258 290 107 8 0 0 0 0 0 0 0 0 0 0 0 0 0 0 0 0 0 0
0 0 0 0 0 0 0 0 19 1214 860 817 1214 1425 1029 1265 1026 902 820 658 389 277 319 148 46 10 0 3 20 0 0 0 0 0 0 0 0 0 0 0 0 0 0
0 0 0 0 0 0 0 0 0 85 972 1152 1052 1010 861 801 1175 1129 849 751 657 385 342 267 105 71 35 43 51 0 0 0 0 0 0 0 0 0 0 0 0 0 0
0 0 0 0 0 0 0 0 0 0 24 649 741 811 804 665 428 929 1181 924 679 574 443 302 178 122 71 57 74 19 2 0 0 0 0 0 0 0 0 0 0 0 0
0 0 0 0 0 0 0 0 0 0 0 0 175 268 274 668 841 491 604 1072 817 540 530 272 168 133 124 83 126 50 36 9 0 0 0 0 1 0 0 0 0 0 0
0 0 0 0 0 0 0 0 0 0 0 0 0 87 256 542 765 858 521 917 816 851 630 272 189 131 125 117 90 147 69 39 27 24 15 0 2 6 0 0 0 0 0

GFSSE_con_mucape_048.txt.gz
CAPE
757 1252 2218 2282 2477 2539 2195 1928 1636 1780 1631 1016 673 334 100 14 3 0 0 0 0 3 79 83 49 34 6 2 0 0 0 1 0 0 0 0 0 0 0 1 20 0 1
782 915 2133 2265 2321 2324 2288 1986 1885 1598 1178 660 285 28 4 0 0 0 3 4 0 16 69 58 51 1 2 2 0 0 0 0 0 0 0 0 0 0 0 0 0 0 0
764 1169 1571 2183 2272 2307 2275 1910 1565 1146 891 355 107 17 0 0 0 0 73 38 0 60 76 68 11 0 1 0 0 0 0 0 0 0 4 1 0 0 0 0 0 0 0
819 710 909 2323 2378 2313 1997 1625 1303 794 429 177 11 2 0 0 0 38 131 116 58 80 42 0 0 0 1 1 0 0 0 0 0 6 19 21 12 88 68 31 0 0 0
936 655 1526 2309 2395 2199 1851 1570 1196 660 272 5 0 0 0 0 1 58 63 40 20 17 13 0 0 0 1 1 0 0 0 0 1 6 4 3 9 110 232 276 75 0 0
791 995 1527 2204 2283 1965 1694 1431 1147 737 273 4 0 0 0 2 8 22 6 3 2 11 1 0 0 0 2 1 0 0 0 0 5 5 3 21 15 146 197 226 262 278 265
946 937 867 2057 2115 1894 1670 1393 1204 934 184 84 0 0 1 3 11 13 2 0 0 0 0 0 0 2 3 0 0 0 0 0 0 3 0 0 0 40 23 86 74 61 54
737 572 399 1258 1710 1748 1784 1607 1296 1020 417 144 17 0 1 3 6 10 1 0 0 0 0 2 4 2 0 0 0 0 0 0 2 0 0 0 85 44 7 1 0 7 7
529 426 138 739 883 973 1121 1080 1175 988 499 325 85 59 50 3 2 3 0 0 0 0 23 40 23 0 0 0 0 0 0 0 0 0 0 0 228 37 8 0 1 8 8
404 407 183 466 420 304 265 493 572 799 416 323 134 64 0 0 0 1 0 21 43 121 104 83 0 0 0 0 0 0 0 0 0 0 0 60 106 29 7 0 0 4 9
458 453 264 335 252 172 135 123 187 291 373 330 98 16 0 0 0 0 0 22 64 181 236 94 0 0 0 0 0 0 0 0 0 0 5 148 51 17 5 0 0 2 5
662 423 341 270 181 88 28 47 55 108 171 246 124 50 26 2 0 0 0 31 76 148 256 106 0 0 0 0 0 0 0 0 0 0 0 76 2 4 0 0 0 1 1
774 667 333 203 162 71 68 92 0 6 54 169 176 97 66 39 17 9 0 3 8 69 78 87 0 0 0 0 0 0 0 0 0 0 7 55 1 7 0 0 0 0 0
526 746 574 322 177 101 113 121 78 65 81 156 219 131 87 66 23 39 61 29 0 18 56 86 42 0 0 0 0 0 0 0 0 0 0 0 3 0 0 0 0 0 0
670 564 570 521 376 241 183 133 89 76 92 72 264 231 184 100 59 73 75 66 57 9 40 138 84 0 0 0 0 0 0 0 0 0 0 0 0 0 0 0 0 0 0
583 657 692 491 532 465 451 375 184 135 123 130 94 54 83 71 52 76 88 131 129 52 39 61 58 7 0 0 0 0 0 0 0 0 0 0 0 0 0 0 0 0 0
426 637 804 676 515 439 461 586 629 700 634 284 231 166 118 14 34 42 62 93 140 99 78 45 24 8 0 0 0 0 0 0 0 0 0 0 0 0 0 0 0 0 0
136 293 620 767 736 647 578 576 585 693 720 795 531 362 299 188 38 31 44 85 132 127 88 74 41 9 0 0 0 0 0 0 0 0 0 0 0 0 0 0 0 0 0
0 0 40 71 501 840 808 891 679 591 564 733 845 911 414 354 282 117 41 51 150 158 102 124 57 32 0 0 0 0 0 0 0 0 0 0 0 0 0 0 0 0 0
0 0 0 0 0 94 315 879 901 863 755 608 595 875 906 603 528 386 248 162 79 170 173 187 94 58 20 0 0 0 0 0 0 0 0 0 0 0 0 0 0 0 0
0 0 0 0 0 0 0 0 587 1046 914 733 733 706 936 1024 704 543 389 317 194 99 142 160 122 69 39 14 0 0 0 0 0 0 0 0 0 0 0 0 0 0 0
0 0 0 0 0 0 0 0 0 391 836 915 684 578 689 962 932 795 623 431 343 197 146 176 151 96 82 55 18 4 0 0 0 0 0 0 0 0 0 0 0 0 0
0 0 0 0 0 0 0 0 0 0 81 874 755 495 448 485 591 881 823 745 514 294 195 210 203 181 147 72 44 42 11 11 38 0 0 0 0 0 0 0 0 0 0
0 0 0 0 0 0 0 0 0 0 0 14 622 679 690 622 473 475 696 756 926 773 435 298 267 236 199 158 105 57 54 29 53 14 16 4 4 0 0 0 0 0 0
0 0 0 0 0 0 0 0 0 0 0 0 0 0 345 594 615 544 417 399 751 925 744 686 356 344 228 193 173 140 73 54 78 44 42 26 4 4 11 7 0 0 0
0 0 0 0 0 0 0 0 0 0 0 0 0 0 0 16 70 454 620 659 409 515 863 757 656 552 379 171 129 207 155 148 126 58 64 49 35 30 19 18 8 3 2

GFSSE_con_mucape_051.txt.gz
CAPE
771 1546 2425 2760 2367 2205 1998 1881 1786 1686 1511 924 573 302 121 4 0 0 0 1 1 94 114 77 32 17 10 1 0 0 0 0 0 0 0 2 4 7 11 1 0 0 119
919 1435 2329 2614 2531 2487 2245 1824 1971 1720 1427 1101 410 136 12 1 0 1 2 0 18 83 60 17 4 5 3 0 0 0 0 0 0 0 0 0 0 0 0 0 0 0 14
903 1385 2022 2329 2389 2412 2165 1796 1556 1035 1108 700 206 20 1 0 0 46 6 1 53 75 67 2 3 2 1 0 0 0 0 0 0 0 4 13 3 0 0 0 2 1 0
1043 1222 1581 2223 2426 2368 1982 1566 1347 1060 804 363 3 0 0 0 79 241 22 14 104 54 1 0 0 0 0 0 0 0 0 0 3 13 12 9 32 120 130 0 1 36 115
760 985 1839 2260 2369 2092 1877 1555 1115 699 172 1 0 0 0 0 107 114 62 83 59 8 0 0 0 0 0 0 0 0 0 0 21 5 9 12 33 137 252 145 66 161 259
607 1192 1980 2265 2178 1911 1706 1487 1093 349 47 0 0 0 0 6 50 40 31 11 8 19 0 0 1 1 1 0 0 0 0 4 3 4 5 18 47 154 177 195 218 199 122
901 1043 1763 2259 2119 1827 1596 1360 1249 698 76 0 0 0 2 9 14 5 1 0 0 0 0 0 0 2 0 0 0 0 0 0 0 0 0 3 0 9 51 14 10 30 52
919 896 1484 1807 1740 1639 1495 1344 1204 809 321 12 0 1 4 8 12 5 0 0 0 0 0 1 1 1 0 0 0 0 0 0 0 0 0 0 108 10 9 0 0 3 6
840 621 1015 954 1080 1180 1328 1205 1016 761 535 77 27 19 6 9 26 5 1 0 0 0 12 28 19 0 0 0 0 0 0 0 0 0 0 16 139 15 8 0 0 4 5
494 360 486 625 733 805 774 797 739 472 379 109 85 50 10 0 26 76 47 57 59 101 102 67 1 0 0 0 0 0 0 0 0 0 19 58 92 15 3 0 0 2 8
440 377 379 363 346 246 311 367 523 266 171 102 59 20 5 0 0 0 0 44 119 202 172 68 0 0 0 0 0 0 0 0 0 0 31 194 48 6 1 0 0 1 3
513 456 267 227 165 123 126 155 197 287 163 92 41 20 2 0 0 0 0 14 83 203 225 88 0 0 0 0 0 0 0 0 0 11 50 147 14 2 0 0 2 1 1
533 439 330 337 232 171 98 42 51 99 161 162 85 54 21 4 14 3 4 11 33 75 131 78 2 0 0 0 0 0 0 0 0 1 25 111 0 1 0 0 0 0 0
743 632 389 338 214 124 52 59 41 8 39 79 123 89 56 34 27 31 26 14 8 40 33 71 14 1 0 0 0 0 0 0 0 0 7 40 15 1 0 0 0 0 0
585 732 552 318 222 164 67 54 39 19 21 27 156 113 75 37 38 16 29 42 16 6 22 58 50 15 0 0 0 0 0 0 0 0 0 0 9 0 0 0 0 0 0
684 509 604 515 433 240 129 128 59 49 57 69 120 157 169 127 77 54 48 72 73 89 49 34 92 60 9 0 0 0 0 0 0 0 0 0 0 0 0 0 0 0 0
694 623 577 469 520 456 406 325 257 160 56 67 97 119 170 133 86 63 46 61 83 102 90 36 64 75 39 21 0 0 0 0 0 0 0 0 0 0 0 0 0 0 0
278 497 687 741 517 449 501 463 435 511 590 440 149 182 185 121 60 19 23 35 65 79 77 71 31 31 34 22 0 0 0 0 0 0 0 0 0 0 0 0 0 0 0
0 78 286 824 734 675 543 348 355 493 639 684 609 394 252 267 261 180 53 29 59 110 103 114 70 63 77 34 8 0 0 0 0 0 0 0 0 0 0 0 0 0 0
0 0 1 8 669 744 727 685 679 534 450 433 591 726 681 512 386 353 326 240 103 120 138 168 115 109 106 90 44 11 0 0 0 0 0 0 0 0 0 0 0 0 0
0 0 0 0 0 0 6 394 749 864 794 607 461 480 579 716 677 369 389 388 300 203 147 193 184 193 224 164 87 25 16 0 0 0 0 0 0 0 0 0 0 0 0
0 0 0 0 0 0 0 0 0 392 686 791 752 671 616 408 498 586 504 422 447 227 199 186 226 235 322 307 147 67 27 0 0 2 5 15 2 0 0 0 0 0 0
0 0 0 0 0 0 0 0 0 0 0 396 572 720 788 676 472 445 449 417 517 484 350 227 165 236 252 199 202 92 30 3 9 18 24 48 43 3 0 0 0 0 0
0 0 0 0 0 0 0 0 0 0 0 0 65 320 756 662 495 408 322 279 260 281 490 505 340 238 243 192 134 116 96 54 41 16 35 55 49 38 38 12 0 0 0
0 0 0 0 0 0 0 0 0 0 0 0 0 0 0 164 483 565 582 453 361 283 385 573 614 538 340 148 165 185 101 97 56 47 44 48 60 48 56 45 15 4 0
0 0 0 0 0 0 0 0 0 0 0 0 0 0 0 0 0 174 359 428 482 427 302 378 526 528 524 480 384 295 251 170 127 81 49 55 65 54 49 29 6 6 7

GFSSE_con_mucape_054.txt.gz
CAPE
1250 1836 2684 2359 1888 1837 1717 1621 1705 1579 1421 891 525 283 43 0 0 0 0 2 107 120 64 32 25 7 2 0 0 0 0 0 0 0 0 9 8 16 2 0 2 54 108
1226 1844 2561 2470 2326 2239 2206 2077 1892 1716 1414 1016 526 145 6 0 1 5 0 50 137 10 4 2 3 3 1 0 0 0 0 0 0 0 0 0 0 0 0 0 0 5 9
1253 1794 2287 2502 2481 2396 2170 1880 1860 1622 1204 759 128 17 1 0 9 10 7 60 125 11 5 4 2 2 0 0 0 0 0 0 0 0 4 9 0 0 0 0 0 0 0
1210 1840 1833 2517 2492 2254 1942 1617 1318 745 667 340 4 0 0 29 259 4 16 158 155 5 2 0 1 0 0 0 0 0 0 0 1 0 0 31 57 107 0 25 61 153 158
1225 1470 1601 2401 2391 2216 1831 1479 1108 836 153 0 0 0 0 224 333 71 42 229 5 0 0 0 0 0 0 0 0 0 0 3 7 0 9 20 42 133 64 88 159 283 400
1169 1436 1843 2270 2181 1957 1745 1329 1013 302 34 0 0 0 1 233 273 175 130 95 7 0 0 0 0 0 0 0 0 0 0 0 0 0 18 48 48 138 176 186 162 103 221
1066 1571 1869 2197 2107 1871 1666 1319 839 157 8 0 0 0 14 98 69 60 57 13 0 0 0 0 0 0 0 0 0 0 0 0 0 0 0 0 0 52 19 16 21 16 17
919 1585 1869 1921 1846 1720 1580 1439 937 522 33 0 0 2 8 65 65 49 41 31 0 0 0 1 1 0 0 0 0 0 0 0 0 0 0 0 55 7 6 2 0 0 3
930 1360 1604 1479 1402 1349 1260 1293 1038 700 169 61 40 31 54 91 60 44 27 9 0 0 0 22 39 24 0 0 0 0 0 0 0 0 0 0 115 12 6 1 1 0 4
865 1020 1141 1020 901 821 862 903 702 639 146 100 80 61 16 6 36 64 69 73 62 82 97 94 61 0 0 0 0 0 0 0 0 0 13 1 81 6 4 0 0 2 5
658 559 787 648 668 597 631 705 403 336 107 95 76 25 3 4 25 27 6 39 124 175 146 98 21 0 0 0 0 0 0 0 0 1 25 214 89 3 0 0 1 0 2
446 416 491 462 336 343 531 568 420 163 74 53 33 7 3 5 14 17 14 26 112 196 210 120 28 4 0 0 0 0 0 0 0 26 64 185 38 1 0 0 0 0 2
495 456 371 314 266 226 184 240 319 205 93 54 24 7 5 0 3 5 10 18 38 78 159 121 15 0 0 0 0 0 0 0 0 25 77 172 61 1 0 0 0 0 1
559 496 353 279 214 151 86 72 137 181 160 105 40 28 27 5 0 6 1 17 31 66 100 85 33 5 0 0 0 0 0 0 0 0 41 95 73 0 0 0 0 0 0
668 542 434 387 315 182 136 31 17 0 42 95 76 35 38 25 18 15 25 29 35 27 38 43 33 11 8 0 0 0 0 0 0 0 0 13 75 39 0 0 0 0 0
745 759 596 381 429 266 192 109 55 26 0 0 0 41 73 66 56 42 36 30 44 55 50 35 14 27 33 2 0 0 0 0 0 0 0 0 1 30 0 0 0 0 0
635 540 725 535 375 277 225 131 114 120 39 9 38 39 106 136 135 112 59 45 41 50 63 79 51 33 64 46 28 18 6 2 0 0 0 0 0 0 0 0 0 0 0
492 693 506 508 562 432 377 272 167 180 122 26 66 73 111 169 175 125 107 24 20 33 57 72 75 61 64 76 50 41 23 0 0 0 0 0 0 0 0 0 0 0 0
27 536 646 596 621 526 499 446 383 309 461 540 218 134 137 176 163 132 105 39 9 23 37 53 77 72 84 73 35 38 27 0 0 0 0 0 0 0 0 0 0 0 0
0 0 15 562 747 768 637 545 431 325 428 464 628 589 446 225 237 222 243 238 164 108 90 75 95 106 132 140 70 83 70 32 6 0 0 0 0 0 0 0 0 0 0
0 0 0 0 1 288 617 619 576 577 463 355 373 347 542 629 597 479 247 279 265 181 148 150 136 138 134 155 134 83 78 63 29 24 12 0 0 0 0 8 0 0 0
0 0 0 0 0 0 0 0 207 399 550 574 541 413 335 327 255 292 310 244 268 236 145 191 242 164 169 172 179 85 30 5 27 67 35 7 5 2 2 41 5 0 0
0 0 0 0 0 0 0 0 0 0 0 12 134 240 313 435 553 505 282 210 226 260 305 317 311 202 181 215 182 114 52 1 3 7 22 12 4 6 16 33 40 21 20
0 0 0 0 0 0 0 0 0 0 0 0 0 0 1 96 325 513 543 409 225 204 225 171 174 180 232 172 202 190 175 162 39 8 3 30 30 16 18 36 46 44 47
0 0 0 0 0 0 0 0 0 0 0 0 0 0 0 0 0 0 49 321 344 218 113 105 150 202 265 178 162 167 107 131 109 110 60 37 94 65 36 29 29 31 58
0 0 0 0 0 0 0 0 0 0 0 0 0 0 0 0 0 0 0 0 182 256 179 201 92 138 122 121 95 168 195 107 314 167 226 37 57 65 38 29 44 58 56

GFSSE_con_mucape_057.txt.gz
CAPE
726 1670 2420 1970 1729 1654 1601 1507 1438 1389 1155 742 449 132 0 0 0 0 0 61 113 65 48 25 6 6 1 0 0 0 0 0 0 0 1 5 10 1 1 8 81 44 105
1097 1878 2249 2153 2072 1944 2017 1950 1940 1703 1325 784 423 47 0 0 2 0 46 186 10 2 2 3 4 2 0 0 0 0 0 0 0 0 0 0 0 0 0 0 3 18 45
1338 1908 1977 2219 2349 2357 2185 1677 1657 1501 1155 598 179 4 0 11 12 0 115 133 6 6 2 0 2 0 0 0 0 0 0 0 0 0 0 0 0 0 0 0 0 0 0
1472 1895 1913 2411 2456 2263 1944 1777 1676 1256 409 104 1 0 0 80 17 6 150 199 10 3 0 0 0 0 0 0 0 0 0 0 0 0 0 19 22 0 28 78 153 127 18
1582 1803 2015 2446 2389 2128 1837 1667 1186 674 174 31 0 0 70 481 5 67 361 169 1 0 0 0 0 0 0 0 0 0 0 0 0 0 0 12 71 2 82 159 136 301 250
1547 1467 2107 2335 2338 2049 1695 1436 969 328 93 0 0 0 235 349 190 75 325 26 14 0 0 0 0 0 0 0 0 0 0 0 0 0 32 64 60 192 178 171 113 118 220
1276 1273 1732 2249 2188 1932 1540 1270 830 134 18 0 0 0 276 168 235 173 119 32 0 0 0 0 0 0 0 0 0 0 0 0 0 0 0 0 37 57 48 21 43 34 23
1261 1467 1493 1917 1942 1813 1490 1112 733 107 25 0 0 4 251 155 120 85 86 64 21 0 0 0 0 0 0 0 0 0 0 0 0 0 0 0 12 0 2 0 0 0 0
1350 1468 1548 1562 1516 1493 1433 1050 794 404 93 48 41 41 82 118 79 99 84 67 38 0 0 1 18 0 0 0 0 0 0 0 0 0 0 0 95 5 5 1 0 0 1
1234 1226 1321 1321 1220 1113 1030 1017 697 441 147 81 71 59 50 28 34 77 77 80 62 35 37 47 49 27 0 0 0 0 0 0 0 0 0 0 80 1 1 0 0 2 4
1041 1125 1130 1088 911 778 659 848 647 277 104 73 54 25 17 21 32 35 19 25 77 131 109 92 62 0 0 0 0 0 0 0 0 0 19 95 100 6 0 0 0 0 1
836 854 966 858 689 506 514 604 437 202 62 35 17 10 0 5 30 35 20 30 96 165 166 128 49 11 0 0 0 0 0 0 0 0 38 230 95 32 1 0 0 0 0
748 545 722 673 579 364 506 576 372 189 62 38 18 0 0 0 6 15 11 20 41 96 93 136 48 5 0 0 0 0 0 0 0 7 59 222 139 59 1 1 0 0 0
581 491 569 467 328 281 342 578 465 222 69 43 17 4 2 0 0 0 0 2 17 33 55 95 58 21 1 0 0 0 0 0 0 6 55 124 204 68 1 0 0 0 0
614 547 412 421 332 275 234 197 194 212 140 65 8 0 0 0 0 0 0 0 4 23 44 58 54 31 16 3 0 0 0 0 0 2 37 77 113 136 26 0 0 0 0
724 638 522 418 336 283 259 130 57 57 76 92 83 37 0 9 26 19 2 0 17 21 33 38 35 17 5 4 9 0 0 0 0 0 1 14 43 150 90 1 0 0 0
851 790 683 606 456 441 289 188 90 69 66 23 3 33 0 47 60 56 48 49 45 35 32 38 48 42 18 0 11 7 5 2 0 0 0 0 7 38 80 7 0 1 0
371 549 817 827 638 497 464 296 184 120 89 81 2 0 0 33 72 98 110 109 83 41 29 35 42 52 50 30 28 31 20 13 16 6 0 0 5 18 9 72 32 0 0
434 517 664 610 735 611 477 341 319 304 196 156 152 79 71 72 81 107 149 152 129 97 25 0 27 33 53 55 47 66 65 32 27 41 8 0 0 0 0 0 11 6 0
0 9 352 669 582 538 540 507 439 430 387 335 423 457 302 179 165 149 171 179 192 221 196 111 63 47 40 62 69 76 96 71 47 53 63 32 30 33 9 0 0 0 0
0 0 0 2 289 552 674 604 572 511 472 435 438 516 590 577 421 340 314 282 271 218 186 120 113 86 104 110 95 86 81 66 67 71 88 84 64 57 37 19 15 16 23
0 0 0 0 0 0 211 572 593 609 578 554 563 528 426 386 347 352 364 232 171 143 127 154 149 34 29 131 92 75 35 1 0 8 20 21 37 60 48 18 13 22 35
0 0 0 0 0 0 0 0 0 0 0 0 0 24 54 88 189 288 376 353 236 209 144 164 187 221 217 152 141 93 53 4 1 0 0 0 7 16 18 32 36 39 39
0 0 0 0 0 0 0 0 0 0 0 0 0 0 0 0 0 7 133 356 413 282 253 233 205 188 179 117 61 92 136 88 48 5 0 8 1 42 39 41 36 35 55
0 0 0 0 0 0 0 0 0 0 0 0 0 0 0 0 0 0 0 0 3 269 313 217 110 46 64 83 24 54 47 82 81 86 4 5 3 4 3 24 17 3 21
0 0 0 0 0 0 0 0 0 0 0 0 0 0 0 0 0 0 0 0 0 0 120 217 135 84 87 67 58 76 79 40 21 24 18 11 9 3 18 4 3 10 2

GFSSE_con_mucape_060.txt.gz
CAPE
351 1448 2307 1938 1786 1685 1676 1454 1206 1287 1035 521 305 51 1 0 0 0 41 93 80 18 5 10 6 4 0 0 0 0 0 0 0 0 0 2 0 5 31 109 105 62 72
682 1748 2174 2061 1911 1798 1804 1640 1680 1569 1271 569 234 17 0 0 0 3 190 34 2 1 1 6 9 1 1 1 0 0 0 0 0 0 0 0 0 0 0 0 6 6 16
1118 1768 1783 2091 2188 2251 2212 1715 1471 1296 875 482 110 0 0 5 0 239 235 2 6 3 1 2 4 0 3 0 0 0 0 0 0 0 0 0 0 0 6 0 0 0 0
1538 1615 1544 2363 2426 2350 2004 1512 1408 931 342 165 30 0 7 3 5 334 207 13 5 1 0 2 0 0 1 0 0 0 0 0 0 0 0 0 0 13 123 214 201 73 0
1640 1658 1778 2413 2411 2209 1908 1811 1269 441 140 17 0 0 224 48 70 264 348 61 4 0 0 0 0 0 0 0 0 0 0 0 0 0 0 41 0 66 169 201 255 260 179
1660 1718 2073 2308 2300 2144 1855 1400 874 308 86 11 0 29 497 65 89 601 234 37 0 0 0 0 0 0 0 0 0 0 0 0 0 0 31 59 130 232 208 181 105 116 188
1452 1634 1997 2348 2192 1879 1676 1225 914 278 38 17 0 108 699 462 210 615 147 30 0 0 0 0 0 0 0 0 0 0 0 0 0 0 0 0 30 44 58 36 13 4 1
1187 1477 1549 2031 1936 1678 1444 1168 731 74 18 11 13 120 341 123 198 99 87 60 17 0 0 0 0 0 0 0 0 0 0 0 0 0 0 0 1 0 3 0 0 0 0
1222 1217 1329 1421 1496 1299 1139 920 627 311 39 32 52 188 425 291 152 143 132 91 49 0 0 0 30 17 0 0 0 0 0 0 0 0 0 0 10 3 3 0 0 0 0
1240 1189 1130 1249 1247 1100 820 625 470 324 90 72 54 51 31 37 82 116 89 83 60 31 34 50 47 36 0 0 0 0 0 0 0 0 1 16 68 1 0 0 0 0 1
1102 863 1036 1109 1033 897 814 544 400 189 73 60 42 29 35 18 21 33 28 35 71 101 83 97 68 15 0 0 0 0 0 0 0 0 26 36 136 36 0 0 0 0 0
1026 1173 1117 984 871 739 600 717 422 161 43 28 15 15 16 19 24 31 25 25 74 128 139 107 62 22 0 0 0 0 0 0 0 0 35 67 163 80 0 0 0 0 0
764 747 864 929 801 620 461 480 503 268 54 32 16 0 0 0 9 21 15 14 34 73 76 109 67 17 0 0 0 0 0 0 0 0 23 83 199 120 36 0 0 0 0
892 666 743 842 765 520 348 325 458 236 92 55 20 0 0 0 0 0 0 0 9 21 42 35 58 27 5 0 0 0 0 0 0 0 5 40 222 145 60 0 0 0 0
957 671 556 676 573 433 325 349 458 356 234 88 46 16 0 0 0 0 0 0 0 0 5 14 31 35 10 1 0 0 0 0 0 0 0 13 77 220 78 27 0 0 0
849 611 532 557 464 341 306 267 372 381 274 141 61 29 0 0 0 0 0 0 0 0 0 5 11 14 15 0 0 0 0 0 0 0 0 0 23 118 228 60 15 2 2
804 676 657 527 456 404 357 325 267 148 129 131 99 47 0 0 0 24 28 30 30 9 0 3 14 22 26 26 14 0 0 0 0 0 0 0 0 25 127 96 40 16 4
815 830 758 671 639 569 462 374 272 152 88 85 77 10 6 34 0 47 71 88 70 58 45 33 16 23 29 21 32 28 20 24 41 25 17 32 5 0 30 167 180 39 9
413 457 530 643 773 794 630 481 451 295 264 237 159 131 105 54 46 45 56 95 115 111 101 79 80 35 18 28 26 21 33 44 77 88 80 72 84 64 36 26 44 52 60
314 449 484 606 637 603 683 571 462 430 282 335 318 265 219 207 164 140 147 174 179 178 180 172 169 133 74 42 42 23 36 49 62 114 139 98 88 94 75 64 39 16 4
0 1 1 17 509 627 543 564 543 470 175 345 465 433 395 442 454 424 390 256 247 252 253 179 128 85 44 43 1 0 0 0 20 55 61 94 120 89 57 48 51 35 2
0 0 0 0 0 86 410 570 642 643 592 602 568 523 451 403 404 386 410 360 339 279 187 100 103 73 64 107 83 23 11 0 0 0 0 0 0 0 7 14 21 18 15
0 0 0 0 0 0 0 57 301 542 520 483 435 389 215 114 174 163 208 272 318 302 253 199 181 113 89 97 91 63 37 7 2 2 1 0 0 0 0 5 18 25 20
0 0 0 0 0 0 0 0 0 0 0 0 0 0 0 0 0 0 0 3 54 199 388 287 173 121 89 78 69 67 59 38 27 13 11 9 9 0 2 9 30 3 7
0 0 0 0 0 0 0 0 0 0 0 0 0 0 0 0 0 0 0 0 1 0 3 45 237 195 108 63 54 59 48 7 14 15 10 4 9 10 11 14 5 5 5
0 0 0 0 0 0 0 0 0 0 0 0 0 0 0 0 0 0 0 0 0 0 3 2 39 158 120 63 62 59 19 24 9 13 10 6 5 4 1 5 1 1 0

GFSSE_con_mucape_063.txt.gz
CAPE
390 1462 2330 2369 1945 1861 1614 1131 1181 814 448 328 192 35 0 0 0 98 175 124 93 14 7 8 3 5 1 0 0 0 0 0 0 0 0 2 8 33 99 86 73 68 84
615 1731 2221 2292 2152 2080 1961 1752 1657 1365 1070 423 140 1 0 0 26 272 167 3 2 2 6 7 8 7 3 3 3 4 3 0 0 0 0 0 0 0 0 0 1 4 0
1192 1543 1511 2174 2118 2158 2138 1551 1477 1155 859 267 43 0 5 8 312 360 1 7 3 1 4 10 5 6 2 1 0 0 0 0 0 0 0 0 4 78 112 2 0 0 0
1491 1469 1304 2002 2144 2297 2151 1630 1445 830 473 224 4 0 3 92 506 237 41 9 2 0 3 3 2 5 2 0 0 0 0 0 0 0 36 0 6 163 232 379 79 0 95
1570 1412 1490 2338 2377 2294 1902 1647 1057 427 174 57 0 21 34 145 441 422 135 18 0 0 0 0 0 0 0 0 0 0 0 0 0 29 89 7 38 165 207 244 232 261 242
1531 1478 1987 2352 2286 2123 1915 1399 802 270 67 0 0 105 431 143 475 587 130 0 0 0 0 0 0 0 0 0 0 0 0 0 0 0 78 139 254 210 154 111 60 54 110
1486 1601 1778 2187 2246 1972 1554 1175 852 275 42 0 0 597 502 126 738 453 96 24 0 0 0 0 0 0 0 0 0 0 0 0 0 0 10 27 53 1 21 2 0 0 0
1479 1742 1675 1854 1857 1728 1339 1199 842 202 25 15 88 668 761 628 486 121 74 46 3 0 1 4 1 0 0 0 0 0 0 0 0 0 0 0 22 4 3 0 0 0 0
1353 1505 1540 1525 1312 1289 1146 928 628 280 55 54 205 471 297 199 291 191 111 62 39 12 14 40 35 13 0 0 0 0 0 0 0 0 6 26 39 0 0 0 0 0 0
1389 1310 1328 1351 1163 926 646 489 380 169 56 73 53 53 48 57 111 150 92 82 45 24 37 46 41 21 0 0 0 0 0 0 0 3 36 38 67 2 0 0 0 0 0
1304 1221 1224 1223 1158 892 620 367 225 101 51 46 31 24 23 39 48 53 32 29 39 38 44 57 43 15 0 0 0 0 0 0 0 3 24 12 124 24 0 0 0 0 0
1012 941 748 989 1109 951 712 541 335 105 47 33 29 27 32 26 30 31 28 20 41 80 94 83 51 12 0 0 0 0 0 0 0 1 16 21 138 78 7 0 0 0 0
1151 1405 1617 927 922 860 785 741 489 229 57 32 12 1 1 0 10 30 26 20 37 40 75 84 60 16 0 0 0 0 0 0 0 0 0 24 146 143 55 1 0 0 0
785 757 834 838 709 692 573 601 504 320 72 43 16 0 0 0 0 0 4 4 7 15 45 47 54 32 6 0 0 0 0 0 0 0 0 0 76 204 119 29 0 0 0
761 772 640 771 814 653 516 374 382 343 178 93 53 20 0 0 0 0 0 0 0 0 4 14 18 25 13 0 0 0 0 0 0 0 0 0 2 150 164 75 25 1 0
839 920 650 638 764 748 476 328 342 328 304 252 122 43 11 0 0 0 0 0 0 0 0 0 0 2 0 0 0 0 0 0 0 0 0 0 0 27 175 123 54 25 8
775 950 674 585 637 529 437 352 309 334 372 277 150 71 39 0 0 0 0 0 0 0 0 0 0 0 0 0 0 0 0 0 0 5 0 0 0 0 24 199 107 63 28
841 941 726 657 575 533 443 383 357 318 236 129 86 67 47 29 0 0 0 20 32 35 23 19 16 4 2 0 0 0 6 21 32 35 47 65 43 30 25 52 280 202 96
670 791 844 806 726 657 647 559 476 411 316 183 171 118 90 69 50 9 0 28 42 46 52 79 80 59 70 70 46 25 30 33 51 47 71 94 100 79 60 49 46 161 252
185 439 530 567 611 680 733 756 636 449 483 423 306 277 224 180 148 143 122 116 103 109 120 144 144 150 131 79 42 19 33 33 8 15 61 82 121 116 92 66 34 20 16
0 22 402 444 536 646 603 610 629 521 445 453 336 159 330 333 300 273 341 353 304 259 204 190 175 119 81 32 28 2 0 0 0 5 0 0 0 2 40 46 19 3 0
0 0 0 11 4 330 601 584 532 523 522 501 349 355 479 434 396 361 332 343 354 376 384 304 225 185 42 91 65 44 12 1 0 0 0 0 0 0 0 0 0 7 9
0 0 0 0 0 0 61 310 410 491 544 584 570 511 480 417 390 308 304 287 233 258 312 307 306 243 175 133 113 61 35 5 2 1 0 0 0 0 0 0 0 0 6
0 0 0 0 0 0 0 0 1 60 82 61 29 0 0 0 0 0 0 0 12 21 43 142 521 273 176 92 78 33 33 29 41 6 0 0 8 6 4 2 4 1 0
0 0 0 0 0 0 0 0 0 0 0 0 0 0 0 0 0 0 0 0 0 2 2 5 4 7 181 126 85 37 26 56 8 29 10 9 6 4 5 0 1 0 2
0 0 0 0 0 0 0 0 0 0 0 0 0 0 0 0 0 0 0 0 0 0 1 1 2 2 72 154 92 38 26 33 14 5 6 11 2 0 2 0 0 0 0

GFSSE_con_mucape_066.txt.gz
CAPE
989 1506 2135 2125 1696 1574 1508 1353 1258 707 545 334 146 32 1 0 172 299 244 82 43 9 14 12 9 7 6 4 1 0 0 0 0 0 0 1 21 59 115 50 52 19 6
919 1278 2428 2454 2159 2057 1851 1536 1326 1018 733 273 64 0 0 133 356 354 10 2 4 13 6 11 10 12 13 9 9 9 8 2 0 0 0 0 1 0 0 0 5 0 0
874 1195 1630 2439 2441 2260 1963 1352 1099 830 411 150 12 0 4 280 420 42 27 6 1 4 12 14 14 8 3 0 0 0 0 0 0 0 0 34 161 261 141 0 0 5 143
1232 1070 1155 2323 2359 2262 1787 1363 1097 684 341 68 48 10 263 587 213 104 17 1 0 6 5 10 10 3 0 0 0 0 0 0 0 9 26 33 59 237 319 97 63 215 285
1190 872 1257 2024 2350 2319 1877 1517 901 481 226 27 22 22 245 785 427 250 54 0 0 2 2 2 4 1 0 0 0 0 0 0 0 22 47 127 149 171 176 186 148 129 249
1039 948 1309 2163 2405 2147 1792 1285 604 235 111 0 54 190 217 607 766 333 15 0 0 0 0 1 1 0 0 0 0 0 0 0 0 2 67 102 71 96 75 6 1 0 18
966 1031 1332 2342 2230 2047 1513 1206 732 229 43 52 89 518 233 743 690 232 41 0 0 0 0 1 1 0 0 0 0 0 0 0 0 0 0 4 5 0 0 0 0 0 0
933 1087 1281 1864 1964 1681 1389 1158 847 273 37 224 699 875 620 739 445 156 73 22 0 1 13 5 0 0 0 0 0 0 0 0 0 0 0 5 0 1 0 0 0 0 0
1016 1180 1467 1485 1249 1205 1168 1033 750 379 168 215 396 809 691 476 511 137 81 61 29 20 45 40 24 14 0 0 0 0 0 0 0 0 0 3 0 0 0 0 0 0 0
1153 1354 1153 1191 997 850 546 534 378 228 142 175 209 75 61 65 124 224 115 80 42 34 40 49 38 19 4 0 0 0 0 0 0 0 0 22 59 1 0 0 0 0 0
1276 1234 1186 1049 863 851 654 363 145 54 48 49 52 36 31 71 82 49 37 32 41 30 37 45 29 3 0 0 0 0 0 0 0 0 0 9 67 25 1 0 0 0 0
1354 1071 1264 1132 1073 844 650 493 330 106 41 5 0 10 2 5 20 35 32 15 38 53 59 52 31 3 0 0 0 0 0 0 0 0 0 8 55 137 21 0 0 0 0
1235 1205 1139 1292 1148 835 722 609 518 348 199 59 14 3 0 0 0 0 11 16 50 21 19 33 42 12 0 0 0 0 0 0 0 0 0 0 43 156 125 10 0 0 0
1013 1251 936 929 1223 914 839 780 616 452 369 186 71 35 21 1 0 0 0 2 12 0 0 0 0 6 7 0 0 0 0 0 0 0 0 0 1 121 164 110 8 0 0
1021 1080 1047 1174 1028 1015 962 817 696 600 490 390 221 74 45 18 0 0 0 0 0 0 0 0 0 0 6 0 0 0 0 0 0 0 0 0 0 19 178 134 99 30 4
1035 1201 1302 1089 1093 1141 1100 962 708 662 613 606 417 248 71 40 14 0 0 0 0 0 0 0 0 10 22 26 21 0 0 0 0 0 0 0 0 0 53 211 114 23 26
959 916 1206 1151 1190 1206 1153 1008 795 733 598 612 561 403 202 77 47 0 0 29 0 0 0 0 0 0 13 17 34 31 0 0 0 0 0 0 11 0 0 46 183 119 12
916 813 828 764 927 1028 899 890 839 807 766 694 630 537 388 205 100 56 38 54 65 42 22 24 31 46 61 76 80 78 56 42 43 37 31 23 40 56 62 42 72 210 190
851 950 852 759 715 842 925 843 814 723 745 664 540 477 409 334 224 197 141 89 84 136 156 151 141 163 205 245 215 155 130 125 120 76 84 75 49 58 76 61 61 57 274
350 675 819 792 837 856 864 912 852 775 720 696 602 469 281 207 173 242 261 248 191 201 274 331 304 329 313 302 217 74 116 137 124 102 88 57 49 0 0 42 47 47 24
76 165 428 677 765 905 988 967 946 1003 870 830 779 690 447 280 265 271 321 403 466 441 444 443 438 431 381 365 136 107 142 48 24 26 12 23 0 0 0 0 0 0 0
0 0 0 332 449 775 954 992 989 1020 942 836 785 651 448 364 411 488 518 582 536 435 484 475 371 260 209 225 170 119 38 19 19 0 0 0 0 0 0 0 0 0 0
0 0 0 0 29 184 440 462 559 577 548 510 498 567 532 514 491 484 490 701 400 383 406 420 558 260 293 173 165 139 68 24 15 4 0 0 0 0 0 0 1 1 0
0 0 0 0 0 0 0 51 151 232 330 84 349 383 351 249 88 29 8 0 0 3 38 4 11 28 35 15 75 28 90 64 44 22 14 4 0 0 0 0 0 0 0
0 0 0 0 0 0 0 0 0 0 0 0 0 0 0 0 0 0 0 0 0 0 0 0 2 9 15 24 16 7 14 42 25 21 13 12 3 1 0 0 0 0 0
0 0 0 0 0 0 0 0 0 0 0 0 0 0 0 0 0 0 0 0 0 0 0 1 4 3 8 9 24 15 14 24 27 2 6 3 7 3 4 0 0 0 0

GFSSE_con_mucape_069.txt.gz
CAPE
1178 1537 2278 1966 1545 1561 1376 1151 1079 765 544 306 160 13 0 296 321 260 45 19 132 94 207 42 11 12 7 3 2 1 0 0 0 0 0 25 10 68 76 26 50 0 0
1179 1378 2180 2180 2027 1982 1583 1244 953 798 526 202 3 0 55 419 391 3 0 2 14 12 143 15 3 11 8 10 11 7 7 0 0 0 4 32 160 0 0 0 0 28 4
1098 1310 1617 2162 2223 2149 1616 1117 907 635 302 65 0 0 490 444 62 15 2 1 9 19 22 30 12 5 2 2 0 0 1 0 0 3 22 105 119 256 0 0 183 250 299
894 1194 1422 2360 2407 2151 1670 1184 834 442 149 58 30 198 562 201 123 7 1 3 9 13 14 6 7 2 2 1 0 0 0 13 2 71 33 65 30 263 272 243 185 289 77
894 923 1759 2486 2382 2099 1614 1295 801 465 116 55 85 324 712 407 293 41 0 3 5 6 12 9 4 2 0 0 0 0 0 0 32 27 115 122 57 70 85 29 16 22 145
761 887 1492 2309 2273 2163 1774 1314 598 233 57 43 129 194 807 722 425 5 0 0 0 1 4 4 2 1 0 0 0 0 0 0 2 3 9 9 6 5 1 0 0 0 0
686 1284 1240 2267 2200 1876 1491 1118 515 127 31 181 333 188 710 870 385 50 0 0 0 0 3 4 1 0 0 0 2 0 0 0 0 0 1 3 0 0 0 0 0 0 0
802 946 1231 1801 1897 1571 1347 1035 611 111 126 286 791 546 654 909 394 152 41 0 0 0 0 0 0 0 0 0 0 0 0 0 0 0 1 0 0 0 0 0 0 0 0
879 744 800 1443 1228 1195 1087 946 664 223 285 442 878 899 913 583 372 113 73 39 0 32 28 20 15 13 0 0 0 0 0 0 0 0 0 13 1 5 0 0 0 0 0
989 756 1302 1194 841 695 394 486 303 201 207 482 283 163 92 83 198 165 108 78 31 27 41 35 25 14 0 0 0 0 0 0 0 0 0 11 40 13 0 0 0 0 0
1206 1195 1422 928 836 813 373 244 54 35 46 66 25 12 17 58 56 15 67 53 38 30 35 35 30 6 0 0 0 0 0 0 0 0 0 9 26 21 0 0 0 0 0
1243 1315 1081 888 786 675 574 278 165 15 0 0 22 38 22 19 36 36 34 11 27 31 35 40 28 4 0 0 0 0 0 0 0 0 0 0 10 70 21 0 0 0 0
1153 867 782 930 949 850 867 443 323 217 87 0 0 0 0 0 0 0 9 0 16 15 9 19 16 10 0 0 0 0 0 0 0 0 0 0 0 29 97 5 0 0 0
1212 948 1265 1099 1075 727 631 900 424 284 236 72 17 5 3 0 0 0 0 0 0 7 0 0 0 0 0 0 0 0 0 0 0 0 0 0 0 0 52 98 7 0 0
1027 883 814 1003 1130 1188 759 683 545 441 321 289 166 48 23 7 0 0 0 0 0 0 0 0 0 0 1 0 0 0 0 0 0 0 0 0 0 0 17 66 61 44 3
1041 1180 1142 990 1047 1002 773 843 585 429 436 426 324 204 54 28 12 0 0 0 0 0 0 0 0 2 24 24 13 3 1 0 0 0 0 0 0 0 0 27 69 45 28
1068 1290 1410 1315 1328 970 1017 973 674 424 395 395 323 316 238 82 49 13 5 44 27 0 0 0 0 0 7 22 23 21 20 20 11 0 6 0 0 0 0 0 6 62 61
1110 1185 1235 1112 1014 982 935 1103 577 586 458 469 527 536 410 250 166 84 49 60 134 157 84 77 86 89 87 72 72 75 63 57 39 38 72 58 25 0 0 0 0 0 79
911 1017 1226 1273 1126 1066 873 924 993 1064 702 752 697 667 620 529 394 336 285 240 190 263 289 273 243 202 235 202 282 143 212 286 188 117 116 160 153 94 16 0 0 0 59
540 917 1178 1222 1107 1039 1045 1047 1128 997 988 940 832 711 597 558 522 503 490 466 347 360 416 478 501 519 430 400 229 198 321 223 245 241 159 113 90 115 31 0 0 0 0
164 357 964 1149 1121 1060 1191 1167 1090 1205 1223 1137 988 869 751 636 489 461 530 584 662 429 483 646 292 470 491 515 280 290 215 175 139 126 99 31 4 0 0 0 0 0 0
19 175 208 714 916 1019 1054 1248 1341 1418 1371 1284 1320 1072 1003 841 609 487 528 515 1034 745 718 597 656 629 396 380 178 202 88 1 0 60 3 0 0 0 0 0 0 0 0
20 49 33 2 185 591 936 1098 1009 884 810 736 857 908 807 633 617 600 718 1044 936 685 1014 657 629 517 302 116 272 144 74 29 20 2 1 0 0 0 0 0 0 0 0
14 1 0 0 0 0 175 603 443 484 643 697 464 382 328 376 444 446 337 177 56 63 20 11 4 66 62 49 109 22 83 73 76 43 38 0 0 0 0 0 0 0 0
0 0 0 0 0 0 0 0 16 68 59 53 7 0 0 0 0 0 0 0 0 0 0 0 0 3 6 10 9 19 23 32 27 38 37 11 22 8 4 9 0 0 0
0 0 0 0 0 0 0 0 0 0 0 0 0 0 0 0 0 0 0 0 0 0 0 0 0 1 5 3 13 12 15 15 2 9 14 19 34 26 4 2 5 0 0

GFSSE_con_mucape_072.txt.gz
CAPE
1180 1485 2147 2057 1625 1830 1474 1078 917 735 460 266 17 4 364 421 178 18 34 68 368 388 145 87 36 15 10 9 7 0 0 0 0 1 35 40 1 5 0 30 170 0 0
1174 1356 2021 2106 1960 1769 1486 1038 1121 921 615 15 0 71 451 128 2 2 5 14 104 266 184 66 8 14 11 7 4 1 0 0 0 15 24 252 55 0 4 185 235 230 0
1121 1322 1675 2095 1974 1704 1475 878 771 434 208 83 0 542 341 77 5 2 5 18 33 77 39 9 12 9 5 0 0 0 0 13 24 24 29 19 1 243 231 201 451 67 0
1157 1167 1456 2232 1980 1914 1460 951 512 194 57 140 219 600 157 74 3 0 9 16 20 4 3 10 10 7 4 0 0 0 0 8 108 71 17 0 7 137 135 47 12 179 217
1063 1127 1606 2253 1908 1867 1402 978 447 114 109 315 431 790 597 236 8 0 8 12 15 11 7 10 6 2 2 0 0 0 0 9 7 11 2 0 0 6 2 0 0 0 6
762 1486 1968 2054 1949 1847 1575 1237 486 107 60 130 497 911 929 288 2 0 1 2 5 14 10 5 1 0 0 0 0 0 0 0 1 1 0 0 0 0 0 0 0 0 0
1387 1431 1845 2081 2064 1760 1439 971 517 76 174 219 335 845 828 332 19 0 0 0 0 1 2 0 0 0 0 0 0 0 0 0 0 0 0 0 0 0 0 0 0 0 0
1149 1118 1491 1777 1688 1474 1187 813 489 263 450 574 631 780 1049 345 133 0 0 0 0 0 0 0 0 0 0 0 0 0 0 0 0 0 0 0 25 0 0 0 0 0 0
931 1014 1358 1308 1149 1083 933 747 430 394 616 826 977 914 960 526 322 85 28 11 36 34 23 18 8 0 0 0 0 0 0 0 0 0 11 0 19 8 0 0 0 0 0
788 804 1212 919 678 408 358 327 160 235 432 444 615 313 116 90 148 208 96 64 35 43 40 30 17 13 0 0 0 0 0 0 0 0 0 7 39 5 0 0 0 0 0
780 777 1126 836 575 356 178 79 33 38 107 57 65 28 12 18 27 20 58 46 57 59 45 38 26 7 0 0 0 0 0 0 0 0 0 21 24 9 0 0 0 0 0
1019 1228 1173 730 676 368 230 26 0 0 4 27 14 0 12 29 32 44 36 21 49 47 54 53 35 9 0 0 0 0 0 0 0 0 0 0 0 16 6 0 0 0 0
1160 1013 923 844 559 449 350 147 97 2 0 2 2 4 0 0 2 18 5 0 1 16 1 37 25 0 0 0 0 0 0 0 0 0 0 0 0 0 11 23 0 0 0
1037 872 840 878 691 579 630 360 288 152 58 0 0 0 0 0 0 0 2 0 0 17 0 0 0 7 0 0 0 0 0 0 0 0 0 0 0 0 0 18 54 0 0
1024 891 876 909 808 634 823 400 402 247 177 87 19 0 0 0 0 0 0 0 0 0 0 0 0 0 0 0 0 0 0 0 0 0 0 0 0 0 0 0 27 75 6
1035 1010 1016 885 970 788 744 566 468 264 284 259 201 64 21 10 0 0 0 0 0 0 0 0 0 0 0 0 0 0 0 0 0 0 0 0 0 0 0 0 2 34 51
1027 1076 977 923 934 811 819 730 518 498 326 317 311 228 99 33 11 0 0 0 0 0 0 0 0 0 0 0 0 0 0 0 0 0 0 0 0 0 0 0 0 15 62
854 1095 1033 1111 1015 909 951 801 707 435 312 327 290 265 271 160 45 14 0 0 43 73 52 8 6 7 8 0 1 1 7 10 5 29 0 17 15 0 0 0 0 2 27
828 1190 1092 949 897 1097 827 780 748 474 501 348 446 542 500 359 252 177 132 101 106 155 219 195 141 112 192 216 275 218 11 47 155 66 44 51 48 65 29 13 0 0 15
732 1030 1030 1250 1061 981 857 744 748 648 575 610 707 621 595 552 491 426 367 358 327 557 415 489 695 236 278 336 235 85 50 41 96 56 76 87 60 55 19 39 5 0 0
297 888 1046 1157 1106 968 1003 812 807 824 819 879 841 821 670 693 761 473 477 449 748 804 582 288 554 503 174 258 167 0 0 80 72 85 84 94 38 5 0 0 0 0 0
25 282 703 1203 1120 1002 1084 1086 983 931 984 920 897 917 896 800 716 553 441 469 475 529 667 543 518 458 429 268 125 57 25 3 0 0 53 56 12 13 0 0 0 0 0
9 21 141 637 1084 1060 1074 1121 1079 1074 1096 1087 1007 1070 972 873 749 616 490 660 786 999 771 602 573 257 138 66 184 64 34 17 7 1 58 42 9 2 0 0 0 0 0
1 18 45 102 591 795 956 982 1116 1062 1005 802 663 788 810 687 658 524 445 417 432 338 145 34 11 4 14 13 11 24 71 76 51 8 1 16 12 8 5 7 0 1 0
0 1 24 39 42 32 636 926 930 729 430 439 532 540 475 229 43 0 0 0 0 0 0 0 0 0 0 2 0 0 11 9 37 43 18 0 32 25 16 1 3 4 2
0 2 12 9 9 0 0 0 7 86 132 112 107 17 0 0 0 0 0 0 0 0 0 0 0 0 0 0 0 3 8 14 13 6 26 16 26 27 40 1 0 0 0

GFSSE_con_mucape_075.txt.gz
CAPE
867 1723 2227 1964 1301 1193 1224 1192 944 699 369 2 272 417 296 47 41 70 433 426 773 368 115 13 7 7 7 3 0 0 0 0 72 165 134 11 0 175 328 263 10 0 0
1075 1624 2148 2017 1848 1628 1206 864 1054 786 422 95 403 419 4 2 2 8 152 326 360 238 14 12 8 6 3 1 2 2 4 4 2 5 109 42 240 308 294 275 45 0 0
1179 1385 1733 2016 1890 1669 1170 748 545 195 187 220 869 122 28 1 1 8 17 36 16 17 14 13 7 2 0 0 9 88 66 17 16 24 25 11 80 234 105 115 206 206 180
1114 1262 1557 2007 1843 1573 1021 683 324 82 4 579 901 468 6 1 5 13 20 28 20 12 13 13 6 1 0 0 0 7 5 9 69 2 0 0 0 5 2 1 5 11 7
934 1251 1721 1836 1792 1646 905 441 168 149 45 799 881 752 124 0 5 10 16 25 11 6 10 7 2 0 0 0 0 0 1 37 2 0 0 0 0 0 0 0 0 3 5
1190 1328 1691 1722 1839 1539 1232 770 119 188 165 897 1077 947 118 0 2 4 6 11 11 8 6 2 1 0 0 0 0 0 0 6 0 0 0 0 0 0 0 0 0 0 3
1221 1493 1542 1698 1841 1573 1259 791 388 289 317 798 1079 647 191 2 0 0 1 3 6 4 2 1 0 40 29 1 0 0 0 0 0 0 0 0 0 0 0 0 0 0 0
1393 1578 1515 1557 1521 1354 937 653 394 683 672 727 1328 1060 245 64 0 0 0 0 2 1 0 0 0 0 0 0 0 0 0 0 0 0 0 0 26 0 0 0 0 0 0
1319 1408 1300 1216 990 811 698 511 464 833 775 874 989 1140 504 284 90 0 2 15 15 18 24 25 22 10 0 0 0 0 0 0 0 0 0 0 23 0 0 0 0 0 0
1190 1140 1078 854 536 329 250 173 289 387 420 828 706 488 173 115 139 143 47 56 52 39 29 24 22 16 2 0 0 0 0 0 0 0 0 0 13 0 0 0 0 0 0
1032 1033 778 515 275 182 50 5 91 107 198 262 252 126 9 8 22 31 13 32 63 53 43 35 19 0 0 0 0 0 0 0 0 0 0 28 0 0 0 0 0 0 0
951 954 676 447 274 167 75 0 0 38 60 94 47 5 0 0 3 12 18 8 54 59 55 41 32 11 0 0 0 0 0 0 0 0 0 0 0 0 4 0 0 0 0
843 1065 837 605 460 279 120 12 0 1 20 21 6 0 7 15 21 25 11 0 0 0 2 25 6 0 0 0 0 0 0 0 0 0 0 0 0 0 2 43 0 0 0
777 903 830 511 379 331 164 140 135 10 0 38 5 1 0 10 23 16 0 0 0 0 0 0 0 0 0 0 0 0 0 0 0 0 0 0 0 0 0 0 105 2 0
766 825 805 764 560 467 383 259 237 174 117 16 2 0 0 0 0 0 0 0 0 0 0 0 0 0 0 0 0 0 0 0 0 0 0 0 0 0 0 0 10 159 52
826 754 734 871 754 623 487 291 304 333 186 199 130 18 0 0 0 0 0 0 0 0 0 0 0 0 0 0 0 0 0 0 0 0 0 0 0 0 0 0 0 42 91
958 855 772 1017 996 918 595 424 346 330 287 201 246 181 142 24 17 2 0 0 0 0 0 0 0 0 0 0 0 0 0 0 0 0 0 0 0 0 20 30 26 34 89
950 848 817 890 1023 1076 812 665 536 472 467 435 421 279 243 124 24 9 0 0 0 3 18 5 0 0 2 13 6 2 30 20 20 243 11 12 36 40 39 32 35 79 92
937 1094 990 1022 957 1062 914 808 743 729 413 345 405 301 261 282 197 58 15 3 12 90 150 153 149 56 282 124 216 168 16 71 50 31 33 67 61 76 71 63 41 45 41
819 965 1165 1091 1074 917 964 941 797 578 614 494 339 371 715 445 468 358 277 205 222 200 327 136 327 210 421 153 81 77 19 25 7 4 20 73 85 81 75 39 41 58 0
804 973 1085 1084 1013 887 835 879 790 671 722 647 642 794 548 579 750 784 478 441 405 505 379 388 558 380 224 114 51 22 12 6 7 0 15 56 77 80 44 36 51 0 0
697 865 1003 1053 1102 1077 933 831 824 719 755 725 679 688 730 671 626 566 586 531 486 440 488 460 425 368 332 205 67 10 16 0 0 0 0 0 38 65 32 29 3 0 0
24 723 1006 1214 1223 1101 981 885 801 808 833 884 920 921 949 886 706 785 682 588 539 899 655 581 540 340 401 93 34 33 28 4 0 1 4 32 70 40 31 15 11 1 0
0 0 476 994 1354 1142 999 1087 1021 970 897 931 879 1097 1070 1004 868 754 598 503 679 797 689 479 200 37 4 0 0 1 21 55 34 8 0 0 12 15 11 23 9 5 0
0 0 0 57 891 1178 1020 1057 1137 1056 1040 1067 849 784 934 877 748 622 487 521 349 21 0 0 0 0 0 0 0 0 0 0 0 29 17 0 0 13 18 24 0 0 0
0 0 0 0 8 626 810 945 912 912 719 657 519 576 658 623 335 0 0 0 0 0 0 0 0 0 0 0 0 0 0 0 0 2 15 9 2 7 38 23 18 13 12

GFSSE_con_mucape_078.txt.gz
CAPE
863 1392 1902 1847 1303 1126 1035 921 706 291 90 504 305 193 126 254 553 601 556 660 550 197 10 6 8 4 0 0 0 18 143 125 85 0 0 309 403 310 159 0 0 0 1
1129 1456 1899 1815 1764 1443 1207 951 878 356 317 620 204 0 0 53 459 509 563 478 101 10 8 6 9 14 10 12 10 10 0 0 0 35 128 159 333 166 16 20 83 120 168
1317 1473 1520 1829 1614 1414 1165 687 339 50 254 767 138 1 0 4 99 225 263 85 6 10 5 3 5 11 8 113 139 67 7 45 60 68 3 0 0 13 13 23 19 14 100
1286 1429 1408 1765 1701 1278 830 552 195 6 318 744 238 2 1 5 16 14 22 11 8 10 6 2 0 0 0 0 0 31 93 89 17 0 0 0 0 0 0 2 7 6 3
1180 1274 1487 1611 1523 1300 715 399 129 175 742 839 442 1 4 8 13 41 17 17 9 6 6 2 0 0 0 0 0 35 79 19 0 0 0 0 0 0 0 0 0 4 7
1122 1336 1403 1443 1354 1237 825 596 276 447 880 1010 618 1 3 7 13 56 16 18 15 9 5 1 0 0 0 0 10 20 4 8 0 0 0 0 0 0 0 0 0 1 2
1164 1328 1279 1372 1263 1062 658 600 625 690 1135 855 435 11 0 6 8 40 9 8 6 6 2 24 36 7 4 1 6 10 8 0 0 0 0 0 0 0 0 0 0 0 1
1262 1283 1165 1229 1310 1209 682 609 736 836 1185 1175 892 104 0 0 3 5 34 36 4 15 29 25 25 19 0 0 0 0 0 0 0 0 0 0 6 0 0 0 0 0 0
1382 1231 1099 1079 973 725 623 477 789 890 1079 1396 1042 561 187 27 6 0 23 49 30 28 26 26 20 16 2 0 0 0 0 0 0 0 0 0 10 0 0 0 0 0 0
1330 1145 956 839 416 240 157 367 590 631 783 771 780 366 114 36 33 110 109 97 44 33 34 32 25 11 0 0 0 0 0 0 0 0 0 0 0 0 0 0 0 0 0
1111 1019 854 508 235 111 27 227 224 219 449 548 519 150 54 23 16 0 0 52 96 41 31 27 16 0 0 0 0 0 0 0 0 0 0 4 0 0 0 0 0 0 0
653 810 719 400 191 64 0 124 121 255 227 257 245 71 0 0 2 0 0 0 56 55 37 15 8 0 0 0 0 0 0 0 0 0 0 4 0 0 0 0 0 0 0
329 680 613 327 205 145 0 2 77 151 168 137 165 28 7 7 18 21 17 0 0 0 0 1 1 0 0 0 0 0 0 0 0 0 0 0 0 0 0 32 0 0 0
227 533 595 434 322 237 100 30 0 88 135 111 49 20 14 23 25 34 33 0 0 0 0 0 0 0 0 0 0 0 0 0 0 0 0 0 0 0 0 0 89 15 0
10 447 655 582 464 379 228 177 137 18 49 40 17 19 2 0 29 38 24 0 0 0 0 0 0 0 0 0 0 0 0 0 0 0 0 0 0 5 0 0 0 112 141
362 568 590 541 451 439 343 275 306 240 191 111 27 7 6 0 12 7 0 0 0 0 0 0 0 0 0 0 0 0 0 0 0 0 0 0 0 0 23 6 27 29 90
485 486 428 534 583 594 477 361 390 432 378 204 195 167 47 2 7 0 0 0 0 0 0 0 0 0 0 0 0 0 0 0 0 0 8 5 3 6 27 42 53 37 80
717 785 685 943 766 701 622 589 368 407 364 287 222 152 180 246 74 17 0 0 0 6 4 0 0 0 0 0 8 5 4 9 12 14 27 14 17 20 25 25 95 115 106
843 879 864 884 529 493 683 763 491 457 505 502 428 417 306 255 250 63 21 7 3 36 87 119 138 89 246 27 13 34 15 16 1 3 3 8 54 70 58 57 22 34 50
792 919 750 769 716 820 794 753 756 701 693 465 331 386 317 281 277 383 181 67 49 83 145 241 112 203 154 96 202 97 26 28 31 3 0 0 12 56 79 73 54 15 29
881 917 1011 908 906 845 940 1012 758 727 726 460 448 393 324 334 325 396 346 396 319 301 319 455 330 226 179 128 69 16 7 2 0 0 0 0 0 43 79 80 58 44 4
747 832 888 1072 1056 1029 872 775 861 771 628 411 530 576 536 508 531 560 491 548 519 452 399 346 399 391 387 205 45 23 7 0 0 0 0 0 0 12 41 43 48 39 12
676 811 892 1147 1083 1042 939 768 837 719 645 618 457 398 588 720 711 656 623 643 584 552 560 683 606 371 312 232 200 43 12 7 0 0 8 1 1 29 31 40 29 12 8
428 766 839 1054 1020 1083 939 825 807 766 634 675 601 610 698 823 775 759 749 699 659 481 397 304 547 247 186 72 19 7 5 55 27 6 0 0 0 4 12 12 15 11 18
0 80 553 722 925 966 930 805 675 633 550 553 530 612 472 491 646 788 749 726 626 548 429 371 204 59 0 0 0 0 0 0 0 17 8 0 0 1 17 12 7 10 28
0 0 0 168 495 707 824 713 680 534 494 465 519 542 473 457 477 546 516 370 306 174 0 0 0 0 0 0 0 0 0 0 0 0 3 2 0 0 2 30 27 10 20

GFSSE_con_mucape_081.txt.gz
CAPE
671 996 1637 1625 1161 1148 965 790 182 245 384 133 236 511 670 717 730 670 492 208 79 7 8 5 5 12 19 66 136 68 21 0 1 198 264 449 81 5 2 0 6 5 0
873 1081 1573 1746 1507 1142 1024 792 203 544 765 555 130 239 676 660 693 655 276 67 14 9 17 10 7 47 77 68 4 1 2 48 188 60 25 29 32 23 129 103 167 71 25
1081 1196 1334 1677 1605 1260 919 642 109 256 615 195 0 27 362 646 656 692 146 4 6 9 16 14 19 84 159 148 0 17 57 59 47 0 0 0 0 4 2 3 7 13 27
1121 1217 1185 1552 1322 1016 825 377 31 495 299 52 0 0 54 304 392 168 14 4 6 8 8 7 27 88 17 18 158 235 107 55 0 0 0 0 0 0 0 4 7 4 13
1202 1203 1199 1498 1234 963 655 230 38 706 305 31 2 5 15 76 14 13 2 7 5 3 2 1 0 0 0 58 139 76 53 23 0 0 0 0 0 0 0 0 1 4 7
1176 1246 1224 1252 1138 996 608 250 207 768 280 16 1 16 62 32 13 8 8 5 3 2 1 0 0 0 13 34 36 66 38 12 0 0 0 0 0 0 0 0 0 0 4
963 1133 1059 1260 1136 627 405 311 732 1098 480 57 2 8 12 31 9 6 4 2 4 2 0 0 0 0 12 26 24 21 25 0 0 0 0 0 0 0 0 0 0 0 1
997 1108 958 1005 1165 855 529 625 750 1076 968 333 28 6 10 39 11 10 5 6 24 44 49 41 27 10 0 0 2 2 0 0 0 0 0 0 0 0 0 0 0 0 0
1136 1029 903 897 826 767 657 714 882 1249 1327 890 312 28 51 61 55 10 28 42 54 59 41 28 14 0 0 0 0 0 0 0 0 0 0 0 0 0 0 0 0 0 0
947 940 768 752 503 307 249 504 653 812 1105 945 527 145 0 0 5 80 79 100 61 43 29 19 10 0 0 0 0 0 0 0 0 0 0 0 0 0 0 0 0 0 0
1134 914 691 455 154 74 93 456 466 524 708 659 294 58 0 0 0 24 0 42 79 46 24 19 8 0 0 0 0 0 0 0 0 0 0 0 0 0 0 0 0 0 0
997 898 632 287 150 51 88 300 186 223 339 720 323 60 25 11 0 0 0 18 70 67 44 24 8 0 0 0 0 0 0 0 0 0 0 0 0 0 0 0 0 0 0
815 789 497 336 253 92 49 221 204 308 279 702 381 61 10 9 6 0 0 0 0 3 0 2 0 0 0 0 0 0 0 0 0 0 0 0 0 0 0 18 0 0 0
440 451 438 365 274 241 88 134 208 252 154 214 306 153 12 17 22 18 27 0 0 0 0 0 0 0 0 0 0 0 0 0 0 0 0 0 0 0 0 0 79 6 0
232 158 162 280 284 320 271 158 92 191 230 187 197 109 55 57 55 47 43 15 0 0 0 0 0 0 0 0 0 0 0 0 0 0 0 0 0 0 2 0 0 63 264
76 37 59 201 299 367 326 270 203 23 147 173 167 114 65 43 32 51 51 13 0 0 0 0 0 0 0 0 0 0 0 0 0 0 0 0 1 2 21 25 34 39 79
80 35 254 180 346 349 374 310 276 296 240 176 72 32 61 29 16 58 41 0 0 0 0 0 0 0 0 0 0 0 0 0 1 5 6 11 17 11 10 23 73 60 98
272 228 420 503 465 365 412 337 274 371 459 436 273 237 241 162 157 47 18 6 0 0 0 0 0 0 0 0 0 2 17 9 10 10 13 9 22 21 26 30 113 176 253
434 405 442 437 496 504 493 484 371 426 395 530 388 263 228 194 278 243 92 19 8 10 30 54 84 100 26 8 91 6 6 172 55 57 10 5 19 24 66 91 64 63 73
595 530 395 360 471 557 546 231 107 386 494 439 437 457 264 220 192 287 267 94 41 26 73 125 164 31 84 109 131 186 55 18 1 0 0 0 0 0 28 67 79 52 37
619 620 689 581 544 605 544 429 386 427 499 538 501 379 376 521 316 277 290 275 132 105 154 219 212 167 167 114 129 76 7 9 0 0 0 0 0 0 0 69 68 73 61
563 642 732 683 748 665 529 566 525 530 536 589 570 392 460 394 351 340 323 349 372 341 334 334 480 307 297 227 103 55 12 0 0 0 0 0 0 0 13 57 45 60 66
598 655 711 773 823 609 729 686 593 460 400 449 374 524 467 395 451 393 445 415 444 421 544 426 444 503 278 215 168 94 21 1 0 0 0 0 0 0 18 38 19 41 21
1 567 679 703 741 757 824 708 531 562 378 333 399 325 379 331 316 375 484 392 360 367 405 431 356 283 242 179 23 41 12 11 8 0 0 0 0 0 3 10 21 23 19
0 0 546 680 760 814 784 676 609 571 449 308 215 190 127 138 181 269 284 396 388 345 319 369 395 241 182 122 38 0 0 0 0 6 2 0 0 0 0 3 12 9 16
0 0 32 485 612 791 781 742 680 588 460 335 259 181 103 73 116 115 180 177 211 302 292 315 234 0 0 0 0 0 0 0 0 0 0 0 0 0 0 0 0 7 15

GFSSE_con_mucape_084.txt.gz
CAPE
419 840 1610 1524 1056 925 874 291 248 58 548 498 920 1150 1081 913 738 523 278 52 9 6 10 16 104 216 145 33 12 2 71 299 238 149 192 118 22 163 190 97 75 3 0
581 1007 1599 1603 1438 1051 871 202 528 469 641 566 838 941 965 875 696 461 232 25 9 9 4 15 27 59 7 14 9 79 268 84 0 0 0 7 19 11 4 5 256 10 54
842 1031 1094 1418 1386 1256 892 221 448 648 367 477 734 952 796 822 782 278 44 8 11 11 10 84 5 8 117 46 90 99 115 0 0 0 0 0 0 1 4 2 8 14 20
907 997 938 1351 1298 1039 803 119 480 466 17 50 509 676 755 773 563 115 20 7 10 28 77 137 61 5 54 241 166 102 49 2 0 0 0 0 0 0 1 4 5 5 10
1054 1020 926 1355 1195 1033 529 55 516 476 27 0 181 641 665 632 293 109 6 8 8 45 87 116 74 51 151 228 171 65 23 0 0 0 0 0 0 0 0 0 1 4 4
1016 1042 1162 1281 1005 999 615 282 611 277 29 1 2 171 536 389 47 7 6 7 47 83 67 65 44 52 74 167 88 58 19 0 0 0 0 0 0 0 0 0 0 2 4
946 925 770 1037 1010 732 311 336 698 335 8 3 9 9 13 100 11 10 9 7 7 29 42 50 42 35 36 33 43 46 3 0 0 0 0 0 0 0 0 0 0 0 2
902 755 648 821 917 730 369 474 760 848 44 4 20 10 12 13 9 10 9 8 41 38 25 23 23 13 11 12 11 12 0 0 0 0 0 0 0 0 0 0 0 0 0
809 652 584 580 528 551 606 695 692 931 649 108 18 52 82 38 7 8 7 41 42 41 41 24 9 0 0 0 0 0 0 0 0 0 0 0 0 0 0 0 0 0 0
749 624 520 435 239 157 214 453 526 727 694 293 47 10 5 6 11 8 2 75 72 53 38 28 13 0 0 0 0 0 0 0 0 0 0 0 0 0 0 0 0 0 0
558 647 456 263 78 41 48 270 441 739 602 269 43 0 0 0 1 3 4 46 74 48 40 26 10 0 0 0 0 0 0 0 0 0 0 0 0 0 0 0 0 0 0
651 442 324 83 12 13 134 194 220 426 759 224 57 5 0 0 0 0 0 22 53 44 23 10 0 0 0 0 0 0 0 0 0 0 0 0 0 0 0 0 0 0 0
738 509 286 134 13 0 119 129 75 214 316 443 188 29 9 0 0 0 1 14 8 12 0 0 0 0 0 0 0 0 0 0 0 0 0 0 0 0 0 0 0 0 0
419 508 284 198 142 14 49 125 106 153 186 425 617 127 18 6 0 0 0 0 0 0 0 0 0 0 0 0 0 0 0 0 0 0 0 0 0 0 0 0 33 76 5
427 386 346 317 221 157 116 64 137 198 195 221 475 271 111 31 12 9 21 18 0 0 0 0 0 0 0 0 0 0 0 0 0 0 0 0 0 3 14 10 9 23 259
331 478 410 354 251 226 178 102 84 153 202 177 169 218 124 62 67 66 45 28 2 0 0 0 0 0 0 0 0 0 0 0 0 0 0 3 9 12 7 21 31 61 96
259 250 325 338 301 253 217 201 158 135 109 208 193 150 124 91 67 43 27 31 3 0 0 0 0 0 0 0 0 0 0 0 0 5 6 4 7 22 20 22 41 54 113
213 146 162 126 171 49 184 174 202 176 212 217 182 108 93 63 49 25 23 34 4 0 0 0 0 0 0 1 3 20 7 4 5 4 4 1 3 17 30 30 21 71 188
113 92 378 369 312 172 208 254 265 216 224 283 353 326 223 190 131 185 196 92 24 3 0 18 47 62 111 39 24 12 31 19 6 7 4 0 0 0 0 11 35 60 57
380 360 480 518 477 361 363 355 359 314 250 203 288 440 365 255 167 125 148 199 118 41 20 54 101 149 78 48 90 84 70 52 11 0 0 0 0 0 0 0 13 62 55
624 543 460 530 505 443 415 408 351 253 162 342 337 352 406 354 268 185 164 182 274 110 57 56 170 237 153 119 128 76 37 9 0 0 0 0 0 0 0 0 18 62 60
525 576 480 480 409 279 329 321 239 192 197 338 342 338 330 337 281 255 180 231 308 270 199 222 264 315 273 253 180 51 0 0 0 0 0 0 0 0 0 0 16 40 46
664 679 712 593 377 168 284 325 158 209 185 195 162 201 290 214 199 173 168 203 215 227 201 242 229 313 272 189 241 41 19 0 0 0 0 0 0 0 0 0 2 7 19
269 621 625 579 449 440 399 332 297 211 205 321 283 210 161 82 146 123 106 139 163 148 93 107 159 218 247 193 180 140 56 47 22 0 0 0 0 0 0 0 0 10 28
0 0 305 578 557 571 497 392 335 274 313 289 247 201 130 118 177 99 91 70 12 32 52 61 149 185 162 157 169 145 4 0 0 4 0 0 0 0 0 0 0 1 15
0 0 0 151 525 544 562 531 461 444 354 252 211 181 170 136 118 111 72 11 29 101 122 117 106 134 63 0 0 0 0 0 0 0 0 0 0 0 0 0 0 0 0

GFSSE_con_mucape_087.txt.gz
CAPE
627 963 1470 1457 840 651 424 109 169 653 902 953 921 1055 963 908 745 378 71 9 6 72 15 164 277 81 28 5 4 394 283 150 95 51 66 230 233 24 65 61 10 1 0
707 1027 1350 1543 1280 943 362 505 372 614 745 904 1434 976 1033 1012 619 267 36 14 5 12 64 206 156 15 10 9 221 308 89 1 0 0 0 0 20 3 0 17 92 46 253
920 1052 1056 1531 1479 1278 349 547 239 418 561 1003 1088 1014 1033 834 599 124 31 17 5 11 106 88 19 11 85 97 129 96 16 0 0 0 0 0 0 3 0 0 1 28 150
1048 1076 981 1343 1326 1165 311 526 460 294 292 587 945 1150 874 966 366 77 10 11 38 197 75 106 7 93 157 115 109 47 0 0 0 0 0 0 0 1 3 3 4 0 7
1086 1058 972 1238 1281 1112 385 727 581 88 47 418 572 989 876 818 247 7 11 134 308 251 141 15 106 264 296 373 63 24 0 0 0 0 0 0 0 0 0 1 2 2 1
1032 1049 1099 1199 1226 875 552 733 669 19 0 30 448 536 684 710 181 8 26 181 199 126 86 69 112 164 395 140 58 18 0 0 0 0 0 0 0 0 0 0 1 2 3
1001 1054 937 1218 1125 804 625 823 724 36 0 0 84 373 524 119 20 46 7 57 83 75 89 47 58 58 59 90 71 12 0 0 0 0 0 0 0 0 0 0 0 0 1
935 978 841 783 1012 722 572 803 599 27 0 6 71 167 148 10 10 4 32 5 50 68 63 45 32 33 33 29 40 13 0 0 0 0 0 0 0 0 0 0 0 0 0
948 782 668 732 597 421 590 691 647 217 40 42 19 74 19 25 6 7 4 6 67 68 66 54 21 14 8 8 2 0 0 0 0 0 0 0 0 0 0 0 0 0 0
833 694 691 460 202 126 391 385 539 292 44 63 27 27 18 3 4 10 3 99 80 66 53 34 15 0 0 0 0 0 0 0 0 0 0 0 0 0 0 0 0 0 0
629 474 427 154 52 58 323 375 414 264 34 0 0 0 6 11 6 1 1 56 100 60 38 23 6 0 0 0 0 0 0 0 0 0 0 0 0 0 0 0 0 0 0
513 461 378 107 7 8 132 391 568 505 151 0 0 0 0 0 3 1 0 13 63 49 25 5 0 0 0 0 0 0 0 0 0 0 0 0 0 0 0 0 0 0 0
410 559 180 8 0 16 56 84 390 489 476 53 0 0 0 0 10 10 22 39 44 8 0 0 0 0 0 0 0 0 0 0 0 0 0 0 0 0 0 0 0 0 0
629 352 218 40 4 16 34 15 181 356 499 99 41 3 0 0 0 0 0 2 0 0 0 0 0 0 0 0 0 0 0 0 0 0 0 0 0 0 1 0 4 124 63
568 243 171 139 62 50 66 31 56 134 152 284 166 147 15 0 8 4 0 0 0 0 0 0 0 0 0 0 0 0 0 0 0 0 0 0 0 0 0 12 20 33 120
227 390 230 153 134 45 123 120 113 73 77 133 205 245 164 61 16 9 20 24 23 0 0 0 0 0 0 0 0 0 0 0 0 0 0 0 1 12 11 14 21 35 82
296 305 437 239 187 175 185 160 158 152 124 64 102 215 171 110 58 53 53 48 29 5 0 0 0 0 0 0 0 0 0 0 0 0 0 2 0 0 3 0 36 43 99
233 250 288 288 290 220 229 240 231 142 72 113 133 149 162 127 84 58 43 28 23 15 0 0 0 0 0 0 1 12 8 1 16 11 2 5 3 0 0 0 4 36 98
160 101 55 151 261 310 285 260 272 210 156 148 127 150 151 132 83 62 23 48 32 11 0 0 0 1 12 44 32 19 37 4 26 14 24 3 0 0 0 0 0 0 18
56 101 80 158 214 228 287 341 310 269 267 229 219 215 246 260 198 138 99 124 114 102 40 13 9 57 103 81 42 65 129 140 118 81 0 0 0 0 0 0 0 0 17
96 52 134 400 288 359 436 383 177 275 306 312 213 171 206 305 331 205 148 89 85 136 145 56 37 89 137 91 208 179 75 51 35 3 0 0 0 0 0 0 0 0 22
178 150 387 457 353 410 399 296 268 235 307 374 331 205 240 218 192 192 215 166 124 137 180 134 106 230 253 189 238 230 20 2 0 0 0 0 0 0 0 0 0 6 34
202 204 257 216 363 489 353 300 241 235 176 158 146 203 219 174 148 65 113 153 130 86 88 104 130 203 241 220 134 115 57 17 0 0 0 0 0 0 0 0 0 0 10
304 394 399 172 213 313 260 294 258 129 144 145 78 58 123 77 46 81 102 115 100 61 28 72 50 69 125 165 68 55 50 74 101 8 0 0 0 0 0 0 0 0 0
150 271 416 276 326 395 286 332 179 185 168 165 105 113 127 38 99 133 133 91 67 39 30 14 4 12 30 94 75 60 77 16 0 2 0 0 0 0 0 0 0 0 0
6 0 0 137 633 558 451 387 358 302 260 204 152 125 110 143 119 146 142 101 68 11 1 0 0 15 51 58 65 19 0 0 0 0 0 0 0 0 0 0 0 0 0

GFSSE_con_mucape_090.txt.gz
CAPE
540 956 1551 1487 966 670 220 150 347 644 903 1549 1396 894 898 800 635 235 17 16 696 678 344 457 123 195 19 420 400 168 28 58 34 42 20 229 49 86 4 2 142 30 0
547 1002 1504 1504 1205 655 350 590 1028 1062 927 1554 1629 1110 1021 830 512 144 19 8 417 292 387 130 25 14 87 481 179 8 5 0 0 0 0 0 6 1 4 9 405 91 45
739 1020 1152 1314 1430 1051 861 647 664 704 1176 1558 1427 1418 990 787 370 125 21 70 135 376 296 11 16 15 198 306 24 1 0 0 0 0 0 0 0 0 0 0 0 42 87
777 1018 1066 1349 1563 1107 1006 561 658 706 820 1429 1385 1242 1272 808 291 164 26 35 272 250 164 14 82 100 116 67 31 0 0 0 0 0 0 0 0 0 1 0 0 0 38
750 978 981 1405 1462 1100 964 681 606 586 780 968 1235 1134 1069 974 210 77 206 379 509 291 131 112 286 195 133 54 1 0 0 0 0 0 0 0 0 0 0 0 0 0 0
893 924 1129 1344 1332 1069 1190 1154 471 362 617 641 872 867 1089 706 126 160 390 364 438 298 112 186 268 285 128 58 1 0 0 0 0 0 0 0 0 0 0 1 0 0 0
973 920 1032 1302 1411 1036 1330 928 397 225 440 639 701 689 764 287 16 11 114 211 165 132 74 111 135 174 129 82 13 0 0 0 0 0 0 0 0 0 0 0 0 0 0
919 755 951 1003 1050 950 1195 863 490 172 242 600 635 678 482 235 13 5 7 51 109 69 73 77 66 52 54 75 29 0 0 0 0 0 0 0 0 0 0 0 0 0 0
868 832 869 842 524 696 959 665 310 121 121 367 491 457 214 140 19 13 6 28 66 91 68 43 28 28 19 12 4 0 0 0 0 0 0 0 0 0 0 0 0 0 0
813 810 711 679 193 33 712 313 101 57 98 152 158 10 11 10 20 21 11 95 55 89 63 25 10 0 0 0 0 0 0 0 0 0 0 0 0 0 0 0 0 0 0
807 878 796 621 72 9 507 423 69 22 1 8 10 1 6 12 9 6 6 54 128 87 50 28 2 0 0 0 0 0 0 0 0 0 0 0 0 0 0 0 0 0 0
634 742 820 307 15 20 540 540 232 6 4 15 26 8 3 3 3 1 11 62 108 78 56 11 0 0 0 0 0 0 0 0 0 0 0 0 0 0 0 0 0 0 0
353 654 587 151 1 117 562 639 598 202 32 4 1 10 5 5 6 3 39 44 10 0 0 0 0 0 0 0 0 0 0 0 0 0 0 0 0 0 0 0 15 2 0
150 464 567 196 2 82 745 742 698 598 163 71 1 0 0 0 0 0 0 0 0 0 0 0 0 0 0 0 0 0 0 0 0 0 0 0 0 0 0 6 10 97 104
81 259 502 290 103 24 494 622 697 695 385 145 80 1 0 0 0 0 0 0 0 0 0 0 0 0 0 0 0 0 0 1 0 0 0 0 0 0 0 3 28 38 51
71 76 205 328 168 95 151 431 560 641 664 492 316 165 84 45 20 13 13 49 63 30 0 0 0 0 0 0 0 0 0 3 2 2 4 8 0 0 0 2 21 58 80
8 24 209 343 248 165 93 133 376 520 529 657 586 434 229 139 112 113 137 160 119 47 23 8 0 0 0 0 0 0 0 28 32 61 34 13 8 0 0 1 20 119 196
44 96 154 359 317 217 167 190 184 244 321 361 372 396 355 248 207 181 207 166 126 85 43 32 19 20 1 0 0 6 62 75 59 30 10 7 11 7 3 0 0 3 62
30 86 85 509 407 357 331 273 228 286 249 200 268 284 286 252 227 176 149 126 80 94 65 44 35 26 7 2 12 61 85 51 47 36 57 45 13 3 2 0 0 0 0
147 96 146 177 487 461 537 483 411 288 206 188 203 219 213 212 210 167 154 124 105 113 100 58 31 33 21 91 109 81 123 87 117 129 109 50 2 0 0 0 0 0 0
96 142 96 170 291 434 465 561 718 577 374 370 300 208 143 149 208 193 184 136 106 86 131 122 60 39 72 87 113 138 158 116 98 67 49 1 0 0 0 0 0 0 10
67 134 171 179 237 411 410 403 352 447 673 739 585 411 347 362 332 223 165 88 89 67 106 126 120 207 266 303 175 197 131 49 2 1 0 0 0 0 0 0 0 0 11
33 93 151 179 225 568 535 538 348 267 448 539 698 652 535 447 385 298 152 170 60 38 146 141 153 151 257 195 96 87 96 41 3 2 5 0 0 0 0 0 0 0 0
142 154 116 97 116 168 577 317 196 260 324 353 418 377 370 298 308 266 163 88 78 41 25 5 12 24 83 49 54 69 82 48 16 9 0 0 0 0 0 0 0 0 0
190 131 71 100 96 179 215 259 277 343 198 137 216 183 222 228 217 198 169 157 125 39 26 23 18 5 27 29 31 18 10 54 109 88 0 0 0 0 0 0 0 0 0
148 44 110 238 228 308 315 197 245 292 416 228 176 163 160 200 287 231 285 347 153 97 60 56 21 0 0 1 1 13 20 13 15 0 0 0 0 0 0 0 0 0 0

GFSSE_con_mucape_093.txt.gz
CAPE
832 1094 1758 1504 942 684 491 453 408 696 1705 1713 1318 1070 985 854 550 208 228 775 691 762 487 393 465 182 522 325 127 23 56 35 28 20 72 150 102 8 23 421 195 1 0
873 1014 1596 1649 1176 619 415 560 816 792 1667 1497 1603 1050 981 835 469 96 211 471 864 708 214 212 121 279 276 35 8 6 1 0 0 0 0 0 33 1 0 15 408 7 1
783 1083 1101 1623 1297 980 788 1058 1082 956 1567 1543 1606 1561 998 807 409 61 96 585 926 487 103 13 10 517 144 6 1 0 0 0 0 0 0 0 0 0 0 0 231 131 125
940 1154 976 1568 1429 1085 965 901 890 1200 1510 1437 1511 1636 1052 783 288 45 332 655 810 571 48 136 179 248 42 14 0 0 0 0 0 0 0 0 0 0 0 0 1 17 229
1027 1164 991 1554 1582 1304 1015 857 809 1087 1359 1330 1222 1142 1101 1080 287 60 483 798 819 549 284 117 125 120 63 1 0 0 0 0 0 0 0 0 0 0 1 0 0 1 5
787 824 1143 1372 1500 1384 1126 1216 918 964 1284 1231 1180 995 911 920 648 473 498 546 306 204 247 440 172 138 55 0 0 0 0 0 0 0 0 0 0 0 0 0 0 0 0
712 846 1156 1479 1432 1421 1071 1246 1061 967 1181 1200 979 865 809 714 28 14 525 373 246 237 210 306 240 108 79 6 0 0 0 0 0 0 0 0 0 0 0 0 0 0 0
911 929 1081 1060 1223 1383 1309 865 895 887 1004 1010 998 893 820 456 164 52 198 385 267 99 135 136 143 117 93 28 0 0 0 0 0 0 0 0 0 0 0 0 0 0 0
787 830 893 967 743 973 981 575 492 834 899 783 743 744 540 182 132 12 138 346 202 91 98 76 60 40 46 51 1 0 0 0 0 0 0 0 0 0 0 0 0 0 0
661 914 815 937 612 171 676 357 209 286 412 503 429 178 36 9 23 107 90 204 226 172 85 37 30 23 6 0 0 0 0 0 0 0 0 0 0 0 0 0 0 0 0
172 367 440 856 278 9 559 187 39 81 81 201 102 85 39 9 9 8 12 63 145 121 51 23 5 0 0 0 0 0 0 0 0 0 0 0 0 0 0 0 0 0 0
120 110 291 789 286 8 438 87 0 0 0 23 10 19 0 6 3 3 4 46 111 101 68 26 0 0 0 0 0 0 0 0 0 0 0 0 0 0 0 0 0 0 0
24 54 4 371 307 94 517 318 2 0 0 0 0 0 0 1 0 4 10 28 42 13 1 1 0 0 0 0 0 0 0 0 0 0 0 0 0 0 0 0 0 0 0
1 3 6 92 88 62 643 264 11 3 5 24 12 1 6 9 2 1 0 0 0 0 0 0 0 0 0 0 0 0 0 0 0 0 0 0 0 0 0 3 27 45 136
1 30 0 183 42 461 626 506 250 28 20 5 6 3 2 2 0 0 0 0 0 0 0 0 0 0 0 0 0 0 0 3 10 14 7 0 0 0 0 0 15 42 81
32 33 91 139 71 261 418 497 487 352 28 65 4 0 0 0 0 0 0 0 0 0 0 0 0 0 0 0 0 0 0 6 9 10 16 12 2 0 0 11 38 104 139
26 5 9 59 185 278 308 433 570 568 214 298 310 51 34 39 32 31 11 71 79 64 14 0 0 0 0 0 0 0 0 5 23 22 17 38 24 5 0 9 27 100 116
19 5 27 145 235 263 232 442 518 624 631 812 688 528 260 169 144 128 132 163 159 85 49 30 23 21 8 0 0 0 7 42 36 21 21 12 18 15 7 7 47 0 0
69 5 10 150 396 248 253 299 261 351 556 588 531 521 529 384 306 201 212 194 119 144 80 41 40 34 27 19 0 13 64 81 23 9 18 34 51 47 24 0 0 0 0
61 28 47 96 328 290 313 345 279 299 237 208 256 283 319 274 252 221 132 136 115 166 137 102 45 42 32 23 25 38 72 44 74 76 45 36 21 20 0 0 0 0 0
98 134 89 99 107 261 341 349 361 309 274 277 299 332 349 346 332 313 295 241 213 248 276 194 124 92 87 106 265 198 124 89 109 67 71 6 0 0 0 0 0 0 0
90 88 68 70 120 236 280 433 319 484 532 462 471 390 403 335 288 288 298 320 189 123 73 62 140 159 225 404 261 301 176 111 70 2 18 4 0 0 0 0 0 0 0
86 65 40 52 146 177 231 329 411 422 459 724 616 444 502 481 542 481 457 353 186 84 53 81 78 85 209 283 220 197 115 85 13 11 25 6 0 0 0 0 0 0 0
40 57 100 50 106 156 231 420 296 152 192 257 243 356 318 333 391 416 395 366 287 184 190 101 72 36 36 59 47 49 7 3 0 0 1 0 0 0 0 0 0 0 0
22 47 21 90 99 116 131 125 91 63 84 116 175 178 234 193 302 364 363 250 246 175 141 73 12 18 17 56 68 75 22 2 9 11 13 0 0 0 0 0 0 0 0
87 124 57 99 61 39 72 103 90 135 185 138 115 50 173 255 347 264 304 270 238 199 64 34 18 36 33 23 82 44 20 35 45 43 10 0 0 0 0 0 0 0 0

GFSSE_con_mucape_096.txt.gz
CAPE
885 942 1766 1334 979 767 627 509 968 1938 1772 1692 1274 942 1048 863 698 542 353 409 635 601 659 511 538 402 355 36 21 102 110 86 89 41 73 124 148 170 217 134 170 0 90
1107 1059 1750 1627 1231 803 742 956 931 1723 1800 1515 1718 908 1026 762 407 667 975 672 625 545 661 340 599 135 11 7 3 0 0 0 0 0 0 0 71 35 63 175 252 25 298
1086 1033 1385 1679 1458 1185 1104 1079 1025 1574 1865 1722 1746 1226 1117 739 289 598 704 828 696 704 295 221 557 179 2 1 0 0 0 0 0 0 0 0 0 4 4 31 446 267 337
1074 961 965 1712 1508 1180 1119 1173 1118 1327 1859 1744 1713 1563 1285 738 261 524 779 1083 744 250 234 531 279 1 0 0 0 0 0 0 0 0 0 0 0 1 0 1 19 57 28
1111 857 1041 1639 1512 1245 1338 1295 1208 1223 1786 1686 1458 1519 1160 920 203 287 950 1030 423 18 98 328 139 0 0 0 0 0 0 0 0 0 0 0 0 0 2 1 0 1 2
1173 991 1366 1551 1456 1260 1393 1277 1174 1346 1302 1509 1382 1354 1065 985 629 810 873 497 196 272 361 161 136 11 0 0 0 0 0 0 0 0 0 0 0 0 0 0 0 0 0
1116 1102 1130 1522 1469 1328 1324 1360 1387 1398 1399 1337 1312 1030 827 842 568 688 579 380 131 391 793 187 107 39 0 0 0 0 0 0 0 0 0 0 0 0 0 0 0 0 0
1000 1090 1008 1203 1303 1244 1273 1299 1253 1475 1537 1189 1102 818 745 659 13 466 189 77 143 311 405 331 138 91 24 0 0 0 0 0 0 0 0 0 0 0 0 0 0 0 0
1009 1133 907 830 937 904 1061 906 986 1255 1356 1108 808 616 499 273 8 18 91 82 126 244 207 191 137 121 84 21 0 0 0 0 0 0 0 0 0 0 0 0 0 0 0
767 675 748 769 593 682 401 394 474 594 705 645 387 191 24 13 16 14 38 60 176 233 141 128 63 37 34 24 0 0 0 0 0 0 0 0 0 0 0 0 0 0 0
641 695 932 585 379 344 393 162 156 281 303 244 245 141 13 3 9 8 11 20 127 124 90 42 22 14 0 0 0 0 0 0 0 0 0 0 0 0 0 0 0 0 0
347 249 202 355 321 127 539 94 4 159 235 244 173 160 15 5 3 5 8 16 101 80 52 40 8 0 0 0 0 0 0 0 0 0 0 0 0 0 0 0 0 0 0
222 257 108 1 27 96 386 200 0 0 124 370 286 182 24 0 0 4 3 10 7 0 2 6 1 0 0 0 0 0 0 0 0 0 0 0 0 0 0 0 9 4 0
12 5 14 24 40 6 178 152 12 0 0 242 373 57 22 0 0 0 0 1 0 0 0 0 0 0 0 0 0 0 0 0 0 0 0 0 0 0 0 0 13 23 100
25 0 13 0 21 5 63 71 10 0 0 0 42 34 0 0 0 0 0 0 0 0 0 0 0 0 0 0 0 0 0 0 0 2 1 0 0 0 0 0 0 12 33
63 39 0 0 9 7 21 24 26 0 0 0 0 0 1 0 0 0 0 0 0 0 0 0 0 0 0 0 0 0 0 0 4 8 0 4 7 4 7 15 26 105 168
53 74 26 0 14 95 37 99 153 9 0 1 0 3 0 0 0 0 0 0 0 0 0 0 0 0 0 0 0 0 0 0 1 22 21 14 9 0 6 88 123 140 91
104 143 101 53 10 62 70 85 172 257 33 2 0 0 0 0 0 0 0 5 55 62 30 13 0 0 0 0 0 0 0 9 21 22 18 7 5 7 1 20 95 130 8
59 141 87 36 1 51 45 108 129 216 229 257 158 42 48 34 15 41 74 113 123 97 53 29 20 9 5 0 0 0 1 29 75 30 2 15 9 7 0 0 0 0 0
99 78 78 52 0 0 66 88 104 147 247 333 358 357 243 223 159 140 177 172 141 127 99 52 28 34 16 14 8 0 13 52 86 4 20 23 18 8 0 0 0 0 0
76 49 82 45 153 21 137 134 151 166 85 173 287 379 462 355 301 173 146 151 130 154 166 144 115 72 34 30 36 121 106 37 22 53 34 25 0 0 0 0 0 0 0
80 39 83 42 116 117 224 193 223 177 219 240 282 352 370 336 322 312 299 281 273 257 257 237 169 129 102 63 105 102 58 66 74 55 28 1 0 0 0 0 0 0 0
0 62 43 56 72 113 157 213 223 229 248 382 426 355 357 320 318 344 341 349 295 265 250 256 167 128 109 90 84 91 33 34 50 28 0 5 9 0 0 2 0 0 0
6 31 41 32 93 91 115 91 113 120 119 153 180 178 184 211 300 316 380 359 273 197 172 165 164 147 78 41 29 45 48 58 41 24 6 0 8 5 1 0 0 0 0
51 41 72 58 73 67 93 84 87 63 104 127 136 119 135 95 142 203 302 307 292 204 171 185 144 95 24 5 7 53 53 54 84 35 23 18 8 0 0 0 0 0 0
10 32 26 50 64 50 72 43 66 59 85 96 81 76 89 85 129 182 185 191 200 154 152 162 117 57 3 10 18 31 41 56 93 36 8 3 0 0 0 0 0 0 0

GFSSE_con_mucape_099.txt.gz
CAPE
552 1148 1772 1498 950 932 1280 2020 2298 2072 1860 1538 830 856 1252 1204 862 236 96 70 186 622 732 690 612 32 10 180 206 114 106 158 138 46 42 220 308 170 44 0 12 136 352
698 1132 1634 1536 1322 1164 1204 1678 2094 1842 1590 1562 800 844 1094 994 664 410 496 594 732 630 694 604 188 8 4 6 40 4 0 0 0 0 0 8 200 304 242 132 536 336 356
850 1124 1308 1586 1464 1342 1288 1242 1854 1944 1778 1576 1122 1148 966 644 724 784 856 754 626 564 674 288 4 6 0 0 0 0 0 0 0 0 0 0 2 44 126 340 506 356 408
1018 1176 1158 1630 1524 1420 1322 1178 1466 1922 1876 1692 1420 1488 1306 602 816 938 794 916 836 470 642 288 10 0 0 0 0 0 0 0 0 0 0 0 0 2 12 66 42 8 64
1114 1146 1238 1610 1522 1362 1254 1198 1200 1908 1828 1804 1590 1712 1436 968 794 620 838 630 394 660 726 108 0 0 0 0 0 0 0 0 0 0 0 0 0 2 2 0 2 6 10
970 1072 1478 1558 1482 1352 1456 1352 1096 1398 1908 1850 1638 1528 1204 952 914 1104 894 356 224 212 572 124 0 0 0 0 0 0 0 0 0 0 0 0 0 0 0 0 0 0 0
974 1078 1376 1612 1502 1454 1536 1416 1350 1310 1596 1516 1392 1480 1012 988 1040 1110 530 202 74 282 270 82 0 0 0 0 0 0 0 0 0 0 0 0 0 0 0 0 0 0 0
1078 1204 1320 1446 1426 1410 1364 1438 1438 1450 1416 1300 1188 1272 888 1008 1056 934 434 132 74 554 210 54 40 0 0 0 0 0 0 0 0 0 0 0 0 0 0 0 0 0 0
1232 1180 1222 1254 1180 1118 1268 1328 1342 1314 1282 1190 998 868 608 604 670 700 18 42 230 732 606 228 76 48 30 4 0 0 0 0 0 0 0 0 0 0 0 0 0 0 0
1148 1110 1078 1070 942 834 848 792 774 1068 1098 832 580 304 160 2 78 18 12 20 296 458 350 252 100 96 66 32 0 0 0 0 0 0 0 0 0 0 0 0 0 0 0
764 950 890 756 666 636 562 492 482 600 760 528 276 102 58 0 0 8 4 16 174 162 140 60 44 30 14 0 0 0 0 0 0 0 0 0 0 0 0 0 0 0 0
338 550 696 688 450 502 408 232 336 376 364 338 228 144 152 4 10 10 6 14 50 50 38 34 24 2 0 0 0 0 0 0 0 0 0 0 0 0 0 0 0 0 0
290 208 284 452 240 222 308 80 204 410 346 346 306 222 158 14 6 6 8 16 2 0 0 2 2 0 0 0 0 0 0 0 0 0 0 0 0 0 0 0 0 0 0
184 154 120 222 182 92 156 134 18 366 402 376 282 164 106 18 4 8 4 4 2 0 0 0 0 0 0 0 0 0 0 0 0 0 0 0 0 0 0 0 20 24 90
242 158 100 58 98 60 26 58 36 60 302 344 306 178 76 16 0 0 0 0 0 0 0 0 0 0 0 0 0 0 0 0 0 0 0 0 0 8 0 0 0 10 22
122 100 18 42 26 58 18 68 16 6 62 120 288 132 126 28 2 0 0 0 0 0 0 0 0 0 0 0 0 0 0 0 0 2 0 0 2 2 14 2 34 58 92
104 98 56 0 0 0 10 4 8 34 26 8 10 46 124 106 0 0 0 0 0 0 0 0 0 0 0 0 0 0 0 0 0 2 8 2 4 6 0 78 174 126 126
132 124 92 68 18 0 0 18 60 16 6 50 0 0 98 64 12 0 0 0 0 0 0 0 0 0 0 0 0 0 0 0 4 14 6 12 12 8 0 34 146 188 84
126 136 146 182 64 60 48 86 84 26 10 58 20 0 14 94 0 0 0 0 0 0 6 4 0 0 0 0 0 0 0 0 2 24 6 2 8 8 0 0 0 2 0
52 172 132 178 162 60 74 124 70 80 70 86 134 100 46 24 0 0 0 0 42 78 56 32 28 20 18 16 4 0 0 2 26 60 20 10 8 2 0 0 0 0 0
24 110 140 84 94 72 16 34 66 96 68 104 226 190 108 42 0 30 78 124 164 152 130 72 58 40 42 20 12 46 50 20 14 26 22 26 16 4 4 0 0 0 0
8 0 54 38 56 38 72 64 66 62 68 108 132 290 324 222 168 210 258 236 214 182 150 144 150 142 106 96 100 80 36 38 72 50 30 42 50 54 0 0 0 0 0
0 0 0 68 32 6 84 102 56 58 38 88 100 116 192 310 394 328 268 260 224 198 190 184 184 134 128 158 136 120 36 2 16 6 30 40 48 18 2 2 0 0 2
78 70 44 70 82 94 100 90 34 46 2 56 88 72 104 148 176 224 258 266 262 286 244 184 170 114 96 124 80 124 90 4 2 0 12 6 22 14 18 12 8 2 0
80 48 70 18 74 64 74 42 46 32 66 56 62 66 56 74 134 156 198 222 226 198 170 126 116 126 128 92 76 54 40 42 12 22 42 34 26 4 6 0 0 0 0
26 14 16 62 56 68 66 56 74 58 66 78 96 108 102 88 82 112 120 148 190 180 126 102 126 124 124 122 50 74 90 58 30 30 42 24 6 0 0 6 0 0 0

GFSSE_con_mucape_102.txt.gz
CAPE
567 1079 1844 1786 1815 2383 2416 2267 2034 1809 1678 1342 1092 1162 849 582 158 40 206 450 586 691 722 571 32 103 81 45 46 177 237 57 63 71 186 437 107 3 97 308 347 167 101
658 1150 1719 1717 1865 2174 2352 2321 2128 1817 1701 1530 1313 1185 1296 618 193 35 206 510 758 745 668 305 22 14 185 17 4 3 1 0 0 0 1 115 383 181 374 340 497 220 120
940 1147 1292 1574 1648 1915 2255 2290 2090 1918 1624 1130 683 1194 1286 807 398 488 374 843 735 782 465 46 6 7 37 3 0 0 0 0 0 0 0 0 4 310 176 187 443 221 407
1002 1121 1056 1533 1534 1545 1785 2135 2041 1801 1698 1495 1236 1362 1187 648 749 1103 904 755 847 725 174 5 2 0 0 0 0 0 0 0 0 0 0 0 0 70 38 30 16 71 122
952 1039 1109 1587 1620 1533 1313 1752 2035 1985 1736 1561 1377 1511 1351 1303 1086 1011 964 1029 935 926 204 1 0 0 0 0 0 0 0 0 0 0 0 0 0 3 8 5 6 14 2
970 999 1409 1594 1645 1546 1491 1340 1828 2064 1916 1732 1538 1324 1225 1140 1179 1054 964 768 999 661 59 0 0 0 0 0 0 0 0 0 0 0 0 0 0 0 1 0 0 0 2
949 1120 1391 1688 1628 1579 1534 1349 1403 1720 1917 1800 1660 1512 1151 1166 1173 1003 599 262 803 675 87 0 0 0 0 0 0 0 0 0 0 0 0 0 0 0 0 0 0 0 0
911 1281 1320 1501 1520 1582 1557 1469 1285 1642 1625 1733 1627 1243 1056 1056 1305 841 461 287 503 494 88 0 0 0 0 0 0 0 0 0 0 0 0 0 0 0 0 0 0 0 0
1086 1251 1323 1230 1219 1298 1313 1337 1358 1364 1597 1328 1449 1193 897 778 1112 628 362 169 300 513 139 26 0 0 0 0 0 0 0 0 0 0 0 0 0 0 0 0 0 0 0
1150 1211 1221 1092 972 894 1031 1131 1168 1251 1144 913 952 788 371 435 629 470 57 79 661 692 411 290 61 32 22 0 0 0 0 0 0 0 0 0 0 0 0 0 0 0 0
945 1095 1099 954 777 701 839 818 871 988 948 742 632 497 277 109 110 6 2 7 244 521 475 241 149 132 61 4 0 0 0 0 0 0 0 0 0 0 0 0 0 0 0
280 918 1002 965 684 596 684 673 621 818 823 585 414 262 129 25 0 0 0 7 120 135 122 98 59 37 0 0 0 0 0 0 0 0 0 0 0 0 0 0 0 0 0
130 362 443 733 476 474 443 502 489 558 681 582 333 229 206 47 1 7 0 12 3 6 0 3 5 0 0 0 0 0 0 0 0 0 0 0 0 0 0 0 0 0 0
81 177 181 275 409 292 216 229 409 478 521 508 389 275 220 104 21 35 0 6 2 0 0 0 0 0 0 0 0 0 0 0 0 0 0 0 0 0 0 9 15 26 89
29 78 145 151 137 169 134 82 104 434 451 410 368 294 120 208 165 124 3 2 3 0 0 0 0 0 0 0 0 0 0 0 0 0 0 0 0 23 33 0 7 11 14
4 46 102 123 128 109 97 75 31 55 149 285 344 327 261 132 215 1 1 7 4 0 0 0 0 0 0 0 0 0 0 0 0 0 0 0 0 0 70 32 19 35 53
0 37 46 136 155 134 95 75 61 39 57 110 162 134 254 242 162 15 5 42 7 13 0 0 0 0 0 0 0 0 0 0 0 0 0 0 1 3 5 39 129 127 99
5 32 31 37 29 40 76 93 71 38 49 35 54 97 150 115 155 28 3 29 34 6 0 0 0 0 0 0 0 0 0 0 0 0 0 0 1 4 4 16 172 203 124
9 71 61 86 60 19 1 12 24 21 64 22 24 29 54 53 63 14 4 1 23 0 0 0 0 0 0 0 0 0 0 0 0 4 8 1 1 4 6 0 0 0 0
132 166 149 133 75 27 25 25 23 69 13 27 13 4 0 5 56 34 40 16 0 1 0 0 0 0 0 0 3 3 0 0 8 9 3 0 0 4 11 5 0 0 0
207 251 233 195 219 95 68 110 117 82 49 13 2 2 32 24 83 92 73 60 65 0 0 29 41 35 48 58 42 36 19 13 22 47 5 6 0 1 2 7 0 0 0
147 151 264 181 186 148 89 98 164 118 100 28 1 15 7 60 149 91 66 42 5 40 118 98 83 92 97 83 66 53 58 66 83 34 14 0 3 9 11 6 14 0 0
91 95 6 3 59 32 58 106 166 161 158 65 6 6 43 92 149 117 82 68 87 167 200 206 151 152 113 116 87 59 48 32 29 63 73 19 18 12 35 31 9 3 14
113 90 13 0 5 5 52 117 78 92 87 30 3 10 68 148 196 243 207 228 276 269 246 277 279 262 229 158 110 122 104 54 23 0 9 60 53 42 42 51 6 9 9
60 37 30 42 3 0 8 93 70 42 51 24 3 26 57 80 88 156 191 231 217 214 174 143 131 126 119 98 81 95 129 83 78 66 21 17 38 48 29 24 8 0 0
70 70 41 69 39 3 24 74 61 34 38 36 33 36 46 67 81 102 114 84 119 136 123 107 108 123 111 97 99 91 107 59 59 63 13 45 52 45 32 16 0 0 0

GFSSE_con_mucape_105.txt.gz
CAPE
646 1191 2073 2173 2131 2274 1981 1643 1715 1731 1702 1566 1174 1092 911 576 157 184 210 239 401 681 435 50 48 29 169 294 275 57 69 92 191 294 429 154 53 268 407 303 324 0 3
662 1209 1889 2186 2304 2338 2254 2077 1920 1722 1626 1611 1231 900 599 195 91 492 269 828 874 782 364 17 78 20 36 45 24 6 11 8 16 61 80 212 322 471 417 255 480 16 3
874 1235 1414 1973 2243 2343 2357 2229 2009 1856 1733 1629 1519 1088 595 170 67 638 711 913 813 720 276 13 44 18 9 6 4 2 0 0 0 0 0 20 93 73 277 297 203 302 324
1007 1147 1156 1831 2140 2311 2274 2161 1918 1912 1642 1467 1496 1669 912 328 133 529 1013 910 804 308 41 5 7 8 5 1 0 0 0 0 0 0 0 0 11 19 14 20 110 120 69
1004 1084 1091 1704 1944 2167 2231 2169 1907 1725 1592 1285 1568 1492 1325 870 714 868 926 909 910 430 10 1 0 0 0 0 0 0 0 0 0 0 0 0 0 7 5 6 5 5 7
960 989 1301 1603 1727 1775 2066 1879 1799 1636 1456 1381 1576 1528 1299 1562 1188 1113 985 923 730 284 0 0 0 0 0 0 0 0 0 0 0 0 0 0 0 1 0 0 0 2 3
871 986 1337 1699 1730 1638 1640 1915 1900 1866 1605 1457 1371 1547 1261 1240 1117 983 1038 888 676 152 0 0 0 0 0 0 0 0 0 0 0 0 0 0 0 0 0 0 0 0 0
845 1094 1308 1576 1638 1615 1479 1468 1881 1882 1738 1579 1443 1189 1176 1170 1125 1114 1158 976 517 51 0 0 0 0 0 0 0 0 0 0 0 0 0 0 0 0 0 0 0 0 0
986 1230 1265 1315 1333 1355 1303 1174 1296 1774 1653 1462 1339 1218 981 775 890 655 581 965 556 90 0 0 0 0 0 0 0 0 0 0 0 0 0 0 0 0 0 0 0 0 0
1053 1213 1153 1219 1211 1160 1055 1067 988 1224 1419 1285 1155 887 658 509 528 441 221 460 667 383 160 38 0 0 0 0 0 0 0 0 0 0 0 0 0 0 0 0 0 0 0
536 876 1185 1071 1060 938 941 933 1019 982 1221 1029 965 754 503 341 261 72 0 26 341 407 376 96 38 52 22 0 0 0 0 0 0 0 0 0 0 0 0 0 0 0 0
81 530 737 797 744 643 775 852 862 978 912 802 668 598 352 218 176 0 0 21 359 368 354 331 225 138 4 0 0 0 0 0 0 0 0 0 0 0 0 0 0 0 0
1 33 258 537 544 453 638 733 690 766 791 651 563 433 271 117 140 4 0 0 54 40 23 53 26 0 0 0 0 0 0 0 0 0 0 0 0 0 0 0 0 0 0
0 0 23 67 201 266 277 477 463 516 588 622 516 425 310 90 102 26 0 0 3 1 7 14 0 0 0 0 0 0 0 0 0 0 0 0 7 1 0 30 85 99 84
0 0 9 45 80 180 206 200 303 430 363 423 483 421 331 129 281 88 19 1 9 4 6 5 0 0 0 0 0 0 0 0 0 0 0 0 0 101 100 22 95 128 94
0 0 0 37 116 96 103 121 216 213 282 329 416 387 327 232 269 119 89 4 0 3 3 1 0 0 0 0 0 0 0 0 0 0 0 0 0 1 111 74 67 96 69
0 0 0 12 89 112 91 84 87 127 162 216 299 274 279 258 90 200 159 128 0 21 11 0 0 0 0 0 0 0 0 0 0 0 0 0 0 0 2 59 160 123 130
0 0 0 5 48 87 98 117 60 54 99 145 188 124 189 195 163 168 161 37 62 42 24 16 0 0 0 0 0 0 0 0 0 0 0 6 0 0 0 3 142 211 156
0 0 0 0 33 104 109 66 59 56 61 121 144 165 142 121 88 133 123 61 104 78 50 58 1 0 0 0 0 0 0 0 0 0 0 14 12 0 0 5 0 16 0
0 0 0 0 4 0 0 4 16 36 34 26 42 87 119 98 99 77 41 69 113 193 93 41 1 0 0 0 0 0 0 0 0 0 7 16 12 0 3 5 5 0 0
0 0 31 46 43 43 14 0 0 0 3 1 3 15 58 110 74 24 12 23 20 27 43 49 0 10 0 0 0 2 0 1 0 0 4 29 15 10 2 0 0 0 1
0 42 108 142 157 96 52 3 0 0 1 19 15 17 25 43 50 12 8 5 3 19 98 22 6 0 1 24 34 34 24 13 7 10 4 18 2 4 17 11 0 15 12
66 103 171 225 205 206 175 125 68 47 10 16 31 38 34 23 52 22 34 25 7 3 32 68 59 42 55 82 85 67 35 17 16 20 45 42 50 20 53 65 30 37 33
56 117 189 197 207 205 181 170 85 73 61 40 40 37 35 18 40 38 60 88 28 47 131 142 99 161 155 137 120 114 89 41 22 20 1 37 81 66 60 58 45 39 35
55 89 125 103 130 163 108 79 123 85 77 84 68 40 42 28 49 84 99 86 74 71 150 191 179 204 197 159 105 87 76 86 85 63 27 26 39 47 62 63 55 63 8
39 61 65 60 13 11 45 29 59 43 52 53 38 49 21 21 54 54 82 102 124 160 160 132 137 142 131 87 78 67 46 50 46 63 48 44 41 31 57 51 50 10 17

GFSSE_con_mucape_108.txt.gz
CAPE
610 1310 2193 2330 2069 1864 1704 1701 2032 2092 2091 2040 1602 1324 1018 619 252 59 173 304 615 575 32 87 7 328 76 26 21 144 176 201 278 138 238 422 410 322 385 21 0 0 2
641 1474 2113 2362 2238 2092 1984 1970 1978 1953 1873 1870 1285 1111 928 471 142 137 151 522 716 454 16 25 62 57 395 265 11 15 15 119 121 156 121 221 379 418 319 145 53 6 1
851 1467 1682 2368 2395 1980 1961 1934 1927 1876 1811 1747 1239 811 519 195 300 337 796 927 764 331 41 41 10 15 13 6 3 8 10 8 0 0 0 2 8 326 329 356 473 281 343
1055 1339 1144 2368 2490 2081 1973 1997 1945 1888 1825 1665 1360 1114 513 186 560 725 1060 908 749 513 116 269 12 8 7 2 0 0 0 0 0 0 0 0 0 5 3 3 9 50 29
1109 1148 1112 2269 2410 2222 2104 1947 1992 1920 1819 1725 1825 1506 953 508 793 936 1092 845 736 270 171 34 7 4 0 0 0 0 0 0 0 0 0 0 0 3 4 4 4 2 3
1091 1075 1352 1992 2248 2263 1916 1980 1971 1917 1657 1662 1712 1379 1227 1067 779 1320 981 815 507 213 13 2 0 0 0 0 0 0 0 0 0 0 0 0 0 1 1 1 3 4 4
1020 1010 1327 1847 2100 2253 1948 2063 1963 1830 1748 1680 1629 1473 1255 1500 1550 1237 780 669 335 26 0 0 0 0 0 0 0 0 0 0 0 0 0 0 0 0 0 0 0 0 0
922 1007 1304 1579 1797 1965 2126 1987 1966 1998 1810 1663 1595 1502 1394 1296 1125 964 865 787 236 0 0 0 0 0 0 0 0 0 0 0 0 0 0 0 0 0 0 0 0 0 0
723 980 1201 1337 1416 1476 1552 1854 1897 1981 1879 1693 1496 1355 1288 818 829 1069 925 725 181 0 0 0 0 0 0 0 0 0 0 0 0 0 0 0 0 0 0 0 0 0 0
395 609 1016 1210 1300 1313 1158 1125 1587 1665 1540 1514 1300 1066 832 568 492 659 714 693 475 63 5 0 0 0 0 0 0 0 0 0 0 0 0 0 0 0 0 0 0 0 0
92 392 718 1084 1092 1118 1058 919 862 1380 1400 1261 1104 924 694 474 382 250 469 510 386 138 47 19 4 0 0 0 0 0 0 0 0 0 0 0 0 0 0 0 0 0 0
2 24 423 789 814 951 847 817 803 729 1107 1091 999 835 615 428 301 34 47 293 344 244 143 92 78 39 0 0 0 0 0 0 0 0 0 0 0 0 0 0 0 0 0
0 0 42 326 502 446 316 570 775 842 813 1015 867 829 591 421 259 16 0 13 112 113 115 150 121 4 0 0 0 0 0 0 0 0 0 0 0 0 0 0 0 0 0
0 0 0 44 143 312 341 124 281 418 572 762 692 611 538 417 232 44 0 0 41 69 59 81 57 0 0 0 0 0 0 0 0 0 0 0 0 0 0 2 3 15 31
0 0 0 1 27 44 146 72 96 353 317 401 498 488 444 368 189 17 0 10 39 29 22 29 2 0 0 0 0 0 0 0 0 0 0 0 0 9 97 84 139 155 148
0 0 0 0 33 22 84 121 91 97 270 232 394 409 406 345 278 50 34 54 41 12 10 22 1 0 0 0 0 0 0 0 0 0 0 0 0 0 32 79 117 135 148
0 0 0 0 8 26 50 137 125 113 136 129 226 369 398 332 279 75 85 193 109 9 40 32 23 0 0 0 0 0 0 0 0 0 0 0 0 0 0 8 83 183 178
0 0 0 0 3 2 182 146 148 112 115 139 116 122 195 175 180 152 253 351 141 56 21 31 22 0 0 0 0 0 0 0 0 0 0 0 1 0 0 7 114 227 287
0 0 0 0 1 1 89 104 152 135 118 117 90 91 101 106 125 127 101 83 119 71 69 99 51 25 10 0 0 0 0 0 0 0 0 0 11 4 0 0 4 37 134
0 0 0 0 0 2 40 102 124 136 107 67 83 86 84 95 125 113 103 127 61 32 26 91 61 92 41 6 3 0 0 0 0 0 0 0 0 12 11 0 0 7 4
0 0 0 0 0 0 12 222 104 88 66 48 40 97 146 155 138 128 103 110 90 47 21 104 87 92 59 27 33 8 0 0 2 6 0 0 0 2 16 0 19 7 7
0 0 0 0 0 0 0 25 12 0 0 6 40 60 76 89 96 106 67 64 52 31 26 8 9 63 72 21 56 21 34 23 19 14 8 4 3 5 20 17 40 32 32
0 0 0 0 0 9 16 18 2 0 0 0 2 1 0 0 67 104 95 140 54 16 18 25 8 5 82 45 73 84 85 50 71 54 37 23 12 25 54 69 41 43 39
0 0 0 0 62 59 74 63 34 1 1 1 0 2 2 1 6 73 100 95 69 10 0 19 23 28 80 70 72 81 132 115 128 87 57 34 59 69 81 80 62 59 53
0 0 11 101 123 170 156 95 63 53 46 52 14 17 0 0 0 22 57 66 37 35 4 6 11 12 52 92 95 103 152 157 95 100 63 41 26 24 34 61 65 73 64
13 11 52 92 102 143 147 129 95 76 70 90 51 42 38 31 38 18 17 53 84 58 24 44 25 45 83 114 117 98 96 66 73 37 23 8 26 33 16 28 46 55 64

GFSSE_con_mucape_111.txt.gz
CAPE
669 1586 2335 2373 2020 1932 1895 2016 2265 2296 2258 2172 1534 1320 1129 789 264 137 369 689 759 545 67 5 11 307 190 21 71 259 283 294 54 162 392 482 378 408 0 0 2 5 95
607 1587 2218 2356 2298 2128 2087 2001 1956 2143 2101 1962 1676 1293 916 583 254 259 389 822 668 342 18 321 514 130 18 32 59 22 39 81 107 154 218 269 475 349 42 0 79 0 0
681 1660 1473 2367 2339 2306 2175 2128 1974 1946 1856 1811 1771 1210 888 493 126 136 503 888 798 368 90 97 373 430 28 6 8 9 34 69 32 0 0 173 283 460 354 291 417 345 358
1083 1664 1356 2434 2302 2186 2089 1919 1981 1883 1948 1745 1585 1169 672 360 337 377 899 882 865 462 345 255 116 52 2 3 5 17 5 0 0 0 0 4 28 29 4 4 11 99 48
1241 1476 1465 2165 2152 2156 2083 1922 1916 1929 1895 1632 1425 1230 918 846 533 1273 1079 819 770 441 429 177 27 19 4 2 0 0 0 0 0 0 0 0 1 3 2 5 2 3 2
1228 1287 1262 1786 2138 2079 1960 1885 1917 1937 1899 1807 1757 1324 986 1001 1202 1343 981 898 443 361 290 39 5 1 0 0 0 0 0 0 0 0 0 0 0 2 2 3 3 3 1
1098 1113 1292 1995 1761 2002 1958 1824 1916 2002 1934 1924 1923 1580 1201 1190 1481 1034 959 668 383 278 144 5 2 0 0 0 0 0 0 0 0 0 0 0 0 0 0 0 0 0 0
1132 1113 1313 1434 1550 1628 1732 1839 1934 2037 1818 1931 1866 1765 1560 1383 1442 1010 842 595 306 10 1 1 1 0 0 0 0 0 0 0 0 0 0 0 0 0 0 0 0 0 0
754 834 1123 1225 1184 1213 1304 1498 1717 1942 1788 1705 1602 1575 1474 1124 1021 1210 769 503 58 0 0 57 53 0 0 0 2 0 0 0 0 0 0 0 0 0 0 0 0 0 0
174 467 715 1042 1177 1233 1214 1212 1403 1543 1580 1555 1372 1246 1097 830 651 836 620 598 233 39 3 78 161 44 1 27 57 0 0 0 0 0 0 0 0 0 0 0 0 0 0
19 44 205 567 994 1170 1160 1158 1113 1225 1441 1395 1207 1024 956 869 857 647 486 419 215 61 42 81 145 86 0 0 0 0 0 0 0 0 0 0 0 0 0 0 0 0 0
5 7 4 135 548 968 1020 996 917 1158 1396 1220 1218 1227 1008 814 787 623 467 427 229 80 41 69 76 55 0 0 0 0 0 0 0 0 0 0 0 0 0 0 0 0 0
0 0 0 2 108 428 911 868 822 694 993 1051 1075 1114 922 772 635 408 507 650 390 14 0 7 17 1 0 0 0 0 0 0 0 0 0 0 0 0 0 0 0 0 0
0 0 0 0 7 55 282 520 796 553 630 816 992 885 845 796 549 206 131 404 325 158 32 58 86 13 0 0 0 0 0 0 0 0 0 0 0 0 0 0 0 1 11
0 0 0 0 0 17 23 242 469 492 548 593 609 619 713 683 488 266 97 54 172 199 82 44 52 14 0 0 0 0 0 0 0 0 0 0 0 0 78 116 144 209 243
0 0 0 0 0 5 9 124 188 255 427 509 425 466 468 391 431 274 116 75 64 127 59 20 46 6 0 0 0 0 0 0 0 0 0 0 0 0 0 106 209 266 259
0 0 0 0 0 0 1 26 49 95 372 455 298 196 272 342 266 346 132 49 93 81 85 42 25 0 0 0 0 0 0 0 0 0 0 0 0 0 0 23 74 197 301
0 0 0 0 0 0 5 0 87 106 152 298 147 83 114 209 165 246 222 79 62 84 73 73 63 44 13 0 0 0 0 0 0 0 0 0 0 0 0 0 77 154 311
0 0 0 0 0 0 1 6 2 216 202 289 228 153 90 109 127 137 146 137 136 76 74 52 74 63 30 3 0 0 0 0 0 0 0 0 0 2 9 14 13 37 107
0 0 0 0 0 0 2 12 2 181 127 149 182 127 94 98 126 132 121 133 152 119 79 52 74 71 52 33 29 0 0 0 0 0 0 0 2 9 17 41 42 22 22
0 0 0 0 0 0 5 14 0 89 160 151 125 148 83 108 127 143 119 104 91 119 104 76 9 0 33 71 68 13 18 23 0 0 0 0 9 22 4 47 70 45 39
0 0 0 0 0 0 1 3 25 64 194 178 156 80 171 139 115 111 113 164 220 96 103 91 11 0 8 30 59 3 0 60 72 58 20 19 24 18 19 33 74 67 54
0 0 0 0 0 0 1 11 4 103 106 151 120 108 90 109 157 168 118 134 106 84 115 123 36 14 26 13 20 39 0 0 64 63 62 57 67 90 60 99 109 104 71
0 0 0 0 0 0 1 8 4 5 55 0 0 0 7 65 77 200 187 106 98 97 84 105 34 3 11 10 1 19 56 79 146 100 107 134 126 110 101 127 96 103 92
0 0 0 0 0 67 111 9 28 31 8 2 0 0 0 3 4 4 129 106 10 36 43 60 31 24 13 29 1 13 18 93 89 118 123 108 93 54 57 58 54 65 71
0 0 0 1 65 133 120 90 178 108 75 69 70 67 31 28 30 20 23 75 17 13 11 12 65 43 24 10 15 25 54 88 111 94 74 68 65 41 83 63 36 28 35

GFSSE_con_mucape_114.txt.gz
CAPE
1304 1424 2247 2304 1932 2116 2146 2233 2356 2177 2359 2051 1333 1224 1279 764 183 276 696 131 365 243 9 3 142 419 122 151 322 414 338 247 210 400 477 632 416 0 0 10 272 121 266
1184 1282 2096 2349 2261 2345 2461 2439 2317 2491 2254 2031 1708 1433 1203 607 171 463 775 576 219 116 4 18 471 288 77 197 187 228 89 135 258 270 415 411 477 11 0 0 214 0 66
1128 1436 1538 2313 2174 2259 2242 2264 2201 2370 2115 1829 1857 1400 1351 642 291 416 880 722 616 294 381 479 266 19 53 68 10 52 74 126 134 66 58 312 395 443 352 319 459 443 412
1204 1584 1356 2078 2266 2343 2388 2251 2105 2212 2079 1790 1701 1503 1161 648 224 347 974 866 856 746 590 724 562 180 1 11 31 68 60 64 22 2 60 115 44 108 134 118 163 107 35
1391 1697 1255 1816 2046 2167 2309 2216 2122 2070 1957 1870 1934 1686 1360 583 332 393 1126 983 872 499 677 282 78 19 0 4 35 12 0 0 0 1 6 18 14 2 5 1 1 0 0
1486 1634 1531 1734 1861 2106 1876 2050 2145 2189 2143 1865 1711 1591 1312 1191 710 1211 970 873 852 688 466 65 10 0 0 0 0 0 0 0 0 3 0 0 3 1 4 3 1 1 0
1103 1459 1498 1756 1694 1801 2031 1955 1945 2060 2028 1938 1874 1449 1254 1490 1602 1320 1115 916 772 544 330 35 19 0 0 0 0 0 0 0 0 0 0 0 0 0 0 0 0 0 0
1612 945 1294 1334 1568 1532 1803 1691 1865 1997 2053 2008 1916 1741 1413 1514 1680 1317 1248 808 693 322 88 58 22 38 0 21 0 0 0 0 0 0 0 0 0 0 0 0 0 0 0
715 856 1272 1200 1114 1013 1140 1211 1433 1757 1863 1709 1770 1619 1373 1146 1175 1145 1112 757 504 297 243 201 66 67 22 24 0 0 0 0 0 0 0 0 0 1 0 0 0 0 0
129 402 306 988 916 865 1054 930 1051 1371 1432 1468 1492 1339 956 823 838 927 509 529 431 219 124 219 250 55 47 212 49 0 0 0 0 0 0 0 0 1 0 0 0 0 0
38 71 244 288 847 709 773 851 950 1048 1065 1033 1026 964 946 847 802 715 434 228 192 114 72 243 341 190 60 25 47 0 0 0 0 0 0 0 0 1 0 0 0 0 0
0 10 34 208 236 833 759 808 926 873 974 870 907 928 996 775 783 628 474 197 233 121 63 233 308 130 0 0 0 0 0 0 0 0 0 0 0 2 0 0 0 0 0
0 0 0 12 119 185 997 966 575 497 785 657 653 700 714 622 764 851 842 734 461 5 1 13 35 1 0 0 0 0 0 0 0 0 0 0 0 57 5 0 0 0 0
0 0 0 0 0 45 376 914 748 268 209 551 631 731 734 688 617 656 603 648 436 195 46 1 0 0 0 0 0 0 0 0 0 0 0 0 0 0 83 8 0 1 7
0 0 0 0 0 0 41 288 776 585 350 339 474 481 543 616 561 560 567 520 504 240 169 15 0 0 0 0 0 0 0 0 0 0 0 0 0 0 22 165 169 174 185
0 0 0 0 0 0 0 75 474 640 554 371 415 328 379 377 518 476 465 440 390 257 259 109 1 0 0 0 0 0 0 0 0 0 0 0 0 0 0 40 231 371 343
0 0 0 0 0 0 0 1 202 566 834 678 654 457 307 672 561 537 589 386 251 240 244 127 34 0 0 0 0 0 0 0 0 0 0 0 0 0 0 0 70 135 290
0 0 0 0 0 0 0 0 77 606 419 732 641 554 537 415 694 731 727 372 305 256 359 174 125 81 13 0 0 0 0 0 0 0 0 0 0 0 0 0 70 148 290
0 0 0 0 0 0 0 0 6 138 413 391 613 372 334 311 484 567 1009 550 455 386 408 84 100 101 167 22 5 0 0 0 0 0 0 0 0 5 25 19 18 37 103
0 0 0 0 0 0 0 0 12 111 130 263 501 411 185 156 212 428 492 576 474 415 261 83 70 38 93 101 7 0 0 0 0 0 0 0 0 10 47 75 74 52 48
0 0 0 0 0 0 0 0 7 12 66 178 348 436 365 265 119 288 331 178 251 290 342 222 203 200 25 30 14 9 0 9 5 12 16 20 4 34 69 87 85 96 70
0 0 0 0 0 0 0 0 0 13 16 257 247 338 341 367 310 142 237 316 252 220 257 219 194 179 151 42 22 18 0 0 0 1 27 20 48 68 86 73 76 91 131
0 0 0 0 0 0 0 4 24 25 93 112 261 481 435 390 385 324 221 231 264 376 218 269 291 237 119 44 9 4 0 0 0 7 55 77 65 78 102 87 77 98 140
0 0 0 0 0 0 0 3 36 26 27 37 254 359 444 444 413 337 358 298 290 195 139 322 443 459 237 71 13 44 50 21 28 1 13 57 88 126 141 108 74 66 87
7 0 0 0 0 0 0 0 5 12 59 145 329 348 368 321 278 364 391 379 186 207 170 207 261 322 331 242 200 46 67 165 75 92 1 47 69 75 80 61 61 81 63
16 41 46 0 0 0 0 2 2 42 71 213 266 289 254 205 153 121 143 219 324 310 176 116 170 117 237 150 102 102 47 52 132 130 63 78 224 146 93 57 20 38 39

GFSSE_con_mucape_117.txt.gz
CAPE
1151 1504 2285 2548 2129 2191 2258 2343 2186 2199 2226 1757 1098 1055 1064 660 97 142 71 144 40 13 11 104 219 500 297 410 501 518 440 350 467 450 647 376 23 50 71 16 351 33 141
729 1264 2102 2496 2470 2336 2391 2603 2236 2087 2136 2040 1840 1380 1310 540 156 739 461 209 113 104 50 230 508 161 346 326 413 234 204 312 287 510 491 187 153 0 12 459 436 87 338
1001 1340 1445 2461 2414 2436 2373 2451 2324 2062 2240 2007 1869 1751 1122 519 238 686 1091 384 651 53 76 414 325 332 256 161 87 18 164 225 176 177 208 306 357 400 339 415 540 414 337
1127 1512 1707 2192 2454 2438 2454 2316 2457 2387 2307 2166 1850 1790 1196 670 376 594 1177 837 845 572 677 831 549 97 113 43 61 70 118 111 19 56 121 56 91 183 182 134 90 58 47
1339 1554 1620 2024 2076 2387 2440 2396 2339 2397 2112 1878 1952 1584 1230 875 395 432 1039 891 1120 993 1018 697 209 45 46 60 89 59 61 16 0 8 23 51 12 7 1 1 0 0 0
1303 1322 1763 1996 1916 2028 2425 2389 2347 2248 2168 1743 1842 1681 1590 797 351 658 1239 789 1025 1009 672 181 92 0 10 63 41 24 0 0 0 3 0 0 4 0 0 0 0 0 0
996 1310 1329 1595 1845 1874 2029 1998 2144 1985 2066 1557 1894 1454 1081 969 1121 1476 1140 987 1051 756 555 125 47 7 0 0 0 0 0 0 0 0 0 1 0 0 0 0 0 0 0
606 772 1228 1383 1462 1565 1698 1679 1620 2064 2054 1837 1862 1762 1504 1653 1651 1317 1315 1042 739 653 271 65 52 12 0 0 0 0 0 0 0 0 0 3 0 0 0 0 0 0 0
483 792 1016 1409 1168 1054 1344 1392 1510 1565 1657 1771 1605 1540 1477 1383 1318 1513 1381 960 667 602 419 319 59 74 28 9 3 0 0 0 0 0 0 0 0 0 0 0 0 0 0
78 418 567 758 1115 1170 1103 1018 1081 1204 1224 1203 1281 1033 1005 799 877 915 781 638 613 611 441 368 296 92 68 121 5 0 0 0 0 0 0 0 0 0 0 0 0 0 0
0 54 449 404 868 1166 964 1073 944 937 989 951 940 945 845 802 598 513 439 363 418 451 303 366 440 228 75 173 35 0 0 0 0 0 0 0 0 0 0 0 0 0 0
0 0 43 264 284 411 927 757 1021 1077 1056 727 701 709 681 724 612 396 373 401 302 236 127 383 494 208 0 0 0 0 0 0 0 0 0 0 0 1 1 0 0 0 0
0 0 0 9 128 287 612 1113 857 935 868 843 674 616 685 499 331 845 1076 390 193 67 0 33 78 1 0 0 0 0 0 0 0 0 0 0 0 57 5 0 0 0 0
0 0 0 0 0 15 197 914 961 658 652 497 517 332 475 334 303 383 787 1011 802 177 18 0 0 0 0 0 0 0 0 0 0 0 0 0 0 0 41 6 0 0 0
0 0 0 0 0 0 0 104 974 939 291 245 443 427 508 489 309 335 671 752 677 557 108 7 0 0 0 0 0 0 0 0 0 0 0 0 0 0 0 93 130 121 116
0 0 0 0 0 0 0 0 174 842 857 374 297 554 490 506 411 505 288 568 660 541 213 10 1 0 0 0 0 0 0 0 0 0 0 0 0 0 0 0 115 394 334
0 0 0 0 0 0 0 0 0 270 886 1060 612 555 368 309 332 237 182 124 458 528 240 111 18 0 0 0 0 0 0 0 0 0 0 0 0 0 0 0 3 80 199
0 0 0 0 0 0 0 0 0 98 344 888 1006 849 577 195 338 610 667 536 375 294 503 318 151 27 12 0 0 0 0 0 0 0 0 0 0 0 0 0 33 73 264
0 0 0 0 0 0 0 0 0 0 236 324 799 854 816 631 572 517 629 636 616 352 369 425 204 74 33 3 0 0 0 0 0 0 0 0 0 0 0 2 0 7 44
0 0 0 0 0 0 0 0 0 0 204 279 438 802 781 644 449 411 603 604 528 748 555 597 416 249 95 96 12 3 0 0 0 0 0 1 0 0 7 23 50 17 10
0 0 0 0 0 0 0 0 0 0 19 205 310 625 722 540 322 568 326 362 456 618 306 446 351 248 197 139 118 80 0 9 0 0 0 0 0 0 2 11 54 64 48
1 0 0 0 0 0 0 0 0 0 11 70 339 463 516 564 548 440 520 539 343 321 316 260 248 201 189 186 78 47 23 3 0 0 0 0 0 0 0 8 38 52 80
13 5 0 0 0 0 0 0 0 26 79 41 178 240 608 517 658 643 559 548 440 271 257 287 269 231 187 143 131 100 12 0 0 0 0 0 0 0 1 17 34 60 62
0 48 7 0 0 0 0 0 0 3 46 68 152 276 511 540 588 650 499 557 408 355 343 314 312 298 319 373 270 80 38 34 53 1 0 0 0 3 11 26 56 77 67
0 0 51 8 0 0 0 0 0 9 24 64 216 214 468 460 466 607 614 558 634 448 484 468 404 236 384 353 297 136 17 30 54 88 23 29 7 18 97 97 102 80 55
0 0 25 56 6 0 0 0 0 11 41 67 145 257 343 393 536 472 500 562 571 439 251 406 336 352 258 213 261 217 103 24 44 83 87 45 41 85 86 106 76 66 68